[[{"header":{"parameterUnit":"m.s-1","parameterCategory":1,"la1":30.6,"la2":28.766,"lo1":-90.7593,"lo2":-88.6598,"dy":0.0162,"dx":0.0183,"nx":116,"ny":114,"refTime":"2023-03-24T06:00:00:Z","depth":0,"parameterNumber":2,"parameterNumberName":"U-component_of_WINDS"},"data":[0.0,0.0,0.0,0.0,0.0,0.0,0.0,0.0,0.0,0.0,0.0,0.0,0.0,0.0,0.0,0.0,0.0,0.0,0.0,0.0,0.0,0.0,0.0,0.0,0.0,0.0,0.0,0.0,0.0,0.0,0.0,0.0,0.0,0.0,0.0,0.0,0.0,0.0,0.0,0.0,0.0,0.0,0.0,0.0,0.0,0.0,0.0,0.0,0.0,0.0,0.0,0.0,0.0,0.0,0.0,0.0,0.0,0.0,0.0,0.0,0.0,0.0,0.0,0.0,0.0,0.0,0.0,0.0,0.0,0.0,0.0,0.0,0.0,0.0,0.0,0.0,0.0,0.0,0.0,0.0,0.0,0.0,0.0,0.0,0.0,0.0,0.0,0.0,0.0,0.0,0.0,0.0,0.0,0.0,0.0,0.0,0.0,0.0,0.0,0.0,0.0,0.0,0.0,0.0,0.0,0.0,0.0,0.0,0.0,0.0,0.0,0.0,0.0,0.0,0.0,0.0,0.0,0.0,0.0,0.0,0.0,0.0,0.0,0.0,0.0,0.0,0.0,0.0,0.0,0.0,0.0,0.0,0.0,0.0,0.0,0.0,0.0,0.0,0.0,0.0,0.0,0.0,0.0,0.0,0.0,0.0,0.0,0.0,0.0,0.0,0.0,0.0,0.0,0.0,0.0,0.0,0.0,0.0,0.0,0.0,0.0,0.0,0.0,0.0,0.0,0.0,0.0,0.0,0.0,0.0,0.0,0.0,0.0,0.0,0.0,0.0,0.0,0.0,0.0,0.0,0.0,0.0,0.0,0.0,0.0,0.0,0.0,0.0,0.0,0.0,0.0,0.0,0.0,0.0,0.0,0.0,0.0,0.0,0.0,0.0,0.0,0.0,0.0,0.0,0.0,0.0,0.0,0.0,0.0,0.0,0.0,0.0,0.0,0.0,0.0,0.0,0.0,0.0,0.0,0.0,0.0,0.0,0.0,0.0,0.0,0.0,0.0,0.0,0.0,0.0,0.0,0.0,0.0,0.0,0.0,0.0,0.0,0.0,0.0,0.0,0.0,0.0,0.0,0.0,0.0,0.0,0.0,0.0,0.0,0.0,0.0,0.0,0.0,0.0,0.0,0.0,0.0,0.0,0.0,0.0,0.0,0.0,0.0,0.0,0.0,0.0,0.0,0.0,0.0,0.0,0.0,0.0,0.0,0.0,0.0,0.0,0.0,0.0,0.0,0.0,0.0,0.0,0.0,0.0,0.0,0.0,0.0,0.0,0.0,0.0,0.0,0.0,0.0,0.0,0.0,0.0,0.0,0.0,0.0,0.0,0.0,0.0,0.0,0.0,0.0,0.0,0.0,0.0,0.0,0.0,0.0,0.0,0.0,0.0,0.0,0.0,0.0,0.0,0.0,0.0,0.0,0.0,0.0,0.0,0.0,0.0,0.0,0.0,0.0,0.0,0.0,0.0,0.0,0.0,0.0,0.0,0.0,0.0,0.0,0.0,0.0,0.0,0.0,0.0,0.0,0.0,0.0,0.0,0.0,0.0,0.0,0.0,0.0,0.0,0.0,0.0,0.0,0.0,0.0,0.0,0.0,0.0,0.0,0.0,0.0,0.0,0.0,0.0,0.0,0.0,0.0,0.0,0.0,0.0,0.0,0.0,0.0,0.0,0.0,0.0,0.0,0.0,0.0,0.0,0.0,0.0,0.0,0.0,0.0,0.0,0.0,0.0,0.0,0.0,0.0,0.0,0.0,0.0,0.0,0.0,0.0,0.0,0.0,0.0,0.0,0.0,0.0,0.0,0.0,0.0,0.0,0.0,0.0,0.0,0.0,0.0,0.0,0.0,0.0,0.0,0.0,0.0,0.0,0.0,0.0,0.0,0.0,0.0,0.0,0.0,0.0,0.0,0.0,0.0,0.0,0.0,0.0,0.0,0.0,0.0,0.0,0.0,0.0,0.0,0.0,0.0,0.0,0.0,0.0,0.0,0.0,0.0,0.0,0.0,0.0,0.0,0.0,0.0,0.0,0.0,0.0,0.0,0.0,0.0,0.0,0.0,0.0,0.0,0.0,0.0,0.0,0.0,0.0,0.0,0.0,0.0,0.0,0.0,0.0,0.0,0.0,0.0,0.0,0.0,0.0,0.0,0.0,0.0,0.0,0.0,0.0,0.0,0.0,0.0,0.0,0.0,0.0,0.0,0.0,0.0,0.0,0.0,0.0,0.0,0.0,0.0,0.0,0.0,0.0,0.0,0.0,0.0,0.0,0.0,0.0,0.0,0.0,0.0,0.0,0.0,0.0,0.0,0.0,0.0,0.0,0.0,0.0,0.0,0.0,0.0,0.0,0.0,0.0,0.0,0.0,0.0,0.0,0.0,0.0,0.0,0.0,0.0,0.0,0.0,0.0,0.0,0.0,0.0,0.0,0.0,0.0,0.0,0.0,0.0,0.0,0.0,0.0,0.0,0.0,0.0,0.0,0.0,0.0,0.0,0.0,0.0,0.0,0.0,0.0,0.0,0.0,0.0,0.0,0.0,0.0,0.0,0.0,0.0,0.0,0.0,0.0,0.0,0.0,0.0,0.0,0.0,0.0,0.0,0.0,0.0,0.0,0.0,0.0,0.0,0.0,0.0,0.0,0.0,0.0,0.0,0.0,0.0,0.0,0.0,0.0,0.0,0.0,0.0,0.0,0.0,0.0,0.0,0.0,0.0,0.0,0.0,0.0,0.0,0.0,0.0,0.0,0.0,0.0,0.0,0.0,0.0,0.0,0.0,0.0,0.0,0.0,0.0,0.0,0.0,0.0,0.0,0.0,0.0,0.0,0.0,0.0,0.0,0.0,0.0,0.0,0.0,0.0,0.0,0.0,0.0,0.0,0.0,0.0,0.0,0.0,0.0,0.0,0.0,0.0,0.0,0.0,0.0,0.0,0.0,0.0,0.0,0.0,0.0,0.0,0.0,0.0,0.0,0.0,0.0,0.0,0.0,0.0,0.0,0.0,0.0,0.0,0.0,0.0,0.0,0.0,0.0,0.0,0.0,0.0,0.0,0.0,0.0,0.0,0.0,0.0,0.0,0.0,0.0,0.0,0.0,0.0,0.0,0.0,0.0,0.0,0.0,0.0,0.0,0.0,0.0,0.0,0.0,0.0,0.0,0.0,0.0,0.0,0.0,0.0,0.0,0.0,0.0,0.0,0.0,0.0,0.0,0.0,0.0,0.0,0.0,0.0,0.0,0.0,0.0,0.0,0.0,0.0,0.0,0.0,0.0,0.0,0.0,0.0,0.0,0.0,0.0,0.0,0.0,0.0,0.0,0.0,0.0,0.0,0.0,0.0,0.0,0.0,0.0,0.0,0.0,0.0,0.0,0.0,0.0,0.0,0.0,0.0,0.0,0.0,0.0,0.0,0.0,0.0,0.0,0.0,0.0,0.0,0.0,0.0,0.0,0.0,0.0,0.0,0.0,0.0,0.0,0.0,0.0,0.0,0.0,0.0,0.0,0.0,0.0,0.0,0.0,0.0,0.0,0.0,0.0,0.0,0.0,0.0,0.0,0.0,0.0,0.0,0.0,0.0,0.0,0.0,0.0,0.0,0.0,0.0,0.0,0.0,0.0,0.0,0.0,0.0,0.0,0.0,0.0,0.0,0.0,0.0,0.0,0.0,0.0,0.0,0.0,0.0,0.0,0.0,0.0,0.0,0.0,0.0,0.0,0.0,0.0,0.0,0.0,0.0,0.0,0.0,0.0,0.0,0.0,0.0,0.0,0.0,0.0,0.0,0.0,0.0,0.0,0.0,0.0,0.0,0.0,0.0,0.0,0.0,0.0,0.0,0.0,0.0,0.0,0.0,0.0,0.0,0.0,0.0,0.0,0.0,0.0,0.0,0.0,0.0,0.0,0.0,0.0,0.0,0.0,0.0,0.0,0.0,0.0,0.0,0.0,0.0,0.0,0.0,0.0,0.0,0.0,0.0,0.0,0.0,0.0,0.0,0.0,0.0,0.0,0.0,0.0,0.0,0.0,0.0,0.0,0.0,0.0,0.0,0.0,0.0,0.0,0.0,0.0,0.0,0.0,0.0,0.0,0.0,0.0,0.0,0.0,0.0,0.0,0.0,0.0,0.0,0.0,0.0,0.0,0.0,0.0,0.0,0.0,0.0,0.0,0.0,0.0,0.0,0.0,0.0,0.0,0.0,0.0,0.0,0.0,0.0,0.0,0.0,0.0,0.0,0.0,0.0,0.0,0.0,0.0,0.0,0.0,0.0,0.0,0.0,0.0,0.0,0.0,0.0,0.0,0.0,0.0,0.0,0.0,0.0,0.0,0.0,0.0,0.0,0.0,0.0,0.0,0.0,0.0,0.0,0.0,0.0,0.0,0.0,0.0,0.0,0.0,0.0,0.0,0.0,0.0,0.0,0.0,0.0,0.0,0.0,0.0,0.0,0.0,0.0,0.0,0.0,0.0,0.0,0.0,0.0,0.0,0.0,0.0,0.0,0.0,0.0,0.0,0.0,0.0,0.0,0.0,0.0,0.0,0.0,0.0,0.0,0.0,0.0,0.0,0.0,0.0,0.0,0.0,0.0,0.0,0.0,0.0,0.0,0.0,0.0,0.0,0.0,0.0,0.0,0.0,0.0,0.0,0.0,0.0,0.0,0.0,0.0,0.0,0.0,0.0,0.0,0.0,0.0,0.0,0.0,0.0,0.0,0.0,0.0,0.0,0.0,0.0,0.0,0.0,0.0,0.0,0.0,0.0,0.0,0.0,0.0,0.0,0.0,0.0,0.0,0.0,0.0,0.0,0.0,0.0,0.0,0.0,0.0,0.0,0.0,0.0,0.0,0.0,0.0,0.0,0.0,0.0,0.0,0.0,0.0,0.0,0.0,0.0,0.0,0.0,0.0,0.0,0.0,0.0,0.0,0.0,0.0,0.0,0.0,0.0,0.0,0.0,0.0,0.0,0.0,0.0,0.0,0.0,0.0,0.0,0.0,0.0,0.0,0.0,0.0,0.0,0.0,0.0,0.0,0.0,0.0,0.0,0.0,0.0,0.0,0.0,0.0,0.0,0.0,0.0,0.0,0.0,0.0,0.0,0.0,0.0,0.0,0.0,0.0,0.0,0.0,0.0,0.0,0.0,0.0,0.0,0.0,0.0,0.0,0.0,0.0,0.0,0.0,0.0,0.0,0.0,0.0,0.0,0.0,0.0,0.0,0.0,0.0,0.0,0.0,0.0,0.0,0.0,0.0,0.0,0.0,0.0,0.0,0.0,0.0,0.0,0.0,0.0,0.0,0.0,0.0,0.0,0.0,0.0,0.0,0.0,0.0,0.0,0.0,0.0,0.0,0.0,0.0,0.0,0.0,0.0,0.0,0.0,0.0,0.0,0.0,0.0,0.0,0.0,0.0,0.0,0.0,0.0,0.0,0.0,0.0,0.0,0.0,0.0,0.0,0.0,0.0,0.0,0.0,0.0,0.0,0.0,0.0,0.0,0.0,0.0,0.0,0.0,0.0,0.0,0.0,0.0,0.0,0.0,0.0,0.0,0.0,0.0,0.0,0.0,0.0,0.0,0.0,0.0,0.0,0.0,0.0,0.0,0.0,0.0,0.0,0.0,0.0,0.0,0.0,0.0,0.0,0.0,0.0,0.0,0.0,0.0,0.0,0.0,0.0,0.0,0.0,0.0,0.0,0.0,0.0,0.0,0.0,0.0,0.0,0.0,0.0,0.0,0.0,0.0,0.0,0.0,0.0,0.0,0.0,0.0,0.0,0.0,0.0,0.0,0.0,0.0,0.0,0.0,0.0,0.0,0.0,0.0,0.0,0.0,0.0,0.0,0.0,0.0,0.0,0.0,0.0,0.0,0.0,0.0,0.0,0.0,0.0,0.0,0.0,0.0,0.0,0.0,0.0,0.0,0.0,0.0,0.0,0.0,0.0,0.0,0.0,0.0,0.0,0.0,0.0,0.0,0.0,0.0,0.0,0.0,0.0,0.0,0.0,0.0,0.0,0.0,0.0,0.0,0.0,0.0,0.0,0.0,0.0,0.0,0.0,0.0,0.0,0.0,0.0,0.0,0.0,0.0,0.0,0.0,0.0,0.0,4.6098,0.0,0.0,0.0,0.0,0.0,0.0,0.0,0.0,0.0,0.0,0.0,0.0,0.0,0.0,0.0,0.0,0.0,0.0,0.0,0.0,0.0,0.0,0.0,0.0,0.0,0.0,0.0,0.0,0.0,0.0,0.0,0.0,0.0,0.0,0.0,0.0,0.0,0.0,0.0,0.0,0.0,0.0,0.0,0.0,0.0,0.0,0.0,0.0,0.0,0.0,0.0,0.0,0.0,0.0,0.0,0.0,0.0,0.0,0.0,0.0,0.0,0.0,0.0,0.0,0.0,0.0,0.0,0.0,0.0,0.0,0.0,0.0,0.0,0.0,0.0,0.0,0.0,0.0,0.0,0.0,0.0,0.0,0.0,0.0,0.0,0.0,0.0,0.0,0.0,0.0,0.0,0.0,0.0,0.0,0.0,0.0,0.0,0.0,0.0,0.0,0.0,0.0,0.0,0.0,0.0,0.0,0.0,0.0,0.0,0.0,0.0,0.0,0.0,0.0,0.0,0.0,4.658,0.0,0.0,0.0,0.0,0.0,0.0,0.0,0.0,0.0,0.0,0.0,0.0,0.0,0.0,0.0,0.0,0.0,0.0,0.0,0.0,0.0,0.0,0.0,0.0,0.0,0.0,0.0,0.0,0.0,0.0,0.0,0.0,0.0,0.0,0.0,0.0,0.0,0.0,0.0,0.0,0.0,0.0,0.0,0.0,0.0,0.0,0.0,0.0,0.0,0.0,0.0,0.0,0.0,0.0,0.0,0.0,0.0,0.0,0.0,0.0,0.0,0.0,0.0,0.0,0.0,0.0,0.0,0.0,0.0,0.0,0.0,0.0,0.0,0.0,0.0,0.0,0.0,0.0,0.0,0.0,0.0,0.0,0.0,0.0,0.0,0.0,0.0,0.0,0.0,0.0,0.0,0.0,0.0,0.0,0.0,0.0,0.0,0.0,0.0,0.0,0.0,0.0,0.0,0.0,0.0,0.0,0.0,0.0,0.0,4.6832,4.6832,4.6832,4.6416,4.5722,4.6487,4.647,4.601,0.0,0.0,0.0,0.0,0.0,0.0,0.0,0.0,0.0,0.0,0.0,0.0,0.0,0.0,0.0,0.0,0.0,0.0,0.0,0.0,0.0,0.0,0.0,0.0,0.0,0.0,0.0,0.0,0.0,0.0,0.0,0.0,0.0,0.0,0.0,0.0,0.0,0.0,0.0,3.7669,3.7669,3.7752,3.7923,3.8787,0.0,0.0,0.0,0.0,0.0,0.0,0.0,0.0,0.0,0.0,0.0,0.0,0.0,0.0,0.0,0.0,0.0,0.0,0.0,0.0,0.0,0.0,0.0,0.0,0.0,0.0,0.0,0.0,0.0,0.0,0.0,0.0,0.0,0.0,0.0,0.0,0.0,0.0,0.0,0.0,0.0,0.0,0.0,4.2643,4.2645,0.0,0.0,0.0,0.0,0.0,0.0,0.0,0.0,0.0,0.0,0.0,0.0,0.0,0.0,4.5754,4.5754,4.5493,4.4955,4.4955,4.4955,4.4955,4.4955,4.488,4.4783,4.4899,0.0,4.5921,4.6154,0.0,0.0,0.0,0.0,0.0,0.0,0.0,0.0,0.0,0.0,0.0,0.0,0.0,0.0,0.0,0.0,0.0,0.0,0.0,0.0,0.0,0.0,0.0,0.0,0.0,0.0,0.0,0.0,0.0,0.0,0.0,0.0,0.0,0.0,0.0,0.0,3.6464,3.654,3.6785,3.6785,3.6885,3.7064,3.7896,3.9179,4.0707,4.1188,0.0,0.0,0.0,0.0,0.0,0.0,0.0,0.0,0.0,0.0,0.0,0.0,0.0,0.0,0.0,0.0,0.0,0.0,0.0,0.0,0.0,0.0,0.0,0.0,0.0,0.0,0.0,0.0,0.0,0.0,0.0,0.0,0.0,0.0,0.0,0.0,0.0,0.0,0.0,4.2455,4.2605,4.2607,4.2857,4.3038,0.0,0.0,0.0,0.0,0.0,0.0,0.0,0.0,0.0,4.4634,4.493,4.5086,4.5086,4.5086,4.4915,4.4591,4.4591,4.4591,4.4591,4.4591,4.4591,4.4591,4.4591,4.4821,4.5203,4.5685,4.6382,4.714,0.0,0.0,0.0,0.0,0.0,4.8127,0.0,0.0,0.0,0.0,0.0,0.0,0.0,0.0,0.0,0.0,0.0,0.0,0.0,0.0,0.0,3.3783,0.0,0.0,0.0,0.0,0.0,0.0,0.0,0.0,0.0,0.0,0.0,3.6332,3.6332,3.641,3.6567,3.6567,3.6655,3.6902,3.7534,3.8797,4.0441,4.0793,4.1492,0.0,0.0,0.0,0.0,0.0,0.0,0.0,0.0,0.0,0.0,0.0,0.0,0.0,0.0,0.0,0.0,0.0,0.0,0.0,0.0,0.0,0.0,0.0,0.0,0.0,0.0,0.0,0.0,0.0,0.0,0.0,0.0,0.0,0.0,0.0,0.0,0.0,0.0,4.2863,4.2925,4.3094,4.311,4.311,0.0,0.0,0.0,0.0,0.0,0.0,4.4591,4.4591,4.4591,4.4591,4.4591,4.4591,4.4591,4.4591,4.4591,4.4591,4.4591,4.4591,4.4591,4.4591,4.4591,4.4591,4.4591,4.4591,4.4648,4.5298,4.5685,4.5957,4.666,4.7088,4.729,4.7205,4.7189,4.7239,0.0,0.0,0.0,0.0,0.0,0.0,0.0,0.0,0.0,0.0,0.0,0.0,0.0,0.0,3.3796,3.4306,3.4384,3.4397,0.0,0.0,0.0,0.0,0.0,3.526,0.0,0.0,0.0,3.6959,3.6959,3.726,3.7808,3.7808,3.7808,3.7831,3.8066,3.8522,3.9137,3.9917,4.0796,4.1681,0.0,0.0,0.0,0.0,0.0,0.0,0.0,0.0,0.0,0.0,0.0,0.0,0.0,0.0,0.0,0.0,0.0,0.0,0.0,0.0,0.0,0.0,0.0,0.0,0.0,0.0,0.0,0.0,0.0,0.0,0.0,0.0,0.0,0.0,0.0,0.0,0.0,0.0,0.0,4.4421,4.4498,0.0,0.0,0.0,0.0,4.4545,4.4575,4.4591,4.4591,4.4591,4.4591,4.4591,4.4591,4.4591,4.4591,4.4591,4.4591,4.4591,4.4591,4.4591,4.4591,4.4591,4.4591,4.4591,4.4591,4.4591,4.4591,4.4648,4.5147,4.5903,4.5939,4.6504,4.7189,4.6311,4.6115,4.615,0.0,0.0,0.0,0.0,0.0,0.0,0.0,0.0,0.0,0.0,0.0,0.0,0.0,3.3901,3.4188,3.4384,3.4397,3.4397,3.4397,0.0,0.0,0.0,3.5521,3.6005,3.6384,0.0,3.7364,3.7586,3.7586,3.7691,3.79,3.79,3.79,3.79,3.7979,3.8121,3.8367,3.9516,4.0519,4.1356,4.1418,4.1949,0.0,0.0,0.0,0.0,0.0,0.0,0.0,0.0,0.0,0.0,0.0,0.0,0.0,0.0,0.0,0.0,0.0,0.0,0.0,0.0,0.0,0.0,0.0,0.0,0.0,0.0,0.0,0.0,0.0,0.0,0.0,0.0,0.0,0.0,0.0,0.0,0.0,4.4575,4.4591,0.0,4.4591,4.4591,4.4591,4.4591,4.4591,4.4591,4.4591,4.4591,4.4591,4.4591,4.4591,4.4591,4.4591,4.4591,4.4591,4.4591,4.4591,4.4591,4.4591,4.4591,4.4591,4.4591,4.4591,4.4591,4.4591,4.4591,4.4783,4.507,4.507,4.5277,4.5536,4.5332,4.5292,4.5345,0.0,0.0,0.0,0.0,0.0,0.0,0.0,0.0,0.0,0.0,0.0,3.3666,3.3849,3.4188,3.4397,3.4397,3.4397,3.4489,3.4685,0.0,0.0,0.0,3.6109,3.6684,3.7299,3.7704,3.79,3.79,3.79,3.79,3.79,3.79,3.79,3.79,3.79,3.79,3.7969,3.8841,3.9724,4.0533,4.0597,4.1273,4.2257,0.0,0.0,0.0,0.0,0.0,0.0,0.0,0.0,0.0,0.0,0.0,0.0,0.0,0.0,0.0,0.0,0.0,0.0,0.0,0.0,0.0,0.0,0.0,0.0,0.0,0.0,0.0,0.0,0.0,0.0,0.0,0.0,0.0,0.0,0.0,4.4591,4.4591,4.4591,4.4591,4.4591,4.4591,4.4572,4.4496,4.4496,4.4496,4.4496,4.4435,4.4473,4.4606,4.4515,4.4515,4.4591,4.4591,4.4591,4.4591,4.4591,4.4591,4.4591,4.4591,4.4591,4.4591,4.4591,4.4591,4.4591,4.4591,4.4591,4.4591,4.4591,4.4591,4.4625,4.4742,4.4799,4.4818,0.0,0.0,0.0,0.0,0.0,0.0,0.0,0.0,0.0,0.0,3.3247,3.3809,3.4345,3.4397,3.4397,3.4397,3.4397,3.4659,3.526,3.5312,0.0,0.0,3.6724,3.7312,3.79,3.79,3.79,3.79,3.79,3.79,3.79,3.79,3.79,3.79,3.79,3.79,3.79,3.79,3.8395,3.9188,3.9373,4.0015,4.0986,0.0,0.0,0.0,0.0,0.0,0.0,0.0,0.0,0.0,0.0,0.0,0.0,0.0,0.0,0.0,0.0,0.0,0.0,0.0,0.0,0.0,0.0,0.0,0.0,0.0,0.0,0.0,0.0,0.0,0.0,0.0,0.0,0.0,4.4591,4.4606,4.4591,4.4591,4.4591,4.4591,4.4591,4.4591,4.4511,4.432,4.4301,4.4301,4.4301,4.4108,4.4166,4.4572,4.4396,4.4396,4.4587,4.4591,4.4606,4.4622,4.4622,4.4637,4.4652,4.4652,4.4652,4.4652,4.4652,4.4652,4.4652,4.4652,4.4652,4.4652,4.4622,4.4591,4.4591,4.4591,4.4591,4.4644,0.0,0.0,0.0,0.0,0.0,0.0,0.0,0.0,0.0,0.0,3.3835,3.4241,3.4384,3.4397,3.4397,3.4397,3.4397,3.4659,3.526,0.0,0.0,3.7364,3.7573,3.773,3.79,3.79,3.79,3.79,3.79,3.79,3.79,3.79,3.79,3.79,3.79,3.79,3.79,3.79,3.8047,3.8272,3.8317,3.8962,3.9929,0.0,0.0,0.0,0.0,0.0,0.0,0.0,0.0,0.0,0.0,0.0,0.0,0.0,0.0,0.0,0.0,0.0,0.0,0.0,0.0,0.0,0.0,0.0,0.0,0.0,0.0,0.0,0.0,0.0,0.0,0.0,0.0,4.4377,4.4377,4.4511,4.4591,4.4591,4.4591,4.4549,4.4396,4.4377,4.4358,4.4301,4.4166,4.4162,4.4301,4.4108,4.4065,4.4166,4.4108,4.4166,4.4377,4.4377,4.4699,4.533,4.533,4.5592,4.6034,4.6034,4.6034,4.6034,4.6034,4.6034,4.6034,4.6034,4.6034,4.5942,4.4976,4.4591,4.4591,4.4591,4.4591,4.4668,0.0,0.0,0.0,0.0,0.0,0.0,0.0,0.0,0.0,0.0,3.4071,3.4397,3.4397,3.4397,3.4397,3.4397,3.4633,3.5012,3.56,0.0,3.7168,3.7874,3.79,3.79,3.79,3.79,3.79,3.79,3.79,3.79,3.79,3.79,3.79,3.79,3.79,3.79,3.79,3.79,3.79,3.79,3.79,3.8272,3.8872,3.9246,4.0433,4.1945,4.2321,4.3145,4.4026,4.4127,0.0,0.0,0.0,0.0,0.0,0.0,0.0,0.0,0.0,0.0,0.0,0.0,0.0,0.0,0.0,0.0,0.0,0.0,0.0,0.0,0.0,0.0,0.0,0.0,4.4108,4.4127,4.4065,4.4224,4.4377,4.4458,4.4396,4.4301,4.4185,4.4166,4.4127,4.4065,4.3949,4.405,4.4406,4.4225,4.4381,4.4945,4.4882,4.4965,4.5259,4.5263,4.5521,4.6018,4.6018,4.6219,4.6603,4.6603,4.6603,0.0,4.6603,4.6603,4.6603,4.6603,4.6603,0.0,0.0,0.0,0.0,0.0,4.5438,4.5499,0.0,0.0,0.0,0.0,0.0,0.0,0.0,0.0,0.0,0.0,0.0,3.4397,3.4397,3.4397,3.4397,3.4397,3.4946,3.5561,0.0,3.7273,3.79,3.79,3.79,3.79,3.79,3.79,3.79,3.79,3.79,3.79,3.79,3.79,3.79,3.79,3.79,3.79,3.79,3.79,3.79,3.79,3.79,3.79,3.7979,3.876,3.9733,4.0817,4.1664,4.267,4.3645,4.3762,0.0,0.0,0.0,0.0,0.0,0.0,0.0,0.0,0.0,0.0,0.0,0.0,0.0,0.0,0.0,0.0,0.0,0.0,0.0,0.0,0.0,0.0,0.0,0.0,4.3773,4.3778,4.371,4.3754,4.3895,4.4224,4.4123,4.3988,4.3968,4.4029,4.3996,4.3815,4.3836,4.4122,4.468,0.0,0.0,0.0,0.0,4.6103,4.6469,4.6504,4.6555,4.6671,4.6671,4.6737,4.6819,4.6819,4.6819,4.6819,4.6819,4.6819,4.6819,4.6819,4.6819,4.6803,4.6665,4.6603,4.6603,4.6603,4.6603,0.0,0.0,0.0,0.0,0.0,0.0,0.0,0.0,0.0,0.0,3.411,3.4332,3.4397,3.4397,3.4397,3.4397,3.4397,3.4946,3.573,3.6763,3.7508,3.79,3.79,3.79,3.79,3.79,3.79,3.79,3.79,3.79,3.79,3.79,3.79,3.79,3.79,3.79,3.79,3.79,3.79,3.79,3.79,3.79,3.79,3.7923,3.808,3.8715,3.9536,3.9733,4.0425,4.1407,4.231,4.2629,4.279,4.3704,0.0,0.0,0.0,0.0,0.0,0.0,0.0,0.0,0.0,0.0,0.0,0.0,0.0,0.0,0.0,0.0,0.0,0.0,0.0,0.0,4.3749,4.3095,4.2866,4.3596,4.2935,4.28,4.3914,4.4026,4.3949,4.3773,4.4202,4.4484,4.4444,4.4779,4.5104,4.5388,4.5218,0.0,4.5496,4.547,4.5558,4.5788,4.5788,4.6244,4.7155,0.0,0.0,4.8199,4.8199,4.8199,4.8199,4.8199,4.8199,4.8199,4.8199,4.8199,4.8112,4.7019,4.6603,4.6603,4.6603,4.6603,4.668,0.0,0.0,0.0,0.0,0.0,0.0,0.0,0.0,0.0,0.0,3.4397,3.4397,3.4397,3.4397,3.4515,3.4816,3.5652,3.6515,3.7403,3.773,3.79,3.79,3.79,3.79,3.79,3.79,3.79,3.79,3.79,3.79,3.79,3.79,3.79,3.79,3.79,3.79,3.79,3.79,3.79,3.79,3.79,3.79,3.79,3.79,3.844,3.921,3.921,3.979,4.0689,4.1246,4.1761,4.2243,4.282,4.3309,4.368,0.0,0.0,0.0,0.0,0.0,0.0,0.0,0.0,0.0,0.0,0.0,0.0,0.0,0.0,4.3968,0.0,0.0,4.322,4.3463,4.2739,4.2461,4.3384,4.3298,4.3326,4.3784,4.4021,4.4118,4.3998,4.4584,4.4959,4.4959,4.5172,4.548,4.5929,4.5855,4.6139,4.6941,4.6956,4.7213,4.7743,4.7743,4.8052,4.86,4.8727,4.9038,4.9466,4.9587,4.9651,4.9651,4.9651,4.9651,4.9651,4.9651,4.9651,4.9589,4.8912,4.8219,4.7604,4.7604,4.7604,4.765,0.0,0.0,0.0,0.0,0.0,0.0,0.0,0.0,0.0,0.0,3.4397,3.4397,3.4397,3.4397,3.4685,0.0,3.6397,3.726,3.7861,3.79,3.79,3.79,3.79,3.79,3.79,3.79,3.79,3.79,3.79,3.79,3.79,3.79,3.79,3.79,3.79,3.79,3.79,3.79,3.79,3.79,3.79,3.79,3.79,3.79,3.834,3.8935,3.8935,3.9423,4.0144,4.0475,4.1092,4.179,4.2135,4.2719,4.3329,4.3557,4.3616,0.0,0.0,0.0,0.0,0.0,0.0,0.0,0.0,4.391,4.3929,4.3875,4.3856,4.3797,4.3655,4.286,4.2511,4.3354,4.2447,4.2104,4.3488,4.3669,4.3741,4.3988,4.4298,4.4491,4.4491,4.511,4.5484,4.5484,4.5738,4.6127,4.6659,4.6809,4.7456,4.8696,4.8748,4.907,4.9776,4.9776,4.9798,4.9827,5.0048,5.0179,5.0223,5.0493,5.0617,5.0617,5.0676,5.0697,5.0697,5.0697,5.0697,5.0697,5.0697,5.0005,4.8983,4.8866,4.8706,4.8599,0.0,0.0,0.0,0.0,0.0,0.0,0.0,0.0,0.0,0.0,0.0,0.0,0.0,0.0,0.0,3.5913,3.6619,3.726,3.7861,3.79,3.79,3.79,3.79,3.79,3.79,3.79,3.79,3.79,3.79,3.79,3.79,3.79,3.79,3.79,3.79,3.79,3.79,3.79,3.79,3.79,3.79,3.79,3.79,3.79,3.7969,3.8047,3.8047,3.8103,3.8453,4.0057,4.0667,4.105,4.2659,4.323,4.3309,4.3329,4.3329,4.3364,4.3369,4.3369,4.3369,4.3369,4.3557,4.3655,0.0,4.3557,4.3655,4.3443,4.3369,4.3369,4.3364,4.2618,4.2509,4.3951,4.2017,4.1417,4.4623,4.2944,4.2295,4.4816,4.516,4.5185,4.5185,4.5777,4.6196,4.6196,4.7294,4.8004,4.8057,4.8648,4.9045,4.9217,4.9217,4.9284,4.9382,4.9382,4.9456,4.962,4.9665,4.9776,4.9938,5.0223,5.0347,5.0369,5.0595,5.0697,5.0697,5.0697,5.0697,5.0697,5.0697,5.0605,5.0389,4.9789,4.9158,4.8599,0.0,0.0,0.0,0.0,0.0,0.0,0.0,0.0,0.0,0.0,0.0,0.0,0.0,0.0,3.5587,3.6057,3.6972,3.7639,3.7887,3.79,3.79,3.79,3.79,3.79,3.79,3.79,3.79,3.79,3.79,3.79,3.79,3.79,3.79,3.79,3.79,3.79,3.79,3.79,3.79,3.79,3.79,3.79,3.79,3.79,3.79,3.79,3.79,3.79,0.0,0.0,3.9744,4.0717,4.1491,4.2461,4.329,4.329,4.329,4.319,4.2679,4.2915,4.319,4.2659,4.301,4.3443,4.3329,4.3384,4.3443,4.3309,4.3624,4.3696,4.3116,4.3063,4.3109,0.0,4.2219,4.1985,4.335,4.2843,4.2927,4.4471,4.5565,4.624,4.6459,4.6541,4.7,4.7953,4.8573,4.8873,4.8873,4.9142,4.9456,4.9823,4.9823,5.0017,5.0406,5.0406,5.0452,5.0529,5.069,5.0804,5.0903,5.1182,5.1347,5.1488,5.1741,5.1867,5.1867,5.1867,5.1867,5.1867,5.1867,5.1636,5.1205,5.0528,5.0082,4.982,0.0,0.0,0.0,0.0,0.0,0.0,0.0,0.0,0.0,0.0,0.0,0.0,0.0,0.0,3.6109,3.6109,3.7207,3.79,3.79,3.79,3.79,3.79,3.79,3.79,3.79,3.79,3.79,3.79,3.79,3.79,3.79,3.79,3.79,3.79,3.79,3.79,3.79,3.79,3.79,3.79,3.79,3.79,3.79,3.79,3.79,3.79,3.79,3.79,0.0,0.0,3.914,4.0267,4.0504,4.1672,4.2935,4.2935,4.3095,4.317,4.2537,4.2815,4.315,4.2517,4.2835,4.3349,4.3529,4.3579,4.3638,4.3818,4.4018,4.4022,4.3569,4.3286,4.3085,4.299,4.2381,4.2245,4.3147,4.3106,4.3569,4.5137,4.5562,4.6363,4.7955,4.7716,4.7995,4.9202,4.9456,4.9561,4.9561,4.9726,5.0017,5.0473,5.0488,5.0712,5.1191,5.1191,5.1191,5.1191,5.1401,5.1494,5.1494,5.1764,5.204,5.2306,5.2503,5.2631,5.2691,5.2691,5.2691,5.2691,5.2691,5.2406,5.1929,5.1436,5.1021,5.0697,0.0,0.0,0.0,0.0,0.0,0.0,0.0,0.0,0.0,0.0,0.0,0.0,0.0,0.0,3.6109,3.6109,3.7207,3.79,3.79,3.79,3.79,3.79,3.79,3.79,3.79,3.79,3.79,3.79,3.79,3.79,3.79,3.79,3.79,3.79,3.79,3.79,3.79,3.79,3.79,3.79,3.79,3.79,3.79,3.79,3.79,3.79,3.79,0.0,0.0,0.0,3.921,3.9395,4.031,4.1254,4.2032,4.2032,4.2638,4.329,4.327,4.327,4.329,4.327,4.327,4.3469,4.4117,4.4267,4.4446,4.511,4.4482,4.4099,4.5037,4.2962,4.1883,4.4337,4.2326,4.1691,4.5191,4.3691,4.3696,4.7696,4.5188,4.4949,0.0,4.9576,4.9254,4.9292,4.9853,5.0166,5.0166,5.0787,5.1146,5.1161,5.1161,5.1176,5.1191,5.1191,5.1191,5.1191,5.1214,5.1214,5.1214,5.1494,5.1849,5.2306,5.2306,5.2457,5.2691,5.2691,5.2691,5.2691,5.2691,5.2676,5.2683,5.2645,5.1821,5.0697,0.0,0.0,0.0,0.0,0.0,0.0,0.0,0.0,0.0,0.0,0.0,0.0,0.0,0.0,0.0,0.0,3.6841,3.7482,3.7874,3.79,3.79,3.79,3.79,3.79,3.79,3.79,3.79,3.79,3.79,3.79,3.79,3.79,3.79,3.79,3.79,3.79,3.79,3.79,3.79,3.79,3.79,3.79,3.79,3.79,3.79,3.79,0.0,0.0,0.0,3.8226,3.8715,3.9351,4.0289,4.0817,4.1191,4.1811,4.2211,4.2435,4.2435,4.2764,4.3107,4.3107,4.3858,4.4527,4.4059,4.4475,4.4855,4.4397,4.4922,4.5375,4.503,4.4526,4.4035,4.3552,4.2648,4.2323,4.3283,4.2711,4.2984,4.5126,4.4956,0.0,0.0,0.0,0.0,5.0433,5.0742,5.0862,5.0862,5.1071,5.1191,5.1191,5.1191,5.1191,5.1191,5.1191,5.1191,5.1191,5.1191,5.1191,5.1214,5.1471,5.1703,5.1864,5.2002,5.2246,5.2435,5.2435,5.2541,5.2691,5.2691,5.2691,5.2691,5.2691,5.2421,5.2036,0.0,0.0,0.0,0.0,0.0,0.0,0.0,0.0,0.0,0.0,0.0,0.0,0.0,0.0,0.0,0.0,0.0,3.726,3.7861,3.79,3.79,3.79,3.79,3.79,3.79,3.79,3.79,3.79,3.79,3.79,3.79,3.79,3.79,3.79,3.79,3.79,3.79,3.79,3.79,3.79,3.79,3.79,3.79,3.79,3.79,0.0,0.0,0.0,0.0,3.79,3.8272,3.885,3.9436,3.9861,4.0267,4.1233,4.1907,4.2283,4.1927,4.2536,4.3282,4.3282,4.4034,4.4733,4.4692,4.5192,4.5555,4.5131,4.5615,4.5916,4.5272,4.4926,4.4378,4.3295,4.3142,4.3114,4.3031,4.3234,4.3786,4.4881,4.5137,4.594,0.0,0.0,0.0,5.1005,5.1191,5.1191,5.1191,5.1191,5.1191,5.1191,5.1191,5.1191,5.1191,5.1191,5.1191,5.1191,5.1191,5.1191,5.1214,5.1378,5.1564,5.1764,5.1918,5.217,5.2435,5.2435,5.2541,5.2691,5.2691,5.2691,5.2691,5.2691,5.2691,5.2691,0.0,0.0,0.0,0.0,0.0,0.0,0.0,0.0,0.0,0.0,0.0,0.0,0.0,0.0,0.0,0.0,0.0,0.0,3.7808,3.7887,3.79,3.79,3.79,3.79,3.79,3.79,3.79,3.79,3.79,3.79,3.79,3.79,3.79,3.79,3.79,3.79,3.79,3.79,3.79,3.79,3.79,3.79,3.79,3.79,0.0,0.0,0.0,0.0,3.79,3.79,3.7923,3.7969,3.7923,3.854,3.9453,4.0309,4.1661,4.2659,4.1827,4.2687,4.3791,4.3835,4.3885,4.4305,4.5841,4.6239,4.6461,4.7088,4.6513,4.5869,4.5869,4.4238,4.3068,4.3669,4.3739,4.3882,4.4403,4.5023,4.5774,0.0,0.0,0.0,0.0,0.0,0.0,5.0964,0.0,5.1191,5.1191,5.1191,5.1191,5.1191,5.1191,5.1191,5.1191,5.1191,5.1191,5.1191,5.1191,5.1191,5.1191,5.1191,5.1486,5.1956,5.1964,5.2238,5.2669,5.2669,5.2691,5.2691,5.2691,5.2691,5.2691,5.2691,5.2691,5.2691,0.0,0.0,0.0,0.0,0.0,0.0,0.0,0.0,0.0,0.0,0.0,0.0,0.0,0.0,0.0,0.0,0.0,0.0,3.7194,3.7652,3.79,3.79,3.79,3.79,3.79,3.79,3.79,3.79,3.79,3.79,3.79,3.79,3.79,3.79,3.79,3.79,3.79,3.79,3.79,3.79,3.79,3.79,3.79,0.0,0.0,0.0,0.0,3.79,3.79,3.79,3.8327,3.876,3.8103,3.8975,4.0235,4.0222,4.0513,4.118,4.2788,4.3359,4.3659,4.4355,4.4929,4.5209,4.4872,4.539,4.5983,4.6159,4.6572,4.6916,4.6916,4.5258,4.4109,4.4721,4.3553,0.0,4.3913,4.4203,0.0,4.5223,0.0,4.5275,4.6673,4.7522,0.0,0.0,5.0751,5.1191,5.1191,5.1191,5.1191,5.1191,5.1191,5.1191,5.1191,5.1191,5.1191,5.1191,5.1191,5.1191,5.1191,5.1191,5.1261,5.1416,5.1625,5.188,5.2193,5.2344,5.2525,5.2691,5.2691,5.2691,5.2691,5.2691,5.2691,5.2691,0.0,0.0,0.0,0.0,0.0,0.0,0.0,0.0,0.0,0.0,0.0,0.0,0.0,0.0,0.0,0.0,0.0,0.0,0.0,3.7573,3.79,3.79,3.79,3.79,3.79,3.79,3.79,3.79,3.79,3.79,3.79,3.79,3.79,3.79,3.79,3.79,3.79,3.79,3.79,0.0,0.0,0.0,0.0,0.0,0.0,3.79,3.79,3.79,3.79,3.79,3.8226,3.8526,3.8047,3.9051,4.0294,3.9674,4.0782,4.2326,4.282,4.3687,4.4586,4.5108,4.5189,4.5121,4.4984,4.538,4.5801,4.5801,4.6594,4.7019,4.6158,4.5052,4.4301,4.4242,4.3669,4.35,4.4162,4.4679,4.4931,4.471,4.4695,0.0,4.5582,4.6647,4.7562,0.0,5.0061,5.1191,5.1191,5.1191,5.1191,5.1191,5.1191,5.1191,5.1191,5.1191,5.1191,5.1191,5.1191,5.1191,5.1191,5.1191,5.1261,5.1378,0.0,5.1795,5.2155,5.2238,5.2457,5.2691,5.2691,5.2691,5.2691,5.2691,5.2691,5.2691,0.0,0.0,0.0,0.0,0.0,0.0,0.0,0.0,0.0,0.0,0.0,0.0,0.0,0.0,0.0,0.0,0.0,0.0,0.0,0.0,3.7821,3.79,3.79,3.79,3.79,3.79,3.79,3.79,3.79,3.79,3.79,3.79,3.79,3.79,3.79,3.79,3.79,3.79,3.79,3.79,3.79,0.0,0.0,0.0,0.0,3.79,3.79,3.7956,3.8047,3.7946,3.79,3.7936,3.8139,3.9042,3.9923,3.9452,4.1782,4.4191,4.28,4.4061,4.5801,4.5801,4.513,4.4716,4.5598,4.5801,4.5846,4.5973,4.6682,4.6793,4.5144,4.4719,4.4381,4.3654,4.4197,4.4701,4.47,4.5555,4.5808,4.483,4.4695,4.4695,4.4695,4.5728,4.6452,4.6609,4.9327,5.1003,5.1003,5.112,5.1191,5.1191,5.1191,5.1191,5.1191,5.1191,5.1191,5.1191,5.1191,5.1251,5.1325,5.1325,5.1511,5.182,0.0,0.0,5.249,5.2543,5.2695,5.293,5.2953,5.2953,5.2953,5.2953,5.2953,5.2953,0.0,0.0,0.0,0.0,0.0,0.0,0.0,0.0,0.0,0.0,3.4397,3.4397,0.0,0.0,0.0,0.0,0.0,0.0,0.0,0.0,0.0,3.7887,3.79,3.79,3.79,3.79,3.79,3.79,3.79,3.79,3.79,3.79,3.79,3.79,3.79,3.79,3.79,3.79,3.79,3.79,3.79,3.79,0.0,0.0,0.0,0.0,3.79,3.8349,3.8859,3.8148,3.79,3.8116,3.9409,3.9417,3.9452,4.1874,4.25,4.2814,4.4633,4.5452,4.5801,4.5801,4.5666,4.5598,4.5756,4.5801,4.604,4.6873,4.7186,4.735,4.7563,4.694,4.6346,4.6305,4.5774,4.5199,4.4765,4.4884,4.4938,4.4722,4.4695,4.4695,4.4695,4.5728,0.0,0.0,0.0,4.9868,4.9868,5.0713,5.1191,5.1191,5.1191,5.1191,5.1191,5.1191,5.1191,5.1191,5.1191,5.1475,5.2037,5.2037,5.2345,5.2927,0.0,0.0,5.3388,5.3784,5.398,5.4027,5.4283,5.4353,5.4353,5.4353,5.4353,5.4353,0.0,0.0,0.0,0.0,0.0,0.0,0.0,3.3666,3.4397,3.4397,3.4397,3.4397,3.4397,3.4397,3.4397,0.0,0.0,0.0,0.0,0.0,0.0,0.0,0.0,0.0,3.9273,3.8841,3.8571,3.8571,0.0,3.8327,3.79,3.79,3.79,3.79,3.79,3.79,3.79,3.79,3.79,3.79,3.79,3.79,0.0,0.0,0.0,0.0,0.0,3.9246,3.921,3.9282,3.9177,3.9104,3.9348,4.0576,4.2011,4.2477,4.3619,4.4871,4.5602,4.6188,4.6594,4.6594,4.6188,4.5801,4.5801,4.5801,4.6052,4.6881,4.7458,4.788,4.8012,4.7166,4.6398,4.6253,4.535,4.4692,4.4698,4.4695,4.4695,4.4695,4.4695,4.4695,4.4695,4.5194,4.5728,4.6255,0.0,4.866,5.034,5.0917,5.1191,5.1191,5.1191,5.1355,5.1723,5.1738,5.1902,5.2232,5.2232,5.2411,5.271,5.271,5.2914,5.3198,5.3335,0.0,5.3823,5.4055,5.4292,5.4527,5.466,5.4706,5.4706,5.4706,5.4706,5.4706,0.0,0.0,0.0,0.0,0.0,0.0,0.0,3.3561,3.4267,3.4384,3.4397,3.4397,3.4397,3.4397,3.4481,0.0,0.0,0.0,0.0,0.0,0.0,0.0,0.0,0.0,0.0,0.0,0.0,3.9505,3.9285,0.0,0.0,0.0,0.0,0.0,3.79,3.79,3.79,3.79,3.8015,0.0,0.0,3.8139,0.0,0.0,0.0,0.0,0.0,4.0267,3.9877,4.0418,4.0725,4.0762,3.9809,4.1695,4.4102,4.3296,4.4916,4.6851,4.6277,4.6704,4.7309,4.7309,4.6704,4.6151,4.6305,4.6348,4.6538,4.7196,4.7947,4.8484,4.8339,4.7567,4.6839,4.6452,4.5475,4.4851,4.5048,4.4857,4.4695,4.4695,4.4695,4.4695,4.4695,4.4695,0.0,4.5217,0.0,0.0,5.0585,5.0814,5.1008,5.1262,5.1262,5.1634,5.2411,5.2411,5.2665,5.3198,5.3198,5.3288,5.3423,5.3423,5.3473,5.3633,5.3633,0.0,0.0,5.4415,5.4663,5.5066,5.5114,5.5137,5.5137,5.5137,5.5137,5.5137,0.0,0.0,0.0,0.0,0.0,0.0,0.0,3.3247,3.3849,3.4332,3.4397,3.4397,3.4397,3.4397,3.4716,0.0,0.0,0.0,0.0,0.0,0.0,0.0,0.0,0.0,0.0,0.0,0.0,4.0461,3.9615,0.0,0.0,0.0,0.0,0.0,0.0,3.79,3.79,3.79,0.0,0.0,0.0,0.0,0.0,0.0,0.0,0.0,0.0,4.1092,4.1624,4.0859,4.1903,4.338,4.244,4.2155,4.2791,4.5895,4.6381,4.6107,4.6953,4.7229,4.7309,4.7309,4.7229,4.7313,4.7932,4.8066,4.8261,4.894,4.9157,4.9374,4.988,4.9907,4.9689,4.9276,4.8322,4.7299,4.636,4.5342,4.4695,4.4695,4.4695,4.4695,4.4695,4.4695,4.5325,4.6853,0.0,0.0,4.911,4.9552,5.0329,5.1439,5.1464,5.1983,5.3099,5.3124,5.3139,5.3198,5.3198,5.3503,5.4117,5.4117,5.4446,5.5025,0.0,0.0,0.0,5.5723,5.5993,5.6262,5.6504,5.6601,5.6601,5.6601,5.6601,5.6601,0.0,0.0,0.0,0.0,0.0,0.0,3.2607,3.3208,3.3783,3.4332,3.4397,3.4397,3.4397,3.4397,3.4758,3.5629,0.0,0.0,0.0,0.0,0.0,0.0,0.0,0.0,0.0,0.0,4.1442,4.1442,4.1071,0.0,0.0,0.0,0.0,0.0,0.0,3.8181,3.8661,3.8125,0.0,0.0,0.0,0.0,0.0,0.0,0.0,0.0,0.0,0.0,4.2032,4.2161,4.2944,4.3884,4.4114,4.4208,4.4527,4.5967,4.6535,4.6785,4.7186,4.7309,4.7309,4.7309,4.7593,4.7967,4.8244,4.8618,4.9082,4.9718,4.9853,5.0047,5.0682,5.028,4.9793,4.963,4.8696,4.7624,4.6557,4.6019,4.5475,4.4776,4.4695,4.4695,4.4695,0.0,4.5671,4.6693,0.0,0.0,4.7957,4.9056,5.0577,5.2442,5.1854,5.222,5.3803,5.3803,5.3997,5.4411,5.4411,5.4536,5.4805,5.4805,5.494,5.5194,0.0,0.0,0.0,5.588,5.6151,5.6421,5.6689,5.681,5.681,5.681,5.681,5.681,0.0,0.0,0.0,0.0,0.0,3.1817,3.2581,3.3051,3.3587,3.4306,3.4397,3.4397,3.4397,3.4634,3.5121,3.5983,3.6042,0.0,0.0,0.0,0.0,0.0,0.0,0.0,0.0,0.0,4.2204,4.2395,4.2135,4.1665,0.0,0.0,3.9615,3.9607,0.0,0.0,0.0,0.0,0.0,0.0,0.0,0.0,0.0,0.0,0.0,0.0,0.0,0.0,0.0,0.0,0.0,4.4407,4.532,4.5888,4.6233,4.6233,4.6763,4.7309,4.7309,4.7309,4.7309,4.7309,4.7803,4.8364,4.8558,4.9112,4.9733,5.0368,5.0503,5.0652,5.1101,5.057,5.0076,5.0076,4.9166,4.8105,4.7023,4.6609,4.5993,4.483,4.4865,4.4904,4.4721,4.54,4.612,4.6682,0.0,0.0,4.8061,4.88,5.0169,5.2166,5.1457,5.1817,5.3432,5.3473,5.3693,5.4175,5.4498,5.4667,5.4692,5.5053,5.5194,5.5194,0.0,0.0,0.0,5.588,5.6151,5.6421,5.6689,5.681,5.681,5.681,5.681,5.681,0.0,0.0,0.0,0.0,0.0,0.0,3.2515,3.2698,3.3117,3.4241,3.4397,3.4397,3.4397,3.5175,3.6002,3.6822,3.688,0.0,0.0,0.0,0.0,0.0,0.0,0.0,0.0,0.0,4.2686,4.329,4.2421,4.199,4.197,4.1007,4.0603,4.0582,0.0,0.0,0.0,0.0,0.0,0.0,0.0,0.0,0.0,0.0,0.0,0.0,0.0,0.0,0.0,0.0,0.0,0.0,0.0,4.6749,4.7287,4.7287,4.7287,4.7309,4.7309,4.7309,4.7309,4.7309,4.7803,4.8483,4.9127,4.9763,5.0383,5.1041,5.1191,5.1191,5.1191,5.1191,5.1167,5.1167,5.0292,4.9205,4.8131,4.7074,4.5993,4.483,4.523,4.5361,4.476,4.5794,4.6708,4.7255,0.0,0.0,4.9817,4.8815,4.8729,4.9888,4.9916,5.0504,5.1702,5.1729,5.1743,5.1743,5.2871,5.3413,5.3466,5.4667,5.5194,0.0,0.0,0.0,0.0,5.588,5.6151,5.6421,5.6689,5.681,5.681,5.681,5.681,5.681,0.0,0.0,0.0,0.0,0.0,0.0,0.0,3.3038,3.3574,3.4293,3.4397,3.4397,3.4397,3.4654,3.5386,3.6783,3.7443,0.0,0.0,0.0,0.0,0.0,0.0,0.0,0.0,0.0,4.2705,4.329,4.3016,4.2895,4.2875,4.1976,4.1561,4.1526,4.088,4.0965,0.0,0.0,0.0,0.0,0.0,0.0,0.0,0.0,0.0,0.0,0.0,0.0,0.0,0.0,0.0,0.0,0.0,0.0,0.0,4.7309,4.7309,4.7309,4.7309,4.7638,4.7982,4.7982,4.8805,4.965,4.986,5.0413,5.0936,5.1146,5.1191,5.1191,5.1191,5.1191,5.0979,5.022,5.0451,4.9805,4.7254,4.7254,4.679,4.4925,4.523,4.5674,4.5911,0.0,4.7296,4.7871,0.0,0.0,4.8726,4.8405,4.9087,5.1072,5.0322,5.0462,5.1688,5.1688,5.2095,5.2871,5.3215,5.382,5.4626,5.5027,0.0,0.0,0.0,0.0,0.0,5.5606,5.588,5.6151,5.6421,5.664,5.681,5.681,5.681,5.681,0.0,0.0,0.0,0.0,0.0,0.0,0.0,3.3352,3.3783,3.4332,3.4397,3.4397,3.4397,3.4696,3.5433,3.6783,3.7706,0.0,0.0,0.0,0.0,0.0,0.0,0.0,0.0,4.1807,4.2451,4.329,4.329,4.329,4.329,4.2739,4.2496,4.2456,4.1879,4.1941,0.0,0.0,0.0,0.0,0.0,0.0,4.329,0.0,0.0,0.0,0.0,0.0,0.0,0.0,0.0,0.0,0.0,0.0,0.0,0.0,4.7309,4.7309,4.7309,4.7788,4.8304,4.8304,4.9247,5.0196,5.0196,5.0727,5.1191,5.1191,5.1191,5.1073,5.0665,5.0917,5.0713,4.9229,4.9892,4.9611,4.6803,4.6985,4.6807,4.5226,4.5374,4.5909,0.0,4.7085,4.7542,0.0,0.0,0.0,4.8214,4.8214,4.8871,5.0322,4.9659,4.9631,5.0378,5.0378,5.0726,5.1456,5.2323,5.315,5.3901,5.4809,0.0,0.0,0.0,0.0,0.0,5.5481,5.5706,5.588,5.625,5.6494,5.6695,5.7054,5.717,5.7201,0.0,0.0,0.0,0.0,0.0,0.0,0.0,3.3626,3.3835,3.4332,3.446,3.4501,3.4501,3.5264,3.6102,3.6933,0.0,0.0,0.0,0.0,0.0,0.0,0.0,0.0,4.1373,4.1403,4.2028,4.329,4.329,4.329,4.329,4.329,4.329,4.329,4.329,4.329,4.325,0.0,0.0,0.0,0.0,0.0,0.0,0.0,0.0,0.0,0.0,0.0,0.0,0.0,0.0,0.0,0.0,0.0,0.0,0.0,0.0,0.0,0.0,4.7863,4.8394,4.8416,4.9351,5.0255,5.0255,5.0757,0.0,5.1191,5.1191,5.0893,4.9892,5.0475,5.0412,4.8332,4.8844,4.8735,4.6583,4.6309,4.6169,4.5669,4.5674,4.6145,4.7202,4.7346,4.7594,0.0,0.0,0.0,4.8214,4.8214,4.8214,4.8214,4.8214,4.8214,4.8214,4.8214,4.8243,4.8347,5.0531,5.1634,5.177,5.3953,0.0,0.0,0.0,0.0,0.0,5.5456,5.5611,5.5731,5.6212,5.6464,5.6635,5.7509,5.7839,5.7956,0.0,0.0,0.0,0.0,0.0,0.0,0.0,0.0,0.0,0.0,3.4971,3.5386,3.5386,3.6122,3.6967,0.0,0.0,0.0,0.0,0.0,0.0,0.0,0.0,0.0,4.1373,4.1403,4.2028,4.329,4.329,4.329,4.329,4.329,4.329,4.329,4.329,4.329,4.329,4.309,0.0,0.0,0.0,0.0,0.0,0.0,0.0,0.0,4.329,4.3638,0.0,0.0,0.0,0.0,0.0,0.0,0.0,0.0,4.7309,4.7414,4.7923,0.0,4.9172,4.9635,5.0368,5.0966,0.0,5.1086,5.1191,5.1191,5.1191,5.112,5.087,5.0364,4.9537,4.8231,4.8206,4.7599,4.5422,4.5482,4.5728,4.5611,4.6367,4.7007,4.7281,4.7728,0.0,0.0,0.0,4.8214,4.8214,4.8214,4.8214,4.8214,4.8214,4.8214,4.8214,4.8214,4.8653,4.9517,5.0056,5.0796,5.1716,5.2257,0.0,0.0,0.0,0.0,5.5204,5.527,5.5706,5.6375,5.6486,5.7132,5.7956,5.8185,5.8397,5.8587,0.0,0.0,0.0,0.0,0.0,0.0,0.0,0.0,0.0,0.0,0.0,3.5244,3.5669,3.6082,0.0,0.0,0.0,0.0,0.0,0.0,0.0,0.0,0.0,4.0038,4.1373,4.1403,4.2028,4.329,4.329,4.329,4.329,4.329,4.329,4.329,4.329,4.329,4.329,4.329,4.329,0.0,4.329,0.0,0.0,0.0,0.0,0.0,4.329,4.3728,0.0,4.5065,4.5753,4.642,0.0,0.0,0.0,0.0,4.7519,4.7893,4.8588,4.9022,4.9441,5.0054,5.0712,5.1191,5.1191,5.1191,5.1191,5.1191,5.1191,5.0893,4.9902,4.9659,4.8933,4.6841,4.6919,4.6769,4.5306,4.5622,4.6016,4.6016,4.6758,4.7307,0.0,4.7858,0.0,0.0,0.0,4.8214,4.8214,4.8214,4.8214,4.8214,4.8214,4.8214,4.8214,4.8214,4.8508,4.9131,4.9646,5.0252,5.0879,5.1443,5.2041,0.0,0.0,0.0,5.3655,5.4483,5.5134,5.5683,5.6646,5.7418,5.8049,5.8634,5.896,5.9133,0.0,0.0,0.0,0.0,0.0,0.0,0.0,0.0,0.0,0.0,0.0,0.0,0.0,0.0,0.0,0.0,0.0,0.0,0.0,0.0,0.0,0.0,3.9556,4.0142,4.1373,4.1493,4.2117,4.329,4.329,4.329,4.329,4.329,4.329,4.329,4.329,4.329,4.329,4.329,4.329,4.329,4.329,0.0,0.0,0.0,0.0,0.0,0.0,0.0,0.0,4.5229,4.5903,4.6555,4.713,0.0,0.0,0.0,0.0,0.0,4.9232,4.9441,4.9568,5.0204,5.0787,5.1191,5.1191,5.1191,5.1191,5.1191,5.1073,5.0412,4.8582,4.872,4.8195,4.5422,4.5635,4.5995,4.5642,4.612,4.654,4.6591,4.7085,0.0,4.7438,0.0,0.0,0.0,0.0,4.8214,4.8214,4.8214,4.8214,4.8214,4.8214,4.8214,4.8214,4.8214,4.8214,4.8214,4.9188,4.9646,4.9674,5.0698,5.1251,0.0,0.0,0.0,5.1953,5.3697,5.45,5.4881,5.6825,5.7688,5.7943,5.9038,5.9459,5.9613,0.0,0.0,0.0,0.0,0.0,0.0,0.0,0.0,0.0,0.0,0.0,0.0,0.0,0.0,0.0,0.0,0.0,0.0,0.0,0.0,0.0,4.0232,4.0247,4.0606,4.1388,4.1961,4.2601,4.329,4.329,4.329,4.329,4.329,4.329,4.329,4.329,4.329,4.329,4.329,4.329,4.329,4.329,0.0,0.0,0.0,0.0,0.0,0.0,0.0,0.0,4.5912,4.6585,4.7174,4.7279,0.0,0.0,0.0,0.0,0.0,4.974,5.0069,5.0219,5.0877,5.1116,5.1191,5.1191,5.1191,5.1191,5.1191,5.0475,4.9732,4.9415,4.7993,4.6725,4.6216,4.5475,4.5121,4.5545,4.612,4.6656,4.7111,0.0,4.8054,4.8054,0.0,0.0,0.0,0.0,4.8214,4.8214,4.8214,4.8214,4.8214,4.8214,4.8214,4.8214,4.8214,4.8214,4.8214,4.8376,4.845,4.8463,4.8653,4.9274,0.0,0.0,5.1002,5.2489,5.3843,5.5037,5.6121,5.7476,5.8492,5.9217,5.9414,5.966,5.9955,0.0,0.0,0.0,0.0,0.0,0.0,0.0,0.0,0.0,0.0,0.0,0.0,0.0,0.0,0.0,0.0,0.0,0.0,0.0,0.0,4.0083,4.0382,4.1085,4.1613,4.1927,4.2246,4.2705,4.329,4.329,4.329,4.329,4.329,4.329,4.329,4.329,4.329,4.329,4.329,4.329,4.329,0.0,0.0,0.0,0.0,0.0,0.0,0.0,0.0,0.0,0.0,4.6749,4.7309,4.7309,0.0,0.0,0.0,0.0,0.0,4.9949,5.0473,5.0817,5.1116,5.076,5.034,5.034,4.9878,4.946,4.946,4.9067,4.8571,4.7968,4.7062,4.6137,4.5395,4.5214,4.5332,4.5766,4.6465,4.7153,0.0,0.0,4.8214,4.8214,0.0,0.0,0.0,0.0,0.0,4.8214,4.8214,4.8214,4.8214,4.8214,4.8214,4.8214,4.8214,4.8214,4.8214,4.8214,4.8214,4.8214,4.8214,4.8492,4.8986,0.0,4.9917,5.0819,5.2653,5.4191,5.5493,5.7025,5.8298,5.9288,5.9449,5.9796,6.0235,0.0,0.0,0.0,0.0,0.0,0.0,0.0,0.0,0.0,0.0,0.0,0.0,0.0,0.0,0.0,0.0,0.0,0.0,0.0,0.0,4.0531,4.0846,4.1837,4.2396,4.2396,4.2526,4.2836,4.329,4.329,4.329,4.329,4.329,4.329,4.329,4.329,4.329,4.329,4.329,4.329,4.329,0.0,0.0,0.0,0.0,0.0,0.0,0.0,0.0,0.0,0.0,0.0,0.0,0.0,0.0,0.0,4.8349,4.9007,4.9643,5.0263,5.0817,5.1191,5.1191,5.057,4.9917,4.9674,4.8958,4.8307,4.8055,4.7737,4.7292,4.6557,4.6125,4.5555,4.4463,4.4853,4.5469,4.5933,4.664,4.7359,0.0,0.0,0.0,0.0,0.0,0.0,0.0,0.0,0.0,4.8214,4.8214,4.8214,4.8214,4.8214,4.8214,4.8214,4.8214,4.8214,4.8214,4.8214,4.8214,4.8214,4.8214,4.8214,4.8211,4.8855,4.9152,4.9468,5.1675,5.3275,5.4435,5.6123,5.7539,5.8716,5.93,5.9796,6.0219,0.0,0.0,0.0,0.0,0.0,0.0,0.0,0.0,0.0,0.0,0.0,0.0,0.0,0.0,0.0,0.0,0.0,0.0,0.0,0.0,4.0969,4.2201,4.2351,4.2396,4.2396,4.2955,4.3245,4.329,4.329,4.329,4.329,4.329,4.329,4.329,4.329,4.329,4.329,4.329,4.329,4.329,4.329,0.0,0.0,0.0,0.0,0.0,0.0,0.0,0.0,0.0,0.0,0.0,0.0,0.0,4.8364,4.9022,4.9658,5.0293,5.0951,5.1161,5.1191,5.1191,5.1144,5.0822,4.982,4.9537,4.9205,4.8206,4.6969,4.6137,4.6374,4.5315,4.4422,4.4313,4.4351,4.4753,4.5853,0.0,4.6985,0.0,0.0,0.0,0.0,0.0,0.0,0.0,0.0,0.0,4.8214,4.8214,0.0,4.8214,4.8214,4.8214,4.8214,4.8214,4.8214,4.8214,4.8214,4.8214,4.8214,4.8214,4.8214,4.8211,4.8855,4.9374,4.9992,5.1836,5.3,5.37,5.5018,5.628,5.7524,5.8973,5.9529,5.9621,0.0,0.0,0.0,0.0,0.0,0.0,0.0,0.0,0.0,0.0,0.0,0.0,0.0,0.0,0.0,0.0,0.0,0.0,0.0,4.088,4.1867,4.2381,4.2765,4.297,4.297,4.319,4.329,4.329,4.329,4.329,4.329,4.329,4.329,4.329,4.329,4.329,4.329,4.329,4.329,4.329,4.329,4.329,0.0,0.0,0.0,0.0,0.0,0.0,0.0,0.0,4.7309,4.7309,4.7309,4.7758,4.8438,4.9097,4.9733,5.0345,5.1011,5.1191,5.1191,5.1191,5.1191,5.0736,4.8993,4.8094,4.728,4.6177,4.5382,0.0,0.0,4.4654,4.4285,4.4285,4.4285,4.4631,4.5598,4.6191,4.6848,0.0,0.0,0.0,0.0,0.0,0.0,0.0,0.0,0.0,0.0,4.8214,0.0,4.8214,4.8214,4.8214,4.8214,4.8214,4.8214,4.8214,4.8214,4.8214,4.8214,4.8214,4.8214,4.8237,4.9178,4.9701,5.0023,5.1386,5.2593,5.3617,5.4899,5.5688,5.6165,5.675,5.7203,5.765,0.0,0.0,0.0,0.0,0.0,0.0,0.0,0.0,0.0,0.0,0.0,0.0,0.0,0.0,0.0,0.0,0.0,0.0,4.0119,4.1564,4.25,4.269,4.307,4.329,4.329,4.329,4.329,4.329,4.329,4.329,4.329,4.329,4.329,4.329,4.329,4.329,4.329,4.329,4.329,4.329,4.329,4.329,0.0,0.0,0.0,0.0,0.0,0.0,0.0,0.0,4.7309,4.7339,4.7549,4.8094,4.8738,4.9396,5.0047,5.0553,5.0641,5.0941,5.105,5.0364,5.0373,5.0023,4.7954,4.7112,4.632,4.4871,4.4449,4.4258,4.4189,0.0,0.0,0.0,4.4235,4.4686,4.5494,4.6262,4.6986,4.7603,0.0,0.0,0.0,0.0,0.0,0.0,0.0,0.0,0.0,4.8214,0.0,0.0,4.8214,4.8214,4.8214,4.8214,4.8214,4.8214,4.8214,4.8214,4.8214,4.8214,4.829,4.8554,4.9479,5.0002,5.025,5.1204,5.2099,5.3025,5.4307,5.4811,5.487,5.5354,5.5834,5.6437,0.0,0.0,0.0,0.0,0.0,0.0,0.0,0.0,0.0,0.0,0.0,0.0,0.0,0.0,0.0,0.0,0.0,0.0,4.2293,4.241,4.269,4.326,4.329,4.329,4.329,4.329,4.329,4.329,4.329,4.329,4.329,4.329,4.329,4.329,4.329,4.329,4.329,4.329,4.329,4.329,4.329,4.329,4.3379,0.0,0.0,0.0,0.0,0.0,0.0,0.0,4.7309,4.7414,4.8072,4.8768,4.9411,5.0024,5.0682,5.0979,4.9892,5.0364,5.0665,4.8532,4.8592,4.8678,4.6829,4.6969,4.689,4.4736,4.4285,4.4203,4.3955,4.3899,0.0,4.3449,4.4142,4.4927,4.5517,4.657,4.7388,4.7655,0.0,0.0,0.0,0.0,0.0,0.0,0.0,0.0,0.0,4.8214,0.0,0.0,4.8214,4.8214,4.8214,4.8214,4.8214,4.8214,4.8214,4.8214,4.8214,4.8214,4.8512,4.9143,4.9662,5.0237,5.0838,5.1374,5.1596,5.1721,5.2994,5.3466,5.3678,5.518,5.5978,5.6294,0.0,0.0,0.0,0.0,0.0,0.0,0.0,0.0,0.0,0.0,0.0,0.0,0.0,0.0,0.0,0.0,0.0,0.0,4.1388,4.2441,4.3115,4.329,4.329,4.329,4.329,4.329,4.329,4.329,4.329,4.329,4.329,4.329,4.329,4.329,4.329,4.329,4.329,4.329,4.329,4.329,4.329,4.3574,4.4027,0.0,0.0,0.0,0.0,0.0,0.0,0.0,0.0,0.0,4.8072,4.8768,4.9411,5.0024,5.0682,5.112,5.0822,5.0412,4.9892,4.9053,4.8468,4.7686,4.6137,4.6071,4.5992,4.4586,4.4161,4.401,4.3899,4.3708,0.0,4.3971,0.0,4.4983,4.576,4.6713,4.7388,4.7655,0.0,0.0,0.0,0.0,0.0,0.0,0.0,0.0,0.0,0.0,0.0,0.0,4.8214,4.8214,4.8214,4.8214,4.8214,4.8214,4.8214,4.8214,4.8214,4.8214,4.8512,4.9143,4.9662,5.0237,5.0838,5.1374,5.1596,5.1627,5.2019,5.2161,5.2223,5.2689,5.3207,5.3842,0.0,0.0,0.0,0.0,0.0,0.0,0.0,0.0,0.0,0.0,0.0,0.0,0.0,0.0,0.0,0.0,0.0,0.0,0.0,4.2773,4.329,4.329,4.329,4.329,4.329,4.329,4.329,4.329,4.329,4.329,4.329,4.329,4.329,4.329,4.329,4.329,4.329,4.329,4.329,4.3319,4.3594,4.3938,4.4356,0.0,0.0,0.0,0.0,0.0,0.0,0.0,0.0,0.0,4.8409,4.8962,4.9403,4.9821,5.0236,5.034,4.9362,4.8954,4.8532,4.7367,4.6826,4.6227,4.4967,4.4792,4.4751,4.4258,4.3901,4.3736,4.3872,4.364,0.0,4.3723,4.4224,0.0,0.0,4.6484,4.7127,4.7626,0.0,0.0,0.0,0.0,0.0,0.0,0.0,0.0,0.0,0.0,0.0,0.0,4.8214,4.8214,4.8214,4.8214,4.8214,4.8214,4.8214,4.8214,4.8214,4.8214,4.8659,4.9453,5.0237,5.0773,5.1139,5.1465,5.1596,5.1596,5.1596,5.1596,5.1596,5.1596,5.2032,5.2711,0.0,0.0,0.0,0.0,0.0,0.0,0.0,0.0,0.0,0.0,0.0,0.0,0.0,0.0,0.0,0.0,0.0,0.0,0.0,0.0,4.329,4.327,4.327,4.327,4.329,4.329,4.329,4.329,4.329,4.329,4.329,4.329,4.329,4.329,4.329,4.329,4.329,4.329,4.3334,4.3439,4.4042,4.4371,4.4611,4.5837,0.0,0.0,0.0,0.0,0.0,0.0,0.0,0.0,4.8873,4.9292,4.935,4.9671,4.9674,4.9106,4.6814,4.6814,4.6892,4.4586,4.4411,4.4549,4.3602,4.3366,4.3462,4.3844,4.3613,4.3462,4.3776,4.3585,4.3283,4.3113,4.3789,0.0,0.0,0.0,4.6791,0.0,0.0,0.0,0.0,0.0,0.0,0.0,0.0,0.0,0.0,0.0,0.0,4.8214,4.8214,4.8214,4.8214,4.8214,4.8214,0.0,4.8214,4.8214,4.8214,4.8214,4.8812,4.9949,5.11,5.1596,5.1596,5.1596,5.1596,5.1596,5.1596,5.1596,5.1596,5.1596,5.2032,5.2602,0.0,0.0,0.0,0.0,0.0,0.0,0.0,0.0,0.0,0.0,0.0,0.0,0.0,0.0,0.0,0.0,0.0,0.0,0.0,0.0,4.323,4.3076,4.3056,4.3135,4.329,4.329,4.329,4.329,4.329,4.329,4.329,4.329,4.329,4.329,4.329,4.329,4.329,4.329,4.3609,4.4102,4.4237,4.4925,4.5897,4.6196,4.6629,0.0,0.0,0.0,0.0,0.0,0.0,0.0,4.8873,4.9292,4.9501,5.0545,5.0268,4.944,4.8678,4.7418,4.6018,4.5021,4.4098,4.3366,4.3129,4.3085,4.3225,4.3776,4.3459,4.3169,4.3462,4.3268,4.3225,4.3638,4.4237,4.5012,0.0,0.0,0.0,0.0,0.0,0.0,0.0,0.0,0.0,0.0,0.0,0.0,4.8214,0.0,0.0,4.8214,4.8214,4.8214,4.8214,4.8214,4.8214,0.0,4.8214,4.8214,4.8214,4.8214,4.8812,4.9949,5.11,5.1596,5.1596,5.1596,5.1596,5.1596,5.1596,5.1596,5.1596,5.1596,5.2032,5.2602,0.0,0.0,0.0,0.0,0.0,0.0,0.0,0.0,0.0,0.0,0.0,0.0,0.0,0.0,0.0,0.0,0.0,0.0,0.0,0.0,4.307,4.2855,4.2955,4.3056,4.3135,4.325,4.329,4.329,4.329,4.329,4.329,4.329,4.329,4.329,4.329,4.329,4.3319,4.3638,4.3982,4.4356,4.4999,4.5672,4.6345,4.6659,4.6988,0.0,0.0,0.0,0.0,0.0,0.0,0.0,0.0,0.0,4.9836,5.0298,5.0037,4.9278,4.7825,4.6671,4.5622,4.4508,4.3602,4.3002,4.3002,4.3002,4.3098,4.3404,4.3209,4.3085,4.3338,4.3184,4.3141,4.3585,4.391,4.4579,0.0,0.0,0.0,0.0,0.0,0.0,0.0,0.0,0.0,0.0,0.0,4.8214,4.8214,4.8214,4.8214,4.8214,4.8214,4.8214,4.8214,4.8214,4.8214,4.8214,4.8214,4.8214,4.8227,4.8515,4.9117,4.9936,5.0825,5.1361,5.1596,5.1596,5.1596,5.1596,5.1596,5.1596,5.1596,5.1596,5.2032,5.2602,0.0,0.0,0.0,0.0,0.0,0.0,0.0,0.0,0.0,0.0,0.0,0.0,0.0,0.0,0.0,0.0,0.0,0.0,0.0,0.0,0.0,4.2749,4.2875,4.2975,4.3056,4.319,4.327,4.329,4.327,4.327,4.329,4.329,4.329,4.329,4.329,4.3349,4.3499,4.4032,4.439,4.4704,4.5789,4.6311,4.6461,4.7078,0.0,0.0,0.0,0.0,0.0,0.0,0.0,0.0,0.0,0.0,5.0153,4.9934,4.9747,4.9057,4.6528,4.5675,4.5128,4.3685,4.3212,4.3058,4.3002,4.303,4.3058,4.3002,4.3002,4.3085,4.3295,4.3156,4.3113,4.3434,4.3489,4.4079,4.5755,0.0,0.0,0.0,0.0,0.0,0.0,0.0,0.0,0.0,0.0,4.8214,4.8214,4.8214,4.8214,4.8214,4.8214,4.8214,4.8214,4.8214,4.8214,4.8214,4.8214,4.8214,4.8227,4.8724,4.9283,4.9923,5.0524,5.11,5.1596,5.1596,5.1596,5.1596,5.1596,5.1596,5.1596,5.1659,5.2063,5.2602,0.0,0.0,0.0,0.0,0.0,0.0,0.0,0.0,0.0,0.0,0.0,0.0,0.0,0.0,0.0,0.0,0.0,0.0,0.0,0.0,0.0,4.2955,4.2815,4.291,4.325,4.3115,4.3135,4.329,4.3135,4.3135,4.329,4.329,4.329,4.329,4.329,4.3624,4.4162,4.4063,4.4715,4.5801,4.5979,4.6365,4.6856,0.0,0.0,0.0,0.0,0.0,0.0,0.0,4.7743,0.0,0.0,0.0,5.0292,5.0817,5.0316,4.9254,4.7737,4.5555,4.363,4.3156,4.3212,4.3295,4.3058,4.3184,4.3295,4.3058,4.3002,4.3002,4.3058,4.303,4.3182,4.3749,4.3832,4.4327,4.5783,4.6219,0.0,0.0,0.0,0.0,0.0,0.0,0.0,0.0,4.8214,4.8214,4.8214,4.8214,4.8214,4.8214,4.8214,4.8214,4.8214,4.8214,4.8214,4.8214,4.8214,4.8214,4.8214,4.8293,4.8891,4.9923,5.0524,5.11,5.1596,5.1596,5.1596,5.1596,5.1596,5.1596,5.1627,5.1921,5.2262,5.2632,0.0,0.0,0.0,0.0,0.0,0.0,0.0,0.0,0.0,0.0,0.0,0.0,0.0,0.0,0.0,0.0,0.0,0.0,0.0,0.0,0.0,4.2662,4.2581,4.2662,4.295,4.2996,4.3036,4.3135,4.3036,4.3056,4.3135,4.3135,4.319,4.3305,4.3558,4.386,4.4173,4.4849,4.5461,4.604,4.636,4.6424,4.6344,0.0,0.0,0.0,0.0,0.0,0.0,0.0,0.0,4.8902,4.9202,0.0,0.0,0.0,5.087,5.0047,4.8077,4.5515,4.3366,4.324,4.3212,4.3129,4.303,4.3085,4.3129,4.303,4.3002,4.3002,4.3002,4.3002,4.3209,4.3817,4.3899,4.445,4.6063,4.6234,0.0,0.0,0.0,0.0,0.0,0.0,0.0,0.0,4.8214,4.8214,4.8214,4.8214,4.8214,4.8214,4.8214,4.8214,4.8214,4.8214,4.8214,4.8214,4.8214,4.8214,4.8214,4.8214,4.8812,4.991,5.0172,5.0786,5.1596,5.1596,5.1596,5.1596,5.1596,5.1596,5.1627,5.1996,5.2293,5.2663,0.0,0.0,0.0,0.0,0.0,0.0,0.0,0.0,0.0,0.0,0.0,0.0,0.0,0.0,0.0,0.0,0.0,0.0,0.0,0.0,0.0,4.2392,4.2392,4.2479,4.2703,4.2809,4.2875,4.2915,4.2875,4.2875,4.2915,4.2915,4.3085,4.3413,4.3823,4.4198,4.4564,4.5437,4.5934,4.6148,4.6293,4.601,0.0,0.0,0.0,0.0,0.0,0.0,0.0,0.0,0.0,0.0,0.0,5.0167,0.0,0.0,0.0,5.0254,4.776,4.5595,4.3947,4.3615,4.3391,4.3237,4.3237,4.3169,4.3113,4.3113,4.3058,4.3002,4.3002,4.3002,4.3209,4.3817,4.3899,4.4478,4.6148,4.6247,0.0,0.0,0.0,0.0,0.0,0.0,0.0,0.0,4.8214,4.8214,4.8214,4.8214,4.8214,4.8214,4.8214,4.8214,4.8214,4.8214,4.8214,4.8214,4.8214,4.8214,4.8214,4.8214,4.8764,4.9688,4.9832,5.0459,5.14,5.1544,5.1596,5.1596,5.1596,5.1596,5.1627,5.1996,5.2293,5.2663,0.0,0.0,0.0,0.0,0.0,0.0,0.0,0.0,0.0,0.0,0.0,0.0,0.0,0.0,3.7959,3.8177,3.8881,4.01,4.1995,4.2113,4.2195,4.2392,4.2392,0.0,4.2703,4.252,4.252,4.2708,4.252,4.252,4.2708,4.2708,4.3048,4.3702,4.3888,4.4718,4.5864,0.0,0.0,0.0,0.0,0.0,0.0,0.0,0.0,0.0,0.0,0.0,0.0,0.0,0.0,0.0,0.0,0.0,5.1191,0.0,0.0,0.0,4.6658,4.5886,4.5462,4.419,4.3872,4.3844,4.3844,4.3613,4.3366,4.3366,4.3184,4.3002,4.3002,4.3002,4.3209,4.3817,4.3899,4.4395,4.5824,4.6263,4.6778,0.0,0.0,0.0,0.0,0.0,0.0,0.0,4.8214,4.8214,4.8214,4.8214,4.8214,4.8214,4.8214,4.8214,4.8214,4.8214,4.8214,4.8214,4.8214,4.8214,4.8214,4.8214,4.8525,4.9152,4.9662,5.025,5.0877,5.1387,5.1596,5.1596,5.1596,5.1596,5.1627,5.1996,5.2293,5.2663,0.0,0.0,0.0,0.0,0.0,0.0,0.0,0.0,0.0,0.0,0.0,0.0,0.0,3.7292,3.7831,3.7936,3.8711,3.976,4.105,4.0567,4.061,4.1464,4.1345,4.1638,4.2479,4.1848,4.1827,4.2514,4.1191,4.1212,4.2494,4.2286,4.2424,4.2889,4.3794,4.4654,4.5499,4.5742,0.0,0.0,0.0,0.0,0.0,0.0,0.0,0.0,0.0,0.0,0.0,0.0,0.0,0.0,0.0,0.0,0.0,5.0379,4.9892,4.9057,4.6554,4.5886,4.5595,4.4231,4.3899,4.3832,4.364,4.364,4.3626,4.3212,4.3212,4.3268,4.3268,4.3113,4.3209,4.3817,4.3899,4.4478,4.6091,4.6247,4.6635,0.0,0.0,0.0,0.0,0.0,0.0,0.0,0.0,4.8214,4.8214,4.8214,4.8214,4.8214,4.8214,4.8214,4.8214,4.8214,4.8214,4.8214,4.8214,4.8214,4.8214,4.8214,4.8332,4.8564,4.9492,5.0237,5.0838,5.1374,5.1596,5.1596,5.1596,5.1596,5.1659,5.2231,5.2509,5.2694,0.0,0.0,0.0,0.0,0.0,0.0,0.0,0.0,0.0,0.0,0.0,0.0,0.0,0.0,3.7453,3.7763,3.8373,3.9144,4.0073,3.9549,3.9563,4.036,4.0216,4.0496,4.1303,4.0541,4.0506,4.1324,3.9865,3.9886,4.1318,4.1279,4.1499,4.1991,4.338,4.4369,0.0,0.0,0.0,4.6277,0.0,0.0,4.3494,0.0,0.0,0.0,0.0,0.0,0.0,0.0,0.0,0.0,0.0,0.0,0.0,0.0,0.0,4.9007,4.6228,4.5781,4.5754,4.4491,4.4107,4.3969,4.3738,4.3723,4.3653,4.3348,4.328,4.3295,4.3366,4.324,4.3336,4.3942,4.3955,4.4441,4.5971,4.6187,4.6599,0.0,0.0,0.0,0.0,0.0,0.0,0.0,0.0,0.0,4.8214,4.8214,4.8214,4.8214,4.8214,4.8214,4.8214,4.8214,4.8214,4.8214,4.8214,4.8214,4.8227,4.8424,4.8486,4.858,4.9701,5.0302,5.0551,5.1296,5.1596,5.1596,5.1596,5.1596,5.1659,5.2231,5.2509,5.2694,0.0,0.0,0.0,0.0,0.0,0.0,0.0,0.0,0.0,0.0,0.0,0.0,0.0,0.0,0.0,3.7717,3.7763,3.816,3.9099,3.9144,3.9144,3.9166,3.9166,3.9166,3.921,3.8662,3.8649,3.921,3.8627,3.864,3.9237,3.9744,4.033,4.1046,4.2666,4.3819,4.4591,0.0,4.5021,4.5822,0.0,4.1851,4.2695,0.0,0.0,0.0,4.3219,4.3622,0.0,0.0,0.0,0.0,0.0,0.0,0.0,0.0,0.0,0.0,0.0,0.0,0.0,4.4979,4.4491,4.4313,4.4285,4.3848,4.3517,4.3844,4.3444,4.3113,4.3366,4.3421,4.36,4.4218,4.4079,4.4313,4.5435,4.612,4.6695,4.7242,0.0,0.0,0.0,0.0,0.0,0.0,4.8214,4.8214,4.8214,4.8214,4.8214,4.8214,4.8214,4.8214,4.8214,4.8214,4.8214,4.8214,4.8214,4.8227,4.8267,4.8842,4.913,4.9208,5.0302,5.0459,5.0002,5.1126,5.1596,5.1596,5.1596,5.1596,5.1627,5.1996,5.2324,5.2663,0.0,0.0,0.0,0.0,0.0,0.0,0.0,0.0,0.0,0.0,0.0,0.0,0.0,0.0,3.6769,3.7717,3.7176,3.7199,3.8137,3.7543,3.7474,3.816,3.8183,3.8509,3.9188,3.8394,3.8358,3.921,3.7694,3.7926,3.9794,3.9734,3.9979,4.0573,4.2229,4.2664,4.2304,4.4513,0.0,4.3872,4.2789,4.2195,0.0,0.0,0.0,0.0,0.0,4.2509,0.0,0.0,4.5493,4.6862,0.0,0.0,0.0,0.0,0.0,0.0,4.5382,0.0,0.0,0.0,0.0,0.0,4.434,4.4327,4.4272,4.3969,4.3914,4.3944,4.4026,4.3901,4.3929,4.4491,4.4367,4.4437,4.5187,4.5995,4.6695,4.7242,0.0,0.0,0.0,0.0,0.0,0.0,4.8214,4.8214,4.8214,4.8214,4.8214,4.8214,4.8214,4.8214,4.8214,4.8214,4.8214,4.8214,4.8214,4.8437,4.8868,4.9008,4.9296,4.9714,5.0459,5.0694,5.059,5.1309,5.1596,5.1596,5.1596,5.1596,5.1659,5.2262,5.2509,5.2694,0.0,0.0,0.0,0.0,0.0,0.0,0.0,0.0,0.0,0.0,0.0,0.0,0.0,0.0,3.6617,3.7176,3.6734,3.6628,3.7176,3.6698,3.6628,3.7199,3.7222,3.7464,3.8033,3.7253,3.7334,3.8366,3.7047,3.7364,3.9176,3.9251,3.9447,0.0,4.1403,4.1543,0.0,0.0,0.0,0.0,4.1914,0.0,0.0,4.1141,4.0913,0.0,0.0,0.0,4.3257,4.3711,4.4653,0.0,0.0,0.0,0.0,0.0,0.0,0.0,0.0,0.0,0.0,0.0,0.0,0.0,4.4367,4.4422,4.4436,4.4134,4.4107,4.4161,4.4285,4.4161,4.4134,4.434,4.4422,4.458,4.4945,4.5867,4.6632,4.6944,0.0,0.0,0.0,4.8214,4.8214,4.8214,4.8214,4.8214,4.8214,4.8214,4.8214,4.8214,4.8214,4.8214,4.8214,4.8214,4.8214,4.8214,4.8463,4.8777,4.913,4.9584,4.9963,5.0302,5.0877,5.1126,5.1152,5.1465,5.1596,5.1596,5.1596,5.1596,5.169,5.2342,5.2602,5.2694,0.0,0.0,0.0,0.0,0.0,0.0,0.0,0.0,0.0,0.0,3.6405,3.6405,0.0,0.0,0.0,0.0,3.6405,3.6405,3.6405,3.6405,3.6405,3.6405,3.6468,3.6505,3.6505,3.6008,3.6271,3.7298,3.681,3.7111,3.8115,3.8655,0.0,0.0,0.0,0.0,0.0,0.0,0.0,4.2375,4.0657,4.0441,0.0,0.0,4.1621,0.0,4.3111,4.3352,4.2717,4.3241,4.3848,0.0,0.0,0.0,0.0,0.0,4.6295,0.0,0.0,0.0,0.0,0.0,0.0,0.0,4.4395,4.434,4.434,4.434,4.4161,4.4052,4.4285,4.434,4.4258,4.4024,4.4395,4.4695,4.4654,4.5661,4.6436,4.6501,4.744,0.0,4.8201,4.8214,4.8214,4.8214,4.8214,4.8214,4.8214,4.8214,4.8214,4.8214,4.8214,4.8214,4.8214,4.8214,4.8214,4.8227,4.8799,4.9113,4.9247,5.0302,5.0825,5.0903,5.1387,5.1596,5.1596,5.1596,5.1596,5.1596,5.1596,5.1596,5.169,5.2311,5.2571,5.2694,0.0,0.0,0.0,0.0,0.0,0.0,0.0,0.0,0.0,0.0,3.6405,3.6405,0.0,0.0,0.0,0.0,3.6405,3.6405,3.6405,3.6405,3.6405,3.6405,3.6808,3.7047,3.7047,3.7349,3.7614,3.7839,3.7751,3.804,3.873,3.8843,0.0,0.0,0.0,0.0,0.0,0.0,0.0,4.1002,4.1453,0.0,4.0702,4.1285,4.1645,4.1938,4.2412,4.2724,4.2975,0.0,4.4044,4.4981,0.0,0.0,0.0,0.0,0.0,0.0,0.0,0.0,0.0,0.0,0.0,0.0,4.4626,4.4626,4.4626,4.4626,4.4572,4.4572,4.4599,4.4626,4.4599,4.4545,4.4626,4.4626,4.4422,4.5184,4.5963,4.6449,4.7087,0.0,4.8133,4.8214,4.8214,4.8214,4.8214,4.8214,4.8214,4.8214,4.8214,4.8214,4.8214,4.8214,4.8214,4.8214,4.8214,4.8227,4.8799,4.9339,4.9753,5.0472,5.1021,5.1439,5.1544,5.1596,5.1596,5.1596,5.1596,5.1596,5.1596,5.1596,5.1659,5.2045,5.2355,5.2663,0.0,0.0,0.0,0.0,0.0,0.0,0.0,0.0,3.6405,3.6405,3.662,3.6796,0.0,0.0,0.0,0.0,0.0,0.0,0.0,3.721,3.721,3.721,3.745,3.76,3.76,3.7864,3.8153,3.8442,3.8442,3.8756,3.9308,3.9308,0.0,0.0,0.0,3.9697,3.971,0.0,4.0262,4.0539,4.109,0.0,4.0964,4.1543,4.1946,4.225,4.2499,4.2763,4.303,4.331,4.3878,0.0,0.0,4.4953,4.5302,0.0,4.5033,4.4695,0.0,0.0,0.0,4.4695,0.0,0.0,0.0,4.4695,4.4695,4.4695,4.4695,4.4695,4.4695,4.4695,4.4695,4.4695,4.4695,4.4654,4.4518,4.5135,4.5805,4.6436,4.6983,0.0,4.8133,4.8214,4.8214,4.8214,4.8214,4.8214,4.8214,4.8214,4.8214,4.8214,4.8214,4.8214,4.8214,4.8214,4.8342,4.8672,4.9247,4.978,5.0355,5.093,5.1335,5.1596,5.1596,5.1596,5.1596,5.1596,5.1596,5.1596,5.1596,5.1596,5.1659,5.2169,5.2448,5.2663,0.0,0.0,0.0,0.0,0.0,0.0,0.0,0.0,3.636,3.6461,3.6998,3.7337,0.0,0.0,0.0,0.0,0.0,0.0,0.0,0.0,3.8002,3.8002,3.8115,3.8165,3.8165,3.8278,3.8567,3.9057,3.9057,3.9283,3.9697,3.9697,0.0,0.0,0.0,3.9747,3.9885,0.0,0.0,4.084,0.0,4.1103,4.1528,4.2135,4.2336,4.2399,4.2851,4.3002,4.303,4.324,0.0,4.3776,4.3545,4.4013,0.0,0.0,0.0,0.0,0.0,0.0,0.0,0.0,0.0,4.4695,0.0,0.0,0.0,4.4695,4.4695,4.4695,4.4695,4.4695,4.4629,4.4407,0.0,0.0,0.0,4.4982,0.0,4.6238,4.6826,0.0,4.7963,4.812,4.8214,4.8214,4.8214,4.8214,4.8214,4.8214,4.8214,4.8214,4.8214,4.8214,4.8214,4.8214,4.8486,4.913,4.9636,5.0211,5.0812,5.1348,5.1596,5.1596,5.1596,5.1596,5.1596,5.1596,5.1596,5.1596,5.1596,5.1596,5.1659,5.2218,5.2509,5.2694,3.6405,3.6405,0.0,0.0,3.6405,0.0,0.0,0.0,3.6225,3.6697,3.7441,0.0,0.0,0.0,0.0,0.0,0.0,0.0,3.7643,0.0,0.0,3.8002,3.8492,3.8806,3.8806,3.9245,3.9534,3.9597,3.9597,3.9634,3.9697,0.0,0.0,0.0,3.9697,3.9961,4.0399,0.0,4.1078,0.0,4.2024,4.2034,0.0,4.27,4.2914,4.2926,4.2977,4.3002,4.3002,0.0,4.324,4.3489,0.0,4.4066,0.0,0.0,0.0,0.0,0.0,0.0,0.0,0.0,4.4695,0.0,0.0,0.0,4.4695,4.4695,0.0,0.0,0.0,0.0,0.0,0.0,0.0,0.0,4.3336,4.412,4.5021,4.5622,4.6225,0.0,0.0,4.7898,4.8214,4.8214,4.8214,4.8214,4.8214,4.8214,4.8214,4.8214,4.8214,4.8214,4.8214,4.8214,4.8486,4.913,4.9636,5.0211,5.0812,5.1348,5.1596,5.1596,5.1596,5.1596,5.1596,5.1596,5.1596,5.1596,5.1596,5.1596,5.1596,5.169,5.2094,5.2602,3.6146,3.6299,0.0,0.0,3.6323,0.0,0.0,0.0,3.6788,3.6998,3.7605,0.0,0.0,0.0,0.0,0.0,0.0,3.8587,0.0,0.0,0.0,0.0,3.922,0.0,3.9371,3.9572,3.9697,3.9697,3.9697,3.9697,3.9697,0.0,0.0,0.0,4.0174,0.0,4.0989,0.0,4.1758,0.0,0.0,0.0,0.0,4.2914,4.3002,4.3002,4.3002,4.3002,4.3002,0.0,4.3308,0.0,0.0,0.0,0.0,0.0,0.0,0.0,0.0,0.0,0.0,0.0,0.0,0.0,0.0,0.0,4.4695,0.0,0.0,0.0,0.0,0.0,0.0,0.0,4.4381,0.0,0.0,0.0,4.4917,0.0,0.0,0.0,0.0,0.0,0.0,0.0,4.8214,4.8214,4.8214,4.8214,4.8214,4.8214,4.8214,4.8214,4.8214,4.8214,4.8672,4.9557,4.978,5.0368,5.1269,5.1492,5.1596,5.1596,5.1596,5.1596,5.1596,5.1596,5.1596,5.1596,5.1596,5.1596,5.1627,5.1828,5.22,5.2602,0.0,0.0,0.0,0.0,0.0,0.0,0.0,0.0,0.0,0.0,0.0,0.0,3.8225,3.8711,0.0,0.0,0.0,3.905,0.0,0.0,3.9348,0.0,0.0,0.0,0.0,0.0,3.9697,3.9697,3.9697,3.9697,3.9697,0.0,0.0,0.0,0.0,4.1026,4.1593,0.0,4.2273,4.2449,4.2838,4.3002,4.3002,4.3002,4.3002,4.3002,4.3002,4.3002,4.3002,4.3002,4.3348,0.0,4.3252,0.0,0.0,0.0,0.0,0.0,4.4572,0.0,0.0,0.0,0.0,0.0,0.0,0.0,0.0,0.0,0.0,0.0,0.0,0.0,0.0,0.0,0.0,4.459,0.0,4.4499,0.0,0.0,0.0,0.0,0.0,0.0,0.0,4.8214,4.8214,4.8214,4.8214,4.8214,4.8214,4.8214,4.8214,4.8214,4.8214,4.8342,4.8947,4.9884,5.0067,5.0655,5.1596,5.1596,5.1596,5.1596,5.1596,5.1596,5.1596,5.1596,5.1596,5.1596,5.1596,5.1596,5.1627,5.1859,5.2169,5.2448,3.6818,3.6578,0.0,0.0,0.0,0.0,0.0,0.0,0.0,0.0,0.0,0.0,0.0,0.0,0.0,0.0,0.0,3.8435,3.8435,0.0,3.9154,0.0,0.0,0.0,0.0,0.0,0.0,3.9697,3.9697,3.9697,3.9697,4.0237,0.0,0.0,4.1051,4.1618,4.2187,4.22,4.2487,4.2977,4.3002,4.3002,4.3002,0.0,4.3002,4.3002,4.3002,0.0,0.0,4.3002,4.3197,0.0,0.0,0.0,0.0,0.0,0.0,0.0,0.0,0.0,0.0,4.4654,0.0,0.0,0.0,0.0,4.4695,0.0,0.0,0.0,0.0,0.0,0.0,0.0,0.0,0.0,0.0,0.0,0.0,0.0,0.0,0.0,0.0,0.0,4.8214,4.8214,4.8214,4.8214,4.8214,4.8214,4.8214,4.8214,4.8214,4.8214,4.8214,4.879,4.9335,4.9897,5.0485,5.106,5.1596,5.1596,5.1596,5.1596,5.1596,5.1596,5.1596,5.1596,5.1596,5.1596,5.1596,5.1596,5.1596,5.1596,5.1828,5.2121,0.0,0.0,0.0,0.0,0.0,0.0,0.0,3.7849,0.0,0.0,0.0,0.0,0.0,0.0,3.833,0.0,0.0,3.8409,3.8409,3.8762,0.0,0.0,0.0,3.9581,0.0,0.0,0.0,0.0,0.0,4.0399,4.0763,4.0951,4.1254,0.0,0.0,4.221,0.0,0.0,0.0,0.0,0.0,4.3002,4.3002,0.0,0.0,4.3002,4.3002,4.3002,0.0,4.3002,4.3184,4.3366,4.3184,4.3487,4.3872,4.364,4.3736,0.0,0.0,0.0,4.4107,4.4367,0.0,0.0,0.0,0.0,0.0,0.0,0.0,0.0,0.0,0.0,0.0,0.0,0.0,0.0,0.0,0.0,0.0,0.0,0.0,0.0,0.0,0.0,0.0,4.8214,4.8214,4.8214,0.0,4.8214,4.8214,4.8214,4.8214,4.8214,4.8214,4.8816,4.9378,4.9897,5.0498,5.1073,5.1596,5.1596,5.1596,5.1596,5.1596,5.1596,5.1596,5.1596,5.1596,5.1596,5.1596,5.1596,5.1596,5.1596,5.1828,5.2121,3.6329,0.0,0.0,0.0,0.0,0.0,0.0,0.0,0.0,0.0,3.6989,0.0,3.6708,0.0,3.6896,0.0,3.6869,3.7232,3.7863,3.7605,0.0,3.9033,3.9063,0.0,0.0,0.0,0.0,0.0,0.0,4.0964,4.1315,4.1516,4.1819,4.2213,4.2386,4.2675,4.3002,4.3002,4.3002,0.0,0.0,4.3002,0.0,0.0,4.3002,4.3002,0.0,4.3002,4.3002,4.3002,4.3113,4.324,4.3058,4.3265,4.3543,4.3323,4.3419,4.3611,4.3708,4.3708,0.0,0.0,4.4161,0.0,4.4491,0.0,0.0,0.0,0.0,0.0,0.0,0.0,0.0,0.0,0.0,0.0,0.0,4.4695,0.0,0.0,0.0,0.0,0.0,0.0,4.8214,4.8214,4.8214,4.8214,0.0,0.0,4.8214,4.8214,4.8214,4.8214,4.8214,4.8969,4.9544,4.9897,5.0694,5.1256,5.1596,5.1596,5.1596,5.1596,5.1596,5.1596,5.1596,5.1596,5.1596,5.1596,5.1596,5.1596,5.1596,5.1596,5.1734,5.1952,0.0,0.0,0.0,0.0,3.7584,0.0,0.0,0.0,3.6204,0.0,3.514,3.4402,3.4424,3.4424,3.4435,3.4457,3.4457,0.0,3.6906,3.5785,0.0,0.0,3.8603,3.8665,4.0001,0.0,0.0,0.0,0.0,0.0,4.1403,4.1984,4.225,4.2248,4.2776,4.3002,4.3002,4.3002,4.3002,4.3002,4.3002,4.3002,4.3002,4.3002,0.0,4.3002,4.3002,4.3002,4.3002,4.3002,4.3002,4.3002,4.3002,4.3002,4.3002,4.3002,4.3002,4.3058,4.331,4.3366,4.3462,4.3776,0.0,0.0,0.0,0.0,4.4285,0.0,0.0,0.0,0.0,0.0,0.0,0.0,0.0,0.0,0.0,0.0,0.0,0.0,0.0,0.0,0.0,4.7832,4.8214,4.8214,4.8214,4.8214,0.0,0.0,4.8214,4.8214,4.8214,4.8214,4.8214,4.9322,4.9884,4.991,5.1047,5.1596,5.1596,5.1596,5.1596,5.1596,5.1596,5.1596,5.1596,5.1596,5.1596,5.1596,5.1596,5.1596,5.1596,5.1596,5.1596,5.1596,3.4864,3.5113,3.5288,0.0,3.6734,3.8012,0.0,0.0,0.0,0.0,3.514,3.4533,3.4893,3.4937,3.5039,3.533,3.5363,0.0,0.0,0.0,0.0,3.953,3.9688,3.995,4.0366,4.0708,0.0,4.1862,0.0,0.0,4.2559,4.2725,4.2788,4.2801,4.2939,4.3002,4.3002,4.3002,4.3002,4.3002,4.3002,4.3002,0.0,0.0,4.3002,4.3002,4.3002,4.3002,4.3002,4.3002,4.3002,4.3002,4.3002,4.3002,4.3002,4.3002,4.3002,4.303,4.3085,4.3113,4.3169,4.3474,4.3517,4.3613,0.0,0.0,0.0,0.0,0.0,0.0,0.0,0.0,0.0,0.0,0.0,0.0,0.0,0.0,0.0,4.6504,0.0,0.0,0.0,4.7597,4.8214,4.8214,4.8214,0.0,0.0,0.0,0.0,4.8214,4.8214,4.8214,4.8214,4.9322,4.9884,4.991,5.1047,5.1596,5.1596,5.1596,5.1596,5.1596,5.1596,5.1596,5.1596,5.1596,5.1596,5.1596,5.1596,5.1596,5.1596,5.1596,5.1596,5.1596,3.3646,0.0,0.0,3.4664,0.0,0.0,3.6472,0.0,0.0,3.4932,3.4068,0.0,3.3793,3.3824,3.3928,3.4148,3.4169,0.0,0.0,0.0,0.0,3.8493,3.8149,3.8537,3.9896,4.0335,0.0,4.2174,0.0,0.0,4.3002,4.3002,4.3002,4.3002,4.3002,4.3002,4.3002,4.3002,4.3002,4.3002,4.3002,0.0,0.0,4.3002,4.3002,4.3002,4.3002,4.3002,4.3002,4.3002,4.3002,4.3002,4.3002,4.3002,4.3002,4.3002,4.3002,4.3002,4.3002,4.3002,4.303,4.3184,4.324,4.3295,4.3613,4.3681,4.3681,0.0,0.0,0.0,0.0,0.0,0.0,0.0,0.0,0.0,0.0,0.0,0.0,0.0,4.7235,0.0,0.0,4.7662,4.8214,4.8214,4.8214,0.0,0.0,0.0,0.0,4.8214,4.8214,4.8214,4.8214,4.9322,4.9884,4.991,5.1047,5.1596,5.1596,5.1596,5.1596,5.1596,5.1596,5.1596,5.1596,5.1596,5.1596,5.1596,5.1596,5.1596,5.1596,5.1596,5.1596,5.1596,0.0,0.0,0.0,0.0,0.0,0.0,0.0,3.3691,0.0,3.3372,0.0,3.2218,3.2276,3.2276,3.2306,3.2355,0.0,3.3042,3.4694,3.3417,3.4024,3.7144,3.5853,3.6303,3.8969,3.9528,0.0,0.0,0.0,0.0,4.3002,4.3002,4.3002,4.3002,4.3002,4.3002,4.3002,4.3002,4.3002,4.3002,4.3002,4.3002,4.3002,4.3002,4.3002,4.3014,4.309,4.3065,4.3002,4.3002,4.3002,4.3002,4.3002,4.3002,4.3002,4.3002,4.3002,4.3002,4.3002,4.3002,4.3002,4.3002,4.3002,4.3058,4.3295,4.3338,4.3338,4.3338,4.3626,0.0,0.0,0.0,0.0,0.0,0.0,0.0,0.0,0.0,0.0,0.0,0.0,0.0,0.0,0.0,0.0,0.0,0.0,0.0,0.0,0.0,0.0,4.8214,4.8214,0.0,4.8332,0.0,4.9923,5.0028,5.1086,5.1596,5.1596,5.1596,5.1596,5.1596,5.1596,5.1596,5.1596,5.1596,5.1596,5.1596,5.1596,5.1596,5.1596,5.1596,5.1596,5.1596,0.0,0.0,0.0,0.0,0.0,3.2665,3.2595,3.3272,3.3778,3.3778,3.2875,3.2335,3.2646,3.2685,3.2822,3.3174,3.3203,0.0,0.0,0.0,0.0,3.7226,3.701,3.721,3.8026,3.8145,3.9093,0.0,0.0,0.0,4.3002,4.3002,4.3002,4.3002,4.3002,4.3002,4.3002,4.3002,0.0,4.3002,4.3002,4.3002,4.3002,4.3002,4.3002,4.3065,4.3489,4.3363,4.3002,4.3002,4.3002,4.3002,4.3002,4.3002,4.3002,4.3002,4.3002,4.3002,4.3002,4.3002,4.3002,4.3002,4.3002,4.3002,4.3058,4.3085,4.3085,4.3085,4.3295,4.3462,4.3421,0.0,0.0,0.0,0.0,0.0,0.0,0.0,0.0,0.0,0.0,0.0,0.0,0.0,0.0,0.0,0.0,0.0,0.0,0.0,0.0,0.0,4.8214,0.0,0.0,0.0,0.0,5.0642,5.1282,5.1596,5.1596,5.1596,5.1596,5.1596,5.1596,5.1596,5.1596,5.1596,5.1596,5.1596,5.1596,5.1596,5.1596,5.1596,5.1596,5.1596,0.0,0.0,0.0,0.0,0.0,0.0,0.0,3.3287,0.0,3.3366,3.3036,3.29,3.3096,3.3115,3.3203,3.3377,3.3386,3.366,3.4309,3.4362,3.4642,3.5242,3.5273,0.0,3.654,3.6853,3.8104,4.0344,0.0,0.0,0.0,0.0,4.3002,4.3002,4.3002,4.3002,4.3002,0.0,0.0,4.3401,4.3401,4.3576,4.3827,4.3827,4.3827,4.3865,4.4129,4.4053,4.3827,4.3827,4.3827,4.3827,4.3827,4.3827,4.3827,4.3827,4.3827,4.3827,4.3827,4.3827,4.3827,4.3827,4.3827,4.3827,4.3827,4.3827,4.3827,4.3827,4.3929,4.4071,4.4241,4.4778,0.0,0.0,0.0,0.0,0.0,0.0,0.0,0.0,0.0,0.0,0.0,0.0,0.0,0.0,0.0,0.0,0.0,0.0,0.0,0.0,0.0,0.0,0.0,0.0,0.0,5.0799,5.1335,5.1596,5.1596,5.1596,5.1596,5.1596,5.1596,5.1596,5.1596,5.1596,5.1596,5.1596,5.1596,5.1596,5.1596,5.1596,5.1596,5.1596,0.0,3.2404,0.0,0.0,3.293,0.0,3.3338,3.3386,3.3301,3.2969,3.3213,3.3386,3.3386,3.3386,3.3386,3.3386,3.3386,3.3386,3.3386,3.3386,3.3386,3.3386,3.3386,3.388,3.4953,3.5438,3.6842,0.0,0.0,0.0,0.0,0.0,0.0,0.0,0.0,0.0,0.0,0.0,4.3308,4.3978,4.3978,4.4056,4.4199,4.4502,4.4415,4.4211,4.464,4.4778,4.4819,4.4916,4.479,4.4589,4.4589,4.4589,4.4589,4.4589,4.4589,4.4589,4.4589,4.4589,4.4589,4.4589,4.4589,4.4589,4.4589,4.4589,4.4589,4.4589,4.4589,4.4718,4.5036,4.5352,0.0,0.0,0.0,0.0,0.0,0.0,0.0,0.0,0.0,0.0,0.0,0.0,0.0,0.0,0.0,0.0,0.0,0.0,0.0,0.0,0.0,4.8525,4.9244,0.0,5.025,0.0,5.1387,5.1596,5.1596,5.1596,5.1596,5.1596,5.1596,5.1596,5.1596,5.1596,5.1596,5.1596,5.1596,5.1596,5.1596,5.1596,5.1596,5.1596,0.0,0.0,0.0,0.0,0.0,0.0,0.0,3.3386,3.3377,3.3338,3.3367,3.3386,3.3386,3.3386,3.3386,3.3386,3.3386,3.3386,3.3386,3.3386,3.3386,3.3386,3.3386,3.3449,3.3576,3.3629,3.4497,0.0,0.0,0.0,0.0,0.0,0.0,0.0,0.0,0.0,0.0,4.2632,4.3377,4.4527,4.4527,4.3827,4.2925,4.414,4.3835,4.3028,4.4783,4.5409,4.5485,4.5987,4.5443,4.4589,4.4589,4.4589,4.4589,4.4589,4.4589,4.4589,4.4589,4.4589,4.4589,4.4589,4.4589,4.4589,4.4589,4.4589,4.4589,4.4589,4.4589,4.4718,4.5036,4.5321,4.5574,0.0,0.0,0.0,0.0,0.0,0.0,0.0,0.0,0.0,0.0,0.0,0.0,0.0,0.0,0.0,0.0,0.0,0.0,4.8214,0.0,4.8708,4.9806,4.9858,0.0,5.1531,5.157,5.1596,5.1596,5.1596,5.1596,5.1596,5.1596,5.1596,5.1596,5.1596,5.1596,5.1596,5.1596,5.1596,5.1596,5.1596,5.1596,5.1596,0.0,0.0,0.0,0.0,0.0,0.0,0.0,3.3386,3.3386,3.3386,3.3386,3.3386,3.3386,3.3386,3.3494,3.3789,3.3809,3.3916,3.417,3.4189,3.4189,3.4189,3.4189,3.4189,3.4189,3.4383,3.5177,0.0,0.0,0.0,0.0,0.0,0.0,0.0,0.0,4.1196,4.1383,4.1383,4.188,4.2667,4.2667,4.2553,4.2435,4.2947,4.3339,4.371,4.45,4.5307,4.6012,4.6238,4.6012,4.5606,4.5606,4.5606,4.5606,4.5606,4.5606,4.5606,4.5606,4.5606,4.5606,4.5606,4.5606,4.5606,4.5606,4.5606,4.5606,4.5606,4.5606,4.5665,4.5783,4.6074,4.6255,0.0,0.0,0.0,0.0,0.0,0.0,0.0,0.0,0.0,0.0,0.0,0.0,0.0,0.0,0.0,0.0,0.0,0.0,4.8214,0.0,4.8764,4.9884,4.9884,5.0459,5.1596,5.1596,5.1596,5.1596,5.1596,5.1596,5.1596,5.1596,5.1596,5.1596,5.1596,5.1596,5.1596,5.1596,5.1596,5.1596,5.1596,5.1596,5.1596,3.3386,0.0,3.3386,0.0,3.3386,3.3467,3.3594,3.3613,3.3652,3.3779,3.3767,3.375,3.3633,3.3721,3.3926,3.4261,3.429,3.4417,3.4678,3.4697,3.4697,3.4697,3.4697,0.0,3.4697,3.4926,3.5493,3.6401,3.8341,0.0,0.0,0.0,0.0,0.0,4.0127,4.0341,4.0476,4.0476,4.0938,4.1642,4.1642,4.1639,4.164,4.2054,4.256,4.3201,4.3991,4.4921,4.5762,4.618,4.6313,4.6313,4.6313,4.6313,4.6313,4.6313,4.6313,4.6313,4.6313,4.6313,4.6313,4.6313,4.6313,4.6313,4.6313,4.6313,4.6313,4.6313,4.6313,4.6313,4.6313,4.6494,4.6584,0.0,0.0,0.0,0.0,0.0,0.0,0.0,4.7231,4.7442,4.769,0.0,0.0,0.0,0.0,0.0,0.0,0.0,0.0,0.0,0.0,0.0,0.0,4.9884,5.0459,5.1596,5.1596,5.1596,5.1596,5.1596,5.1596,5.1596,5.1596,5.1596,5.1596,5.1596,5.1596,5.1596,5.1596,5.1596,5.1596,5.1596,5.1596,5.1596,3.3386,3.3386,3.3386,3.3386,3.3386,3.3574,3.4036,3.4095,3.4241,3.4629,3.4678,3.4531,3.4143,3.4434,3.4687,3.4687,3.4687,3.4687,3.4697,3.4697,3.4697,0.0,0.0,3.4697,3.4697,3.4697,3.4697,3.473,0.0,0.0,3.6926,0.0,3.968,3.9407,3.9407,3.9712,4.0213,4.0213,4.0967,4.2201,4.2201,4.1384,4.0354,4.1704,4.1396,4.0613,4.3337,4.4312,4.454,4.5853,4.6313,4.6313,4.6313,4.6313,4.6313,4.6313,4.6313,4.6313,4.6313,4.6313,4.6313,4.6313,4.6313,4.6313,4.6313,4.6313,4.6313,4.6313,4.6313,4.6313,4.6313,4.6313,4.6313,4.6313,0.0,0.0,0.0,0.0,0.0,0.0,4.769,4.769,4.769,0.0,0.0,0.0,0.0,0.0,0.0,0.0,0.0,4.8214,4.8214,0.0,4.9884,4.9884,5.0459,5.1596,5.1596,5.1596,5.1596,5.1596,5.1596,5.1596,5.1596,5.1596,5.1596,5.1596,5.1596,5.1596,5.1596,5.1596,5.1596,5.1596,5.1596,5.1596,3.3386,3.3662,3.3867,3.3867,3.4101,3.4336,3.4482,3.4502,3.4541,3.4678,3.498,3.5127,3.499,3.4805,3.4824,0.0,3.5176,3.5293,0.0,3.5605,3.5605,3.5605,3.5605,3.5605,3.5605,3.5605,3.5605,3.5605,0.0,0.0,0.0,3.8927,3.8787,3.7846,3.8077,3.8435,3.8847,3.8847,3.9067,3.9484,3.9484,3.9232,3.888,3.932,3.979,4.03,4.1182,4.2698,4.4374,4.4798,4.5537,4.6313,4.6313,4.6313,4.6313,4.6313,4.6313,4.6313,4.6313,4.6313,4.6313,4.6313,4.6313,4.6313,4.6313,4.6313,4.6313,4.6313,4.6313,4.6313,4.6313,4.6313,4.6313,4.6313,0.0,0.0,0.0,0.0,0.0,0.0,4.6751,4.684,0.0,4.7078,0.0,0.0,0.0,0.0,0.0,0.0,0.0,0.0,4.824,0.0,4.9884,5.0302,5.0877,5.1596,5.1596,5.1596,5.1596,5.1596,5.1596,5.1596,5.1596,5.1596,5.1596,5.1596,5.1596,5.1596,5.1596,5.1596,5.1596,5.1596,5.1596,5.1596,3.3906,3.4121,3.4339,3.4339,3.4521,3.4756,3.4932,3.4961,3.5019,3.5176,3.5449,3.5625,3.5625,3.5371,0.0,3.5605,3.5625,3.5742,3.5972,3.5982,3.5982,3.5982,3.5982,3.5982,3.5982,0.0,0.0,3.5982,3.7206,3.7898,3.8032,3.8387,3.8175,3.7525,3.7726,3.7971,3.8181,3.8181,3.8181,3.8181,3.8181,3.8181,3.8181,3.8181,3.8725,3.9506,4.0018,4.1311,4.2824,4.3326,4.4065,4.4767,4.4767,4.5117,4.5641,4.615,4.6313,4.6313,4.6313,4.6313,4.6313,4.6313,4.6313,4.6313,4.6313,4.6313,4.6313,4.6313,4.6313,4.6313,4.6313,4.6313,4.6313,4.6313,0.0,4.6313,0.0,0.0,0.0,0.0,0.0,0.0,0.0,4.6806,0.0,0.0,0.0,0.0,0.0,0.0,0.0,4.7514,4.8081,0.0,4.969,5.0302,5.0923,5.1596,5.1596,5.1596,5.1596,5.1596,5.1596,5.1596,5.1596,5.1596,5.1596,5.1596,5.1596,5.1596,5.1596,5.1596,5.1596,5.1596,5.1596,5.1596,3.4697,3.4726,0.0,0.0,3.4775,0.0,3.5371,3.5439,3.5576,3.5933,3.5982,3.5982,3.5982,3.5982,3.5982,3.5982,0.0,0.0,0.0,3.5982,3.5982,3.5982,3.5982,0.0,3.5982,3.5982,3.5982,3.5982,3.6292,3.6664,3.7045,3.7348,3.7726,3.8114,3.8114,3.8148,3.8181,3.8181,3.8181,3.8181,3.8181,3.8181,3.8181,3.8181,3.8181,3.8381,3.9605,4.0105,4.0387,4.164,4.2117,4.2213,4.2213,4.3107,4.4417,4.5762,4.621,4.6313,4.6313,4.6313,4.6313,4.6313,4.6313,4.6313,4.6313,4.6313,4.6313,4.6313,4.6313,4.6313,4.6313,4.6313,4.6313,4.6313,4.6313,4.6313,4.6313,0.0,0.0,0.0,0.0,0.0,0.0,4.6776,4.6644,0.0,0.0,0.0,0.0,0.0,4.7536,4.7227,4.7803,4.8562,4.9438,5.0064,5.0776,5.1596,5.1596,5.1596,5.1596,5.1596,5.1596,5.1596,5.1596,5.1596,5.1596,5.1596,5.1596,5.1596,5.1596,5.1596,5.1596,5.1596,5.1596,5.1596,0.0,0.0,3.5234,3.5234,3.5498,3.5742,3.585,3.5869,3.5908,3.5972,3.5982,3.5982,3.5982,3.5982,3.5982,3.5982,3.5982,3.5982,3.5982,3.5982,3.5982,3.5982,3.5982,3.5982,3.5982,3.5982,3.5982,3.5982,3.6084,3.6176,3.6253,3.6355,3.6718,3.7358,3.7358,3.767,3.8181,3.8181,3.8181,3.8181,3.8181,3.8181,3.8181,3.8181,3.8181,3.8248,3.857,3.932,4.0268,4.0581,4.1364,4.2213,4.2213,4.2434,4.2969,4.4343,4.5507,4.6313,4.6313,4.6313,4.6313,4.6313,4.6313,4.6313,4.6313,4.6313,4.6313,4.6313,4.6313,4.6313,4.6313,4.6313,4.6313,4.6313,4.6313,4.6313,4.6313,0.0,0.0,0.0,4.6403,4.6403,4.6403,4.6403,4.6494,0.0,0.0,0.0,0.0,0.0,4.7588,4.751,4.81,4.8951,5.009,5.0628,5.1135,5.1596,5.1596,5.1596,5.1596,5.1596,5.1596,5.1596,5.1596,5.1596,5.1596,5.1596,5.1596,5.1596,5.1596,5.1596,5.1596,5.1596,5.1596,5.1596,3.5303,3.5508,3.5674,3.5674,3.5869,3.5982,3.5982,3.5982,3.5982,3.5982,3.5982,3.5982,3.5982,3.5982,3.5982,3.5982,3.5982,3.5982,3.5982,3.5982,3.5982,3.5982,3.5982,3.5982,3.5982,3.5982,3.5982,3.5982,3.5982,3.6084,3.6234,3.6234,3.6539,3.7112,3.7112,3.7324,3.7703,3.7703,3.7803,3.7937,3.7937,3.8048,3.8181,3.8181,3.8181,3.8181,3.8181,3.8659,3.9287,3.9287,3.9757,4.0354,4.0354,4.0796,4.1428,4.2192,4.3817,4.5507,4.612,4.6313,4.6313,4.6313,4.6313,4.6313,4.6313,4.6313,4.6313,4.6313,4.6313,4.6313,4.6313,4.6313,4.6313,4.6313,4.6313,4.6313,4.6313,4.6313,0.0,4.6313,4.6313,4.6313,4.6313,4.6313,4.6373,4.6554,0.0,0.0,4.692,4.7197,4.7361,4.7361,4.8187,4.9037,4.9831,5.0678,5.1264,5.1596,5.1596,5.1596,5.1596,5.1596,5.1596,5.1596,5.1596,5.1596,5.1596,5.1596,5.1596,5.1596,5.1596,5.1596,5.1596,5.1596,5.1596,5.1596,3.5675,3.5845,3.5982,3.5982,3.5982,3.5982,3.5982,3.5982,3.5982,3.5982,3.5982,3.5982,3.5982,3.5982,3.5982,3.5982,3.5982,3.5982,3.5982,3.5982,3.5982,3.5982,3.5982,3.5982,3.5982,3.5982,3.5982,3.5982,3.5982,3.6142,3.6417,3.6417,3.6664,3.7112,3.7112,3.7146,3.7257,3.7257,3.7425,3.7693,3.7693,3.7904,3.8181,3.8181,3.8181,3.8181,3.8181,3.8181,3.8181,3.8181,3.8181,3.8181,3.8181,3.8968,3.9953,4.0138,4.1843,4.4034,4.5568,4.615,4.6313,4.6313,4.6313,4.6313,4.6313,4.6313,4.6313,4.6313,4.6313,4.6313,4.6313,4.6313,4.6313,4.6313,4.6313,4.6313,4.6313,0.0,4.6313,4.6313,4.6313,4.6313,4.6313,4.6313,4.6313,4.6313,4.6389,0.0,0.0,4.7262,4.735,4.735,4.8284,4.9002,4.9419,5.0478,5.1201,5.1502,5.1502,5.1534,5.1596,5.1596,5.1596,5.1596,5.1596,5.1596,5.1596,5.1596,5.1596,5.1596,5.1596,5.1596,5.1596,5.1596,5.1596,5.1596,3.416,3.5143,3.5982,3.5982,3.5982,3.5982,3.5982,3.5982,3.5982,3.5982,3.5982,3.5982,3.5982,3.5982,3.5982,3.5982,3.5982,3.5982,3.5982,3.5982,3.5982,3.5982,3.5982,3.5982,3.5982,3.5982,3.5982,3.5982,3.5982,3.6016,3.6084,3.6084,3.6447,3.7112,3.7112,3.7458,3.8048,3.8048,3.8048,3.8114,3.8114,3.8148,3.8181,3.8181,3.8181,3.8181,3.8181,3.8181,3.8181,3.8181,3.8181,3.8181,3.8181,3.8337,3.8725,3.9855,4.0484,4.1407,4.3929,4.5434,4.6313,4.6313,4.6313,4.6313,4.6313,4.6313,4.6313,4.6313,4.6313,4.6313,4.6313,4.6313,4.6313,4.6313,4.6313,4.6313,0.0,0.0,4.6313,4.6313,4.6313,4.6313,4.6313,4.6313,4.6313,4.6313,4.671,4.7011,4.7099,4.8008,4.8554,4.8554,4.8718,4.9191,4.9958,5.0436,5.0855,5.1183,5.1183,5.1327,5.1596,5.1596,5.1596,5.1596,5.1596,5.1596,5.1596,5.1596,5.1596,5.1596,5.1596,5.1596,5.1596,5.1596,5.1596,5.1596,3.3805,3.5005,3.5982,3.5982,3.5982,3.5982,3.5982,3.5982,3.5982,3.5982,3.5982,3.5982,3.5982,3.5982,3.5982,3.5982,3.5982,3.5982,3.5982,3.5982,3.5982,3.5982,3.5982,3.5982,3.5982,3.5982,3.5982,3.5982,3.5982,3.6142,3.6367,3.6367,3.6656,3.7218,3.7435,3.7607,3.7744,3.819,3.8327,3.8316,3.8531,3.8746,3.8916,3.8916,3.8916,3.8916,3.8916,3.8916,3.8916,3.8916,3.8716,3.851,3.851,3.8378,3.8314,3.8935,4.0138,4.1556,4.2812,4.3618,4.4096,4.4096,4.4096,4.4293,4.5055,4.5208,4.5434,4.615,4.6313,4.6313,4.6313,4.6313,4.6313,4.6313,4.6313,0.0,0.0,4.6313,4.6313,4.6313,4.6313,4.6313,4.6313,4.6313,4.6439,4.6697,4.6961,4.7362,4.7983,4.8498,4.8944,4.9201,4.9213,4.9499,5.0084,5.0232,5.0487,5.0823,5.0823,5.0918,5.1063,5.1264,5.1327,5.1327,5.1502,5.1596,5.1596,5.1596,5.1596,5.1596,5.1596,5.1596,5.1596,5.1596,5.1596,5.1596,3.2744,3.422,3.5392,3.503,3.5245,3.5494,3.5494,3.5571,3.5742,3.6138,3.625,3.6318,3.6318,3.6318,3.6318,3.6318,3.6318,3.6318,3.6318,3.6318,3.6196,3.6025,3.6113,3.6172,3.6172,3.626,3.6318,3.6318,3.6318,3.6484,3.6851,3.6851,3.7062,3.7436,3.7727,3.7797,3.7752,3.8347,3.8626,3.8685,3.8973,3.926,3.9502,3.9502,3.9502,3.9502,3.9502,3.9502,3.9502,3.9502,3.9264,3.8975,3.8975,3.8737,3.8481,3.8367,3.9713,4.1332,4.164,4.1959,4.2213,4.2213,4.2213,4.2497,4.3575,4.3805,4.4084,4.5117,4.5342,4.5342,4.5342,4.5342,4.5342,4.5342,0.0,0.0,0.0,4.5342,4.5342,4.5342,4.5342,4.5342,4.5342,4.5466,4.5804,4.6588,4.6849,4.7527,4.8724,4.8931,4.9151,4.9577,4.959,4.9719,4.9988,4.9988,5.0136,5.0474,5.0474,5.0506,5.0601,5.0867,5.1025,5.112,5.1359,5.1534,5.1596,5.1596,5.1596,5.1596,5.1596,5.1596,5.1596,5.1596,5.1596,5.1596,2.9528,3.193,3.3519,3.207,3.3023,3.3944,3.3944,3.4292,3.5032,3.6473,3.6963,3.7207,3.7207,3.7207,3.7207,3.7207,3.7207,3.7207,3.7207,3.7207,3.6846,3.6055,3.6406,3.6656,3.6656,3.7002,3.7207,3.7207,3.7207,3.7217,3.7256,3.7256,3.7441,3.7752,3.7787,3.8207,3.8879,3.8948,3.9157,3.9433,3.9433,3.9468,3.9502,3.9502,3.9502,3.9502,3.9502,3.9502,3.9502,3.9502,3.9482,3.9451,3.9451,3.943,3.9316,3.8892,3.8636,3.8758,4.0008,4.1235,4.2213,4.2213,4.2213,4.2244,4.2339,4.2339,4.2371,4.2497,4.2497,4.2497,4.2497,4.2497,4.2497,4.2497,0.0,0.0,4.2497,4.2497,4.2497,4.2497,4.2497,4.2497,4.2497,4.2893,4.3738,4.5138,4.6118,4.7283,4.873,4.9251,4.9552,4.959,4.959,4.9622,4.9635,4.9635,4.9828,5.0148,5.0148,5.0295,5.0601,5.0633,5.0823,5.1088,5.112,5.1296,5.1596,5.1596,5.1596,5.1596,5.1596,5.1596,5.1596,5.1596,5.1596,5.1596,2.9456,3.1216,3.2577,3.2203,3.2614,3.3331,3.4336,3.4606,3.5276,3.6876,3.7197,3.7295,3.7295,3.7295,3.7295,3.7295,3.7295,3.7295,3.7295,3.7295,3.7148,3.6826,3.6973,3.706,3.706,3.7217,3.7295,3.7295,3.7295,3.7432,3.7685,3.7685,3.7903,3.8302,3.8563,3.8823,3.9145,3.9597,3.9881,4.0022,4.0269,4.0365,4.0365,4.0365,4.0365,4.0365,4.0365,4.0365,4.0365,4.0365,4.0154,3.9926,3.9926,3.974,3.9471,3.9296,3.912,3.9059,3.9275,3.9533,3.9725,3.9725,3.9725,3.9953,4.0764,4.0957,4.1203,4.2022,4.2213,4.2213,4.2213,4.2213,4.2213,4.2213,0.0,4.2213,4.2213,4.2213,4.2213,4.2213,4.2213,4.2296,4.2617,4.2803,4.3396,4.4587,4.504,4.5634,4.6528,4.7614,4.8645,4.9558,4.959,4.959,4.959,4.959,4.9654,4.9796,4.9796,4.9847,5.0008,5.041,5.055,5.0499,5.0931,5.1183,5.1296,5.1296,5.1421,5.1596,5.1596,5.1596,5.1596,5.1596,5.1596,5.1596,2.9093,3.0373,3.1358,3.1101,3.1473,3.2163,3.3257,3.3535,3.4341,3.6466,3.6875,3.715,3.766,3.7695,3.7695,3.7695,3.7695,3.7695,3.7695,3.7695,3.7578,3.7305,3.7422,3.75,3.75,3.7627,3.7695,3.7695,3.7695,3.7842,3.8135,3.8135,3.8291,3.8611,3.8875,3.9067,3.9212,3.9754,4.0033,4.0166,4.0561,4.0704,4.074,4.0836,4.0908,4.0908,4.0908,4.0908,4.0908,4.0908,4.0675,4.0427,4.0427,4.0081,3.972,3.972,3.9616,3.944,3.912,3.8809,3.8543,3.8264,3.8181,3.8437,3.9353,3.9572,3.9823,4.0764,4.0957,4.0957,4.0957,4.0957,4.0957,4.0957,4.0957,4.0957,4.0957,4.0957,4.0957,4.0957,4.1059,4.1249,4.1582,4.1871,4.2527,4.368,4.3906,4.4347,4.5152,4.6603,4.7854,4.8885,4.9364,4.959,4.959,4.959,4.959,4.959,4.959,4.959,4.9635,5.0059,5.0232,5.0116,5.0595,5.0836,5.0962,5.1057,5.1233,5.1453,5.1565,5.1596,5.1596,5.1596,5.1596,5.1596,2.7919,2.9129,2.9719,2.8175,2.9167,3.0195,3.0195,3.0555,3.1927,3.5075,3.5916,3.6802,3.8419,3.8611,3.8611,3.8611,3.8611,3.8611,3.8611,3.8611,3.8193,3.7344,3.7705,3.7894,3.7894,3.8359,3.8611,3.8611,3.8611,3.8611,3.8611,3.8611,3.8611,3.8611,3.8611,3.8839,3.9212,3.9212,3.9409,3.975,4.013,4.032,4.0356,4.074,4.0908,4.0908,4.0908,4.0908,4.0908,4.0908,4.0908,4.0908,4.0908,4.0582,4.0206,4.0206,3.9875,3.9513,3.9513,3.9513,3.9296,3.8419,3.8191,3.8191,3.8181,3.8181,3.8181,3.8181,3.8181,3.8181,3.8181,3.8181,3.8181,3.8181,3.8181,3.8181,3.8181,3.8181,3.8181,3.8191,3.8541,3.8809,3.883,3.9657,4.0805,4.2273,4.2824,4.37,4.5107,4.6569,4.738,4.738,4.8808,4.959,4.959,4.959,4.959,4.959,4.959,4.959,4.959,4.959,4.9783,5.0084,5.0084,5.0295,5.062,5.0962,5.1088,5.112,5.1484,5.1596,5.1596,5.1596,5.1596,5.1596,2.8211,2.8622,2.8879,2.8648,2.8986,2.9663,3.0801,3.1079,3.2306,3.5574,3.6128,3.6802,3.8419,3.8611,3.8611,3.8611,3.8611,3.8611,3.8611,3.8611,3.8493,3.8203,3.831,3.8379,3.8379,3.8542,3.8611,3.8611,3.8611,3.8611,3.8611,3.8611,3.8611,3.8611,3.8611,3.8928,3.9544,3.9544,3.994,4.055,4.0658,4.074,4.074,4.0836,4.0908,4.0908,4.0908,4.0908,4.0908,4.0908,4.0908,4.0908,4.0908,4.0789,4.0686,4.0686,4.0582,4.0406,4.0071,3.9988,3.9771,3.8851,3.8613,3.8541,3.8253,3.8181,3.8181,3.8181,3.8181,3.8181,3.8181,3.8181,3.8181,3.8181,3.8181,3.8181,3.8181,3.8181,3.8295,3.8582,3.8737,3.9068,3.972,4.003,4.052,4.1306,4.1499,4.2187,4.3631,4.4149,4.4858,4.5819,4.7281,4.8064,4.8064,4.908,4.959,4.959,4.959,4.959,4.9622,4.9828,4.9892,4.9764,4.9988,5.0148,5.0264,5.0372,5.055,5.0791,5.1107,5.1233,5.1264,5.1502,5.1596,5.1596,2.8578,2.8615,2.8673,2.8856,2.8893,2.9236,3.0191,3.0346,3.1293,3.394,3.4804,3.5821,3.7484,3.8236,3.8611,3.8611,3.8611,3.8611,3.8611,3.8611,3.8611,3.8611,3.8611,3.8611,3.8611,3.8611,3.8611,3.8611,3.8611,3.8611,3.8611,3.8611,3.8611,3.8611,3.8766,3.9083,3.9508,3.9642,3.9966,4.0443,4.0596,4.0668,4.0668,4.0836,4.0908,4.0908,4.0908,4.0908,4.0908,4.0908,4.0908,4.0908,4.0908,4.0908,4.0908,4.0908,4.0908,4.0856,4.0562,4.0489,4.0313,3.9544,3.9223,3.8965,3.8554,3.845,3.8398,3.8222,3.8181,3.8181,3.8181,3.8181,3.8181,3.8181,3.8181,3.8243,3.8419,3.845,3.8616,3.9037,3.9244,3.9585,4.0133,4.0386,4.0593,4.0897,4.0908,4.1289,4.2162,4.2794,4.3503,4.4333,4.5751,4.6536,4.6536,4.7998,4.9015,4.959,4.959,4.959,4.9622,4.9828,4.9796,4.9622,4.9828,4.9892,4.9924,5.0052,5.0212,5.0455,5.076,5.0981,5.112,5.1327,5.1471,5.1596,2.8893,2.8893,2.8893,2.8893,2.8893,2.8893,2.8893,2.8893,2.9462,3.1109,3.269,3.4345,3.6015,3.7631,3.8611,3.8611,3.8611,3.8611,3.8611,3.8611,3.8611,3.8611,3.8611,3.8611,3.8611,3.8611,3.8611,3.8611,3.8611,3.8611,3.8611,3.8611,3.8611,3.8611,3.903,3.9212,3.9284,3.9616,3.9786,3.9822,4.0202,4.0346,4.0382,4.0765,4.0908,4.0908,4.0908,4.0908,4.0908,4.0908,4.0908,4.0908,4.0908,4.0908,4.0908,4.0908,4.0908,4.0908,4.0908,4.0908,4.0814,4.0386,3.9937,3.9492,3.8985,3.8872,3.8758,3.8388,3.8305,3.8305,3.8305,3.8305,3.8305,3.8305,3.8305,3.845,3.882,3.8872,3.9047,3.9513,3.9937,4.0206,4.0247,4.0644,4.0908,4.0908,4.0908,4.0908,4.0908,4.2162,4.2888,4.2888,4.4264,4.5005,4.5005,4.6469,4.7953,4.9384,4.9525,4.959,4.959,4.959,4.959,4.959,4.959,4.959,4.9622,4.9924,5.0052,5.0084,5.041,5.0728,5.1025,5.1088,5.1296,5.1565,2.8893,2.8893,2.8893,2.8893,2.8893,2.8893,2.8893,2.8893,2.9462,3.1109,3.269,3.4345,3.6015,3.7631,3.8611,3.8611,3.8611,3.8611,3.8611,3.8611,3.8611,3.8611,3.8611,3.8611,3.8611,3.8611,3.8611,3.8611,3.8611,3.8611,3.8611,3.8611,3.8611,3.8611,3.903,3.9347,3.9616,4.0022,4.0336,4.0658,4.0729,4.0775,4.0775,4.0872,4.0908,4.0908,4.0908,4.0908,4.0908,4.0908,4.0908,4.0908,4.0908,4.0908,4.0908,4.0908,4.0908,4.0908,4.0908,4.0908,4.0897,4.0758,4.0655,4.0375,3.9533,3.9358,3.9327,3.9233,3.9213,3.9213,3.9213,3.9213,3.9213,3.9213,3.9213,3.9244,3.9347,3.9358,3.9523,3.9988,4.0133,4.033,4.0696,4.0856,4.0908,4.0908,4.0908,4.0908,4.0908,4.1182,4.1395,4.1395,4.2783,4.3573,4.3573,4.4983,4.6424,4.7887,4.9047,4.959,4.959,4.959,4.959,4.959,4.959,4.959,4.9603,4.9699,4.9719,4.9731,5.0084,5.0244,5.0372,5.0899,5.1151,5.1233,2.8893,2.8893,2.8893,2.8893,2.8893,2.8893,2.8893,2.8893,2.9197,3.0036,3.1553,3.3184,3.4841,3.646,3.7741,3.8538,3.8611,3.8611,3.8611,3.8611,3.8611,3.8611,3.8611,3.8611,3.8611,3.8611,3.8611,3.8611,3.8611,3.8611,3.8611,3.8611,3.8611,3.8611,3.903,3.9311,3.9518,4.0058,4.0417,4.0632,4.0801,4.0908,4.0908,4.0908,4.0908,4.0908,4.0908,4.0908,4.0908,4.0908,4.0908,4.0908,4.0908,4.0908,4.0908,4.0908,4.0908,4.0908,4.0908,4.0908,4.0908,4.0908,4.0908,4.0696,3.9988,3.9833,3.9771,3.9554,3.9502,3.9502,3.9502,3.9502,3.9502,3.9502,3.9502,3.9575,3.9816,3.9823,3.9999,4.0479,4.0541,4.0624,4.0897,4.0908,4.0908,4.0908,4.0908,4.0908,4.0908,4.0908,4.0908,4.0908,4.1643,4.2057,4.2057,4.3492,4.4584,4.5357,4.7524,4.8534,4.8567,4.9287,4.959,4.959,4.959,4.959,4.959,4.959,4.959,4.9635,4.9796,4.9956,5.0148,5.0499,5.0574,5.0479,2.8893,2.8893,2.8893,2.8893,2.8893,2.8893,2.8893,2.8893,2.8893,2.8893,3.0307,3.183,3.3138,3.5028,3.6849,3.8465,3.8611,3.8611,3.8611,3.8611,3.8611,3.8611,3.8611,3.8611,3.8611,3.8611,3.8611,3.8611,3.8611,3.8611,3.8611,3.8611,3.8611,3.8611,3.903,3.9212,3.9248,3.9925,4.0202,4.0238,4.0632,4.0811,4.0801,4.0872,4.0908,4.0908,4.0908,4.0908,4.0908,4.0908,4.0908,4.0908,4.0908,4.0908,4.0908,4.0908,4.0908,4.0908,4.0908,4.0908,4.0908,4.0908,4.0908,4.0814,4.0427,4.0309,4.0195,3.9813,3.973,3.973,3.973,3.973,3.973,3.973,3.973,3.9889,4.0251,4.0323,4.0479,4.0866,4.0908,4.0908,4.0908,4.0908,4.0908,4.0908,4.0908,4.0908,4.0908,4.0908,4.0908,4.0908,4.0908,4.0908,4.0908,4.2127,4.2724,4.2748,4.5391,4.6803,4.7069,4.8534,4.9222,4.9254,4.9493,4.959,4.959,4.959,4.959,4.959,4.959,4.9701,4.9868,4.9844,4.9754,4.9643,2.8893,2.8893,2.8893,2.8893,2.8893,2.8893,2.8893,2.8893,2.8893,2.8893,3.0307,3.137,3.16,3.4354,3.6849,3.8465,3.8611,3.8611,3.8611,3.8611,3.8611,3.8611,3.8611,3.8611,3.8611,3.8611,3.8611,3.8611,3.8611,3.8611,3.8611,3.8611,3.8611,3.8611,3.903,3.9212,3.9212,3.9616,3.9786,3.9822,4.0238,4.0392,4.0417,4.0775,4.0908,4.0908,4.0908,4.0908,4.0908,4.0908,4.0908,4.0908,4.0908,4.0908,4.0908,4.0908,4.0908,4.0908,4.0908,4.0908,4.0908,4.0908,4.0908,4.0897,4.08,4.0825,4.0768,4.0706,4.0696,4.0696,4.0696,4.0696,4.0696,4.0696,4.0696,4.0717,4.0814,4.0825,4.0846,4.0908,4.0908,4.0908,4.0908,4.0908,4.0908,4.0908,4.0908,4.0908,4.0908,4.0908,4.0908,4.0908,4.0908,4.0908,4.0908,4.1086,4.1193,4.1228,4.2877,4.431,4.5548,4.7003,4.7689,4.7755,4.9047,4.959,4.959,4.959,4.959,4.959,4.959,4.9333,4.8951,4.8798,4.888,4.9094,2.8893,2.8893,2.8893,2.8893,2.8893,2.8893,2.8893,2.8893,2.8893,2.8893,2.9501,3.0307,3.1178,3.4241,3.6507,3.7217,3.808,3.8611,3.8611,3.8611,3.8611,3.8611,3.8611,3.8611,3.8611,3.8611,3.8611,3.8611,3.8611,3.8611,3.8611,3.8611,3.8611,3.8611,3.8802,3.8994,3.9212,3.9544,3.9832,4.0084,4.0479,4.0632,4.0668,4.0847,4.0908,4.0908,4.0908,4.0908,4.0908,4.0908,4.0908,4.0908,4.0908,4.0908,4.0908,4.0908,4.0908,4.0908,4.0908,4.0908,4.0908,4.0908,4.0908,4.0908,4.0908,4.0908,4.0908,4.0908,4.0908,4.0908,4.0908,4.0908,4.0908,4.0908,4.0908,4.0908,4.0908,4.0908,4.0908,4.0908,4.0908,4.0908,4.0908,4.0908,4.0908,4.0908,4.0908,4.0908,4.0908,4.0908,4.0908,4.0908,4.0908,4.0908,4.0908,4.0908,4.0908,4.0908,4.1573,4.2643,4.4103,4.6368,4.7413,4.7479,4.895,4.959,4.959,4.959,4.959,4.9565,4.9251,4.8786,4.8284,4.8083,4.7985,4.7917]},{"header":{"parameterUnit":"m.s-1","parameterCategory":1,"la1":30.6,"la2":28.766,"lo1":-90.7593,"lo2":-88.6598,"dy":0.0162,"dx":0.0183,"nx":116,"ny":114,"refTime":"2023-03-24T06:00:00:Z","depth":0,"parameterNumber":3,"parameterNumberName":"V-component_of_WINDS"},"data":[0.0,0.0,0.0,0.0,0.0,0.0,0.0,0.0,0.0,0.0,0.0,0.0,0.0,0.0,0.0,0.0,0.0,0.0,0.0,0.0,0.0,0.0,0.0,0.0,0.0,0.0,0.0,0.0,0.0,0.0,0.0,0.0,0.0,0.0,0.0,0.0,0.0,0.0,0.0,0.0,0.0,0.0,0.0,0.0,0.0,0.0,0.0,0.0,0.0,0.0,0.0,0.0,0.0,0.0,0.0,0.0,0.0,0.0,0.0,0.0,0.0,0.0,0.0,0.0,0.0,0.0,0.0,0.0,0.0,0.0,0.0,0.0,0.0,0.0,0.0,0.0,0.0,0.0,0.0,0.0,0.0,0.0,0.0,0.0,0.0,0.0,0.0,0.0,0.0,0.0,0.0,0.0,0.0,0.0,0.0,0.0,0.0,0.0,0.0,0.0,0.0,0.0,0.0,0.0,0.0,0.0,0.0,0.0,0.0,0.0,0.0,0.0,0.0,0.0,0.0,0.0,0.0,0.0,0.0,0.0,0.0,0.0,0.0,0.0,0.0,0.0,0.0,0.0,0.0,0.0,0.0,0.0,0.0,0.0,0.0,0.0,0.0,0.0,0.0,0.0,0.0,0.0,0.0,0.0,0.0,0.0,0.0,0.0,0.0,0.0,0.0,0.0,0.0,0.0,0.0,0.0,0.0,0.0,0.0,0.0,0.0,0.0,0.0,0.0,0.0,0.0,0.0,0.0,0.0,0.0,0.0,0.0,0.0,0.0,0.0,0.0,0.0,0.0,0.0,0.0,0.0,0.0,0.0,0.0,0.0,0.0,0.0,0.0,0.0,0.0,0.0,0.0,0.0,0.0,0.0,0.0,0.0,0.0,0.0,0.0,0.0,0.0,0.0,0.0,0.0,0.0,0.0,0.0,0.0,0.0,0.0,0.0,0.0,0.0,0.0,0.0,0.0,0.0,0.0,0.0,0.0,0.0,0.0,0.0,0.0,0.0,0.0,0.0,0.0,0.0,0.0,0.0,0.0,0.0,0.0,0.0,0.0,0.0,0.0,0.0,0.0,0.0,0.0,0.0,0.0,0.0,0.0,0.0,0.0,0.0,0.0,0.0,0.0,0.0,0.0,0.0,0.0,0.0,0.0,0.0,0.0,0.0,0.0,0.0,0.0,0.0,0.0,0.0,0.0,0.0,0.0,0.0,0.0,0.0,0.0,0.0,0.0,0.0,0.0,0.0,0.0,0.0,0.0,0.0,0.0,0.0,0.0,0.0,0.0,0.0,0.0,0.0,0.0,0.0,0.0,0.0,0.0,0.0,0.0,0.0,0.0,0.0,0.0,0.0,0.0,0.0,0.0,0.0,0.0,0.0,0.0,0.0,0.0,0.0,0.0,0.0,0.0,0.0,0.0,0.0,0.0,0.0,0.0,0.0,0.0,0.0,0.0,0.0,0.0,0.0,0.0,0.0,0.0,0.0,0.0,0.0,0.0,0.0,0.0,0.0,0.0,0.0,0.0,0.0,0.0,0.0,0.0,0.0,0.0,0.0,0.0,0.0,0.0,0.0,0.0,0.0,0.0,0.0,0.0,0.0,0.0,0.0,0.0,0.0,0.0,0.0,0.0,0.0,0.0,0.0,0.0,0.0,0.0,0.0,0.0,0.0,0.0,0.0,0.0,0.0,0.0,0.0,0.0,0.0,0.0,0.0,0.0,0.0,0.0,0.0,0.0,0.0,0.0,0.0,0.0,0.0,0.0,0.0,0.0,0.0,0.0,0.0,0.0,0.0,0.0,0.0,0.0,0.0,0.0,0.0,0.0,0.0,0.0,0.0,0.0,0.0,0.0,0.0,0.0,0.0,0.0,0.0,0.0,0.0,0.0,0.0,0.0,0.0,0.0,0.0,0.0,0.0,0.0,0.0,0.0,0.0,0.0,0.0,0.0,0.0,0.0,0.0,0.0,0.0,0.0,0.0,0.0,0.0,0.0,0.0,0.0,0.0,0.0,0.0,0.0,0.0,0.0,0.0,0.0,0.0,0.0,0.0,0.0,0.0,0.0,0.0,0.0,0.0,0.0,0.0,0.0,0.0,0.0,0.0,0.0,0.0,0.0,0.0,0.0,0.0,0.0,0.0,0.0,0.0,0.0,0.0,0.0,0.0,0.0,0.0,0.0,0.0,0.0,0.0,0.0,0.0,0.0,0.0,0.0,0.0,0.0,0.0,0.0,0.0,0.0,0.0,0.0,0.0,0.0,0.0,0.0,0.0,0.0,0.0,0.0,0.0,0.0,0.0,0.0,0.0,0.0,0.0,0.0,0.0,0.0,0.0,0.0,0.0,0.0,0.0,0.0,0.0,0.0,0.0,0.0,0.0,0.0,0.0,0.0,0.0,0.0,0.0,0.0,0.0,0.0,0.0,0.0,0.0,0.0,0.0,0.0,0.0,0.0,0.0,0.0,0.0,0.0,0.0,0.0,0.0,0.0,0.0,0.0,0.0,0.0,0.0,0.0,0.0,0.0,0.0,0.0,0.0,0.0,0.0,0.0,0.0,0.0,0.0,0.0,0.0,0.0,0.0,0.0,0.0,0.0,0.0,0.0,0.0,0.0,0.0,0.0,0.0,0.0,0.0,0.0,0.0,0.0,0.0,0.0,0.0,0.0,0.0,0.0,0.0,0.0,0.0,0.0,0.0,0.0,0.0,0.0,0.0,0.0,0.0,0.0,0.0,0.0,0.0,0.0,0.0,0.0,0.0,0.0,0.0,0.0,0.0,0.0,0.0,0.0,0.0,0.0,0.0,0.0,0.0,0.0,0.0,0.0,0.0,0.0,0.0,0.0,0.0,0.0,0.0,0.0,0.0,0.0,0.0,0.0,0.0,0.0,0.0,0.0,0.0,0.0,0.0,0.0,0.0,0.0,0.0,0.0,0.0,0.0,0.0,0.0,0.0,0.0,0.0,0.0,0.0,0.0,0.0,0.0,0.0,0.0,0.0,0.0,0.0,0.0,0.0,0.0,0.0,0.0,0.0,0.0,0.0,0.0,0.0,0.0,0.0,0.0,0.0,0.0,0.0,0.0,0.0,0.0,0.0,0.0,0.0,0.0,0.0,0.0,0.0,0.0,0.0,0.0,0.0,0.0,0.0,0.0,0.0,0.0,0.0,0.0,0.0,0.0,0.0,0.0,0.0,0.0,0.0,0.0,0.0,0.0,0.0,0.0,0.0,0.0,0.0,0.0,0.0,0.0,0.0,0.0,0.0,0.0,0.0,0.0,0.0,0.0,0.0,0.0,0.0,0.0,0.0,0.0,0.0,0.0,0.0,0.0,0.0,0.0,0.0,0.0,0.0,0.0,0.0,0.0,0.0,0.0,0.0,0.0,0.0,0.0,0.0,0.0,0.0,0.0,0.0,0.0,0.0,0.0,0.0,0.0,0.0,0.0,0.0,0.0,0.0,0.0,0.0,0.0,0.0,0.0,0.0,0.0,0.0,0.0,0.0,0.0,0.0,0.0,0.0,0.0,0.0,0.0,0.0,0.0,0.0,0.0,0.0,0.0,0.0,0.0,0.0,0.0,0.0,0.0,0.0,0.0,0.0,0.0,0.0,0.0,0.0,0.0,0.0,0.0,0.0,0.0,0.0,0.0,0.0,0.0,0.0,0.0,0.0,0.0,0.0,0.0,0.0,0.0,0.0,0.0,0.0,0.0,0.0,0.0,0.0,0.0,0.0,0.0,0.0,0.0,0.0,0.0,0.0,0.0,0.0,0.0,0.0,0.0,0.0,0.0,0.0,0.0,0.0,0.0,0.0,0.0,0.0,0.0,0.0,0.0,0.0,0.0,0.0,0.0,0.0,0.0,0.0,0.0,0.0,0.0,0.0,0.0,0.0,0.0,0.0,0.0,0.0,0.0,0.0,0.0,0.0,0.0,0.0,0.0,0.0,0.0,0.0,0.0,0.0,0.0,0.0,0.0,0.0,0.0,0.0,0.0,0.0,0.0,0.0,0.0,0.0,0.0,0.0,0.0,0.0,0.0,0.0,0.0,0.0,0.0,0.0,0.0,0.0,0.0,0.0,0.0,0.0,0.0,0.0,0.0,0.0,0.0,0.0,0.0,0.0,0.0,0.0,0.0,0.0,0.0,0.0,0.0,0.0,0.0,0.0,0.0,0.0,0.0,0.0,0.0,0.0,0.0,0.0,0.0,0.0,0.0,0.0,0.0,0.0,0.0,0.0,0.0,0.0,0.0,0.0,0.0,0.0,0.0,0.0,0.0,0.0,0.0,0.0,0.0,0.0,0.0,0.0,0.0,0.0,0.0,0.0,0.0,0.0,0.0,0.0,0.0,0.0,0.0,0.0,0.0,0.0,0.0,0.0,0.0,0.0,0.0,0.0,0.0,0.0,0.0,0.0,0.0,0.0,0.0,0.0,0.0,0.0,0.0,0.0,0.0,0.0,0.0,0.0,0.0,0.0,0.0,0.0,0.0,0.0,0.0,0.0,0.0,0.0,0.0,0.0,0.0,0.0,0.0,0.0,0.0,0.0,0.0,0.0,0.0,0.0,0.0,0.0,0.0,0.0,0.0,0.0,0.0,0.0,0.0,0.0,0.0,0.0,0.0,0.0,0.0,0.0,0.0,0.0,0.0,0.0,0.0,0.0,0.0,0.0,0.0,0.0,0.0,0.0,0.0,0.0,0.0,0.0,0.0,0.0,0.0,0.0,0.0,0.0,0.0,0.0,0.0,0.0,0.0,0.0,0.0,0.0,0.0,0.0,0.0,0.0,0.0,0.0,0.0,0.0,0.0,0.0,0.0,0.0,0.0,0.0,0.0,0.0,0.0,0.0,0.0,0.0,0.0,0.0,0.0,0.0,0.0,0.0,0.0,0.0,0.0,0.0,0.0,0.0,0.0,0.0,0.0,0.0,0.0,0.0,0.0,0.0,0.0,0.0,0.0,0.0,0.0,0.0,0.0,0.0,0.0,0.0,0.0,0.0,0.0,0.0,0.0,0.0,0.0,0.0,0.0,0.0,0.0,0.0,0.0,0.0,0.0,0.0,0.0,0.0,0.0,0.0,0.0,0.0,0.0,0.0,0.0,0.0,0.0,0.0,0.0,0.0,0.0,0.0,0.0,0.0,0.0,0.0,0.0,0.0,0.0,0.0,0.0,0.0,0.0,0.0,0.0,0.0,0.0,0.0,0.0,0.0,0.0,0.0,0.0,0.0,0.0,0.0,0.0,0.0,0.0,0.0,0.0,0.0,0.0,0.0,0.0,0.0,0.0,0.0,0.0,0.0,0.0,0.0,0.0,0.0,0.0,0.0,0.0,0.0,0.0,0.0,0.0,0.0,0.0,0.0,0.0,0.0,0.0,0.0,0.0,0.0,0.0,0.0,0.0,0.0,0.0,0.0,0.0,0.0,0.0,0.0,0.0,0.0,0.0,0.0,0.0,0.0,0.0,0.0,0.0,0.0,0.0,0.0,0.0,0.0,0.0,0.0,0.0,0.0,0.0,0.0,0.0,0.0,0.0,0.0,0.0,0.0,0.0,0.0,0.0,0.0,0.0,0.0,0.0,0.0,0.0,0.0,0.0,0.0,0.0,0.0,0.0,0.0,0.0,0.0,0.0,0.0,0.0,0.0,0.0,0.0,0.0,0.0,0.0,0.0,0.0,0.0,0.0,0.0,0.0,0.0,0.0,0.0,0.0,0.0,0.0,0.0,0.0,0.0,0.0,0.0,0.0,0.0,0.0,0.0,0.0,0.0,0.0,0.0,0.0,0.0,0.0,0.0,0.0,0.0,0.0,0.0,0.0,0.0,0.0,0.0,0.0,0.0,0.0,0.0,0.0,0.0,0.0,0.0,0.0,0.0,0.0,0.0,0.0,0.0,0.0,0.0,0.0,0.0,0.0,0.0,0.0,0.0,0.0,0.0,0.0,0.0,0.0,0.0,0.0,0.0,0.0,0.0,0.0,0.0,0.0,0.0,0.0,0.0,0.0,0.0,0.0,0.0,0.0,0.0,0.0,0.0,0.0,0.0,0.0,0.0,0.0,0.0,0.0,0.0,0.0,0.0,0.0,0.0,0.0,0.0,0.0,0.0,0.0,0.0,2.891,0.0,0.0,0.0,0.0,0.0,0.0,0.0,0.0,0.0,0.0,0.0,0.0,0.0,0.0,0.0,0.0,0.0,0.0,0.0,0.0,0.0,0.0,0.0,0.0,0.0,0.0,0.0,0.0,0.0,0.0,0.0,0.0,0.0,0.0,0.0,0.0,0.0,0.0,0.0,0.0,0.0,0.0,0.0,0.0,0.0,0.0,0.0,0.0,0.0,0.0,0.0,0.0,0.0,0.0,0.0,0.0,0.0,0.0,0.0,0.0,0.0,0.0,0.0,0.0,0.0,0.0,0.0,0.0,0.0,0.0,0.0,0.0,0.0,0.0,0.0,0.0,0.0,0.0,0.0,0.0,0.0,0.0,0.0,0.0,0.0,0.0,0.0,0.0,0.0,0.0,0.0,0.0,0.0,0.0,0.0,0.0,0.0,0.0,0.0,0.0,0.0,0.0,0.0,0.0,0.0,0.0,0.0,0.0,0.0,0.0,0.0,0.0,0.0,0.0,0.0,0.0,2.9355,0.0,0.0,0.0,0.0,0.0,0.0,0.0,0.0,0.0,0.0,0.0,0.0,0.0,0.0,0.0,0.0,0.0,0.0,0.0,0.0,0.0,0.0,0.0,0.0,0.0,0.0,0.0,0.0,0.0,0.0,0.0,0.0,0.0,0.0,0.0,0.0,0.0,0.0,0.0,0.0,0.0,0.0,0.0,0.0,0.0,0.0,0.0,0.0,0.0,0.0,0.0,0.0,0.0,0.0,0.0,0.0,0.0,0.0,0.0,0.0,0.0,0.0,0.0,0.0,0.0,0.0,0.0,0.0,0.0,0.0,0.0,0.0,0.0,0.0,0.0,0.0,0.0,0.0,0.0,0.0,0.0,0.0,0.0,0.0,0.0,0.0,0.0,0.0,0.0,0.0,0.0,0.0,0.0,0.0,0.0,0.0,0.0,0.0,0.0,0.0,0.0,0.0,0.0,0.0,0.0,0.0,0.0,0.0,0.0,3.1403,3.1403,3.1403,3.205,3.3066,3.1912,3.1938,3.263,0.0,0.0,0.0,0.0,0.0,0.0,0.0,0.0,0.0,0.0,0.0,0.0,0.0,0.0,0.0,0.0,0.0,0.0,0.0,0.0,0.0,0.0,0.0,0.0,0.0,0.0,0.0,0.0,0.0,0.0,0.0,0.0,0.0,0.0,0.0,0.0,0.0,0.0,0.0,3.804,3.804,3.7958,3.7676,3.4505,0.0,0.0,0.0,0.0,0.0,0.0,0.0,0.0,0.0,0.0,0.0,0.0,0.0,0.0,0.0,0.0,0.0,0.0,0.0,0.0,0.0,0.0,0.0,0.0,0.0,0.0,0.0,0.0,0.0,0.0,0.0,0.0,0.0,0.0,0.0,0.0,0.0,0.0,0.0,0.0,0.0,0.0,0.0,3.1124,3.2428,0.0,0.0,0.0,0.0,0.0,0.0,0.0,0.0,0.0,0.0,0.0,0.0,0.0,0.0,3.2787,3.2787,3.3281,3.4262,3.4262,3.4262,3.4262,3.4262,3.436,3.4519,3.4336,0.0,3.2755,3.2392,0.0,0.0,0.0,0.0,0.0,0.0,0.0,0.0,0.0,0.0,0.0,0.0,0.0,0.0,0.0,0.0,0.0,0.0,0.0,0.0,0.0,0.0,0.0,0.0,0.0,0.0,0.0,0.0,0.0,0.0,0.0,0.0,0.0,0.0,0.0,0.0,3.8635,3.9099,3.9404,3.9404,3.9338,3.9143,3.7119,3.5588,3.4499,3.3953,0.0,0.0,0.0,0.0,0.0,0.0,0.0,0.0,0.0,0.0,0.0,0.0,0.0,0.0,0.0,0.0,0.0,0.0,0.0,0.0,0.0,0.0,0.0,0.0,0.0,0.0,0.0,0.0,0.0,0.0,0.0,0.0,0.0,0.0,0.0,0.0,0.0,0.0,0.0,3.2065,3.2545,3.3214,3.2923,3.2653,0.0,0.0,0.0,0.0,0.0,0.0,0.0,0.0,0.0,3.3749,3.3973,3.409,3.409,3.409,3.4348,3.4799,3.4799,3.4799,3.4799,3.4799,3.4799,3.4799,3.4799,3.447,3.387,3.3116,3.2064,3.0869,0.0,0.0,0.0,0.0,0.0,2.9456,0.0,0.0,0.0,0.0,0.0,0.0,0.0,0.0,0.0,0.0,0.0,0.0,0.0,0.0,0.0,3.752,0.0,0.0,0.0,0.0,0.0,0.0,0.0,0.0,0.0,0.0,0.0,4.035,4.035,4.0437,4.0612,4.0612,4.0532,4.036,3.9639,3.8126,3.6055,3.5656,3.4932,0.0,0.0,0.0,0.0,0.0,0.0,0.0,0.0,0.0,0.0,0.0,0.0,0.0,0.0,0.0,0.0,0.0,0.0,0.0,0.0,0.0,0.0,0.0,0.0,0.0,0.0,0.0,0.0,0.0,0.0,0.0,0.0,0.0,0.0,0.0,0.0,0.0,0.0,3.3489,3.3537,3.3669,3.3681,3.3681,0.0,0.0,0.0,0.0,0.0,0.0,3.4799,3.4799,3.4799,3.4799,3.4799,3.4799,3.4799,3.4799,3.4799,3.4799,3.4799,3.4799,3.4799,3.4799,3.4799,3.4799,3.4799,3.4799,3.4726,3.371,3.3116,3.2705,3.1658,3.1019,3.071,3.0876,3.0901,3.0861,0.0,0.0,0.0,0.0,0.0,0.0,0.0,0.0,0.0,0.0,0.0,0.0,0.0,0.0,3.7535,3.8101,3.8188,3.8202,0.0,0.0,0.0,0.0,0.0,3.916,0.0,0.0,0.0,4.1047,4.1047,4.1381,4.199,4.199,4.199,4.197,4.1678,4.0505,3.8754,3.7922,3.6975,3.6034,0.0,0.0,0.0,0.0,0.0,0.0,0.0,0.0,0.0,0.0,0.0,0.0,0.0,0.0,0.0,0.0,0.0,0.0,0.0,0.0,0.0,0.0,0.0,0.0,0.0,0.0,0.0,0.0,0.0,0.0,0.0,0.0,0.0,0.0,0.0,0.0,0.0,0.0,0.0,3.4667,3.4727,0.0,0.0,0.0,0.0,3.4763,3.4787,3.4799,3.4799,3.4799,3.4799,3.4799,3.4799,3.4799,3.4799,3.4799,3.4799,3.4799,3.4799,3.4799,3.4799,3.4799,3.4799,3.4799,3.4799,3.4799,3.4799,3.4726,3.3944,3.278,3.273,3.1887,3.0865,3.2202,3.2516,3.2465,0.0,0.0,0.0,0.0,0.0,0.0,0.0,0.0,0.0,0.0,0.0,0.0,0.0,3.7651,3.797,3.8188,3.8202,3.8202,3.8202,0.0,0.0,0.0,3.945,3.9987,4.0408,0.0,4.1497,4.1744,4.1744,4.186,4.2092,4.2092,4.2092,4.2092,4.1995,4.1601,4.092,3.9646,3.8536,3.7607,3.7539,3.6708,0.0,0.0,0.0,0.0,0.0,0.0,0.0,0.0,0.0,0.0,0.0,0.0,0.0,0.0,0.0,0.0,0.0,0.0,0.0,0.0,0.0,0.0,0.0,0.0,0.0,0.0,0.0,0.0,0.0,0.0,0.0,0.0,0.0,0.0,0.0,0.0,0.0,3.4787,3.4799,0.0,3.4799,3.4799,3.4799,3.4799,3.4799,3.4799,3.4799,3.4799,3.4799,3.4799,3.4799,3.4799,3.4799,3.4799,3.4799,3.4799,3.4799,3.4799,3.4799,3.4799,3.4799,3.4799,3.4799,3.4799,3.4799,3.4799,3.4519,3.4079,3.4079,3.3771,3.3388,3.3697,3.3783,3.3745,0.0,0.0,0.0,0.0,0.0,0.0,0.0,0.0,0.0,0.0,0.0,3.7389,3.7593,3.797,3.8202,3.8202,3.8202,3.8304,3.8522,0.0,0.0,0.0,4.0104,4.0742,4.1424,4.1874,4.2092,4.2092,4.2092,4.2092,4.2092,4.2092,4.2092,4.2092,4.2092,4.2092,4.203,4.1064,4.0073,3.9142,3.9076,3.8361,3.7304,0.0,0.0,0.0,0.0,0.0,0.0,0.0,0.0,0.0,0.0,0.0,0.0,0.0,0.0,0.0,0.0,0.0,0.0,0.0,0.0,0.0,0.0,0.0,0.0,0.0,0.0,0.0,0.0,0.0,0.0,0.0,0.0,0.0,0.0,0.0,3.4799,3.4799,3.4799,3.4799,3.4799,3.4799,3.4823,3.492,3.492,3.492,3.492,3.503,3.4981,3.4811,3.4896,3.4896,3.4799,3.4799,3.4799,3.4799,3.4799,3.4799,3.4799,3.4799,3.4799,3.4799,3.4799,3.4799,3.4799,3.4799,3.4799,3.4799,3.4799,3.4799,3.4787,3.4604,3.4531,3.4506,0.0,0.0,0.0,0.0,0.0,0.0,0.0,0.0,0.0,0.0,3.6925,3.7549,3.8144,3.8202,3.8202,3.8202,3.8202,3.8492,3.916,3.9218,0.0,0.0,4.0786,4.1439,4.2092,4.2092,4.2092,4.2092,4.2092,4.2092,4.2092,4.2092,4.2092,4.2092,4.2092,4.2092,4.2092,4.2092,4.1535,4.0625,4.0418,3.9754,3.8725,0.0,0.0,0.0,0.0,0.0,0.0,0.0,0.0,0.0,0.0,0.0,0.0,0.0,0.0,0.0,0.0,0.0,0.0,0.0,0.0,0.0,0.0,0.0,0.0,0.0,0.0,0.0,0.0,0.0,0.0,0.0,0.0,0.0,3.4799,3.4811,3.4799,3.4799,3.4799,3.4799,3.4799,3.4799,3.4932,3.5175,3.5199,3.5199,3.5199,3.544,3.5368,3.4823,3.5078,3.5078,3.4835,3.4799,3.4811,3.4823,3.4823,3.4835,3.4847,3.4847,3.4847,3.4847,3.4847,3.4847,3.4847,3.4847,3.4847,3.4847,3.4823,3.4799,3.4799,3.4799,3.4799,3.4762,0.0,0.0,0.0,0.0,0.0,0.0,0.0,0.0,0.0,0.0,3.7578,3.8028,3.8188,3.8202,3.8202,3.8202,3.8202,3.8492,3.916,0.0,0.0,4.1497,4.1729,4.1903,4.2092,4.2092,4.2092,4.2092,4.2092,4.2092,4.2092,4.2092,4.2092,4.2092,4.2092,4.2092,4.2092,4.2092,4.1933,4.1675,4.1633,4.0923,3.9842,0.0,0.0,0.0,0.0,0.0,0.0,0.0,0.0,0.0,0.0,0.0,0.0,0.0,0.0,0.0,0.0,0.0,0.0,0.0,0.0,0.0,0.0,0.0,0.0,0.0,0.0,0.0,0.0,0.0,0.0,0.0,0.0,3.5102,3.5102,3.4932,3.4799,3.4799,3.4799,3.4884,3.5078,3.5102,3.5126,3.5199,3.5368,3.5404,3.5199,3.544,3.5524,3.5368,3.544,3.5368,3.5102,3.5102,3.5199,3.5376,3.5376,3.558,3.5966,3.5966,3.5966,3.5966,3.5966,3.5966,3.5966,3.5966,3.5966,3.5893,3.5099,3.4799,3.4799,3.4799,3.4799,3.4859,0.0,0.0,0.0,0.0,0.0,0.0,0.0,0.0,0.0,0.0,3.7839,3.8202,3.8202,3.8202,3.8202,3.8202,3.8463,3.8884,3.9538,0.0,4.1279,4.2063,4.2092,4.2092,4.2092,4.2092,4.2092,4.2092,4.2092,4.2092,4.2092,4.2092,4.2092,4.2092,4.2092,4.2092,4.2092,4.2092,4.2092,4.2092,4.2092,4.1675,4.1008,4.0596,3.9302,3.7684,3.732,3.6485,3.5572,3.5416,0.0,0.0,0.0,0.0,0.0,0.0,0.0,0.0,0.0,0.0,0.0,0.0,0.0,0.0,0.0,0.0,0.0,0.0,0.0,0.0,0.0,0.0,0.0,0.0,3.544,3.5416,3.5524,3.5295,3.5102,3.4969,3.5078,3.5199,3.5344,3.5368,3.5416,3.5524,3.5668,3.5791,3.5879,3.6133,3.622,3.6113,3.6223,3.6088,3.5719,3.5682,3.5765,3.5954,3.5954,3.611,3.6411,3.6411,3.6411,0.0,3.6411,3.6411,3.6411,3.6411,3.6411,0.0,0.0,0.0,0.0,0.0,3.546,3.5508,0.0,0.0,0.0,0.0,0.0,0.0,0.0,0.0,0.0,0.0,0.0,3.8202,3.8202,3.8202,3.8202,3.8202,3.8812,3.9494,0.0,4.1395,4.2092,4.2092,4.2092,4.2092,4.2092,4.2092,4.2092,4.2092,4.2092,4.2092,4.2092,4.2092,4.2092,4.2092,4.2092,4.2092,4.2092,4.2092,4.2092,4.2092,4.2092,4.2092,4.1995,4.1113,4.0037,3.8903,3.8052,3.701,3.5978,3.5835,0.0,0.0,0.0,0.0,0.0,0.0,0.0,0.0,0.0,0.0,0.0,0.0,0.0,0.0,0.0,0.0,0.0,0.0,0.0,0.0,0.0,0.0,0.0,0.0,3.5884,3.5847,3.5992,3.5908,3.5704,3.5295,3.5452,3.562,3.5644,3.5694,3.5827,3.6078,3.6176,3.6412,3.6872,0.0,0.0,0.0,0.0,3.7043,3.6551,3.6537,3.6536,3.6546,3.6546,3.6556,3.6579,3.6579,3.6579,3.6579,3.6579,3.6579,3.6579,3.6579,3.6579,3.6567,3.6459,3.6411,3.6411,3.6411,3.6411,0.0,0.0,0.0,0.0,0.0,0.0,0.0,0.0,0.0,0.0,3.7883,3.813,3.8202,3.8202,3.8202,3.8202,3.8202,3.8812,3.9683,4.0829,4.1657,4.2092,4.2092,4.2092,4.2092,4.2092,4.2092,4.2092,4.2092,4.2092,4.2092,4.2092,4.2092,4.2092,4.2092,4.2092,4.2092,4.2092,4.2092,4.2092,4.2092,4.2092,4.2092,4.2071,4.1877,4.1156,4.0232,4.0037,3.9338,3.836,3.7392,3.7057,3.6871,3.5907,0.0,0.0,0.0,0.0,0.0,0.0,0.0,0.0,0.0,0.0,0.0,0.0,0.0,0.0,0.0,0.0,0.0,0.0,0.0,0.0,3.5944,3.6604,3.6813,3.6098,3.6792,3.6919,3.568,3.5572,3.5668,3.5884,3.6316,3.6588,3.6637,3.7242,3.7554,3.7456,3.7691,0.0,3.7755,3.7817,3.768,3.7369,3.7369,3.7365,3.7383,0.0,0.0,3.7699,3.7699,3.7699,3.7699,3.7699,3.7699,3.7699,3.7699,3.7699,3.7589,3.6735,3.6411,3.6411,3.6411,3.6411,3.6471,0.0,0.0,0.0,0.0,0.0,0.0,0.0,0.0,0.0,0.0,3.8202,3.8202,3.8202,3.8202,3.8333,3.8667,3.9596,4.0554,4.1541,4.1903,4.2092,4.2092,4.2092,4.2092,4.2092,4.2092,4.2092,4.2092,4.2092,4.2092,4.2092,4.2092,4.2092,4.2092,4.2092,4.2092,4.2092,4.2092,4.2092,4.2092,4.2092,4.2092,4.2092,4.2092,4.1493,4.0603,4.0603,4.0008,3.9121,3.8505,3.7975,3.7497,3.6896,3.6381,3.5967,0.0,0.0,0.0,0.0,0.0,0.0,0.0,0.0,0.0,0.0,0.0,0.0,0.0,0.0,3.5644,0.0,0.0,3.6427,3.6228,3.6989,3.7279,3.6323,3.6939,3.7086,3.5932,3.6167,3.6449,3.6593,3.708,3.7392,3.7392,3.7778,3.8078,3.8241,3.8392,3.863,3.9041,3.9053,3.9049,3.9051,3.9051,3.9042,3.9049,3.889,3.8876,3.8996,3.8873,3.8791,3.8791,3.8791,3.8791,3.8791,3.8791,3.8791,3.8743,3.8214,3.7673,3.7192,3.7192,3.7192,3.7228,0.0,0.0,0.0,0.0,0.0,0.0,0.0,0.0,0.0,0.0,3.8202,3.8202,3.8202,3.8202,3.8522,0.0,4.0423,4.1381,4.2049,4.2092,4.2092,4.2092,4.2092,4.2092,4.2092,4.2092,4.2092,4.2092,4.2092,4.2092,4.2092,4.2092,4.2092,4.2092,4.2092,4.2092,4.2092,4.2092,4.2092,4.2092,4.2092,4.2092,4.2092,4.2092,4.1612,4.0894,4.0894,4.0424,3.9708,3.9343,3.8698,3.8001,3.7648,3.7013,3.6358,3.6146,3.6074,0.0,0.0,0.0,0.0,0.0,0.0,0.0,0.0,3.5716,3.5692,3.5728,3.5752,3.5824,3.6027,3.6849,3.7281,3.6661,3.7678,3.8119,3.6897,3.7586,3.7773,3.6544,3.6965,3.7374,3.7374,3.7852,3.8165,3.8165,3.8379,3.8705,3.9195,3.9321,3.9644,4.0321,4.0319,4.0451,4.0669,4.0669,4.0641,4.0575,4.0302,4.0138,4.0084,3.9806,3.968,3.968,3.9637,3.9609,3.9609,3.9609,3.9609,3.9609,3.9609,3.9068,3.8313,3.8178,3.8096,3.8012,0.0,0.0,0.0,0.0,0.0,0.0,0.0,0.0,0.0,0.0,0.0,0.0,0.0,0.0,0.0,3.9886,4.067,4.1381,4.2049,4.2092,4.2092,4.2092,4.2092,4.2092,4.2092,4.2092,4.2092,4.2092,4.2092,4.2092,4.2092,4.2092,4.2092,4.2092,4.2092,4.2092,4.2092,4.2092,4.2092,4.2092,4.2092,4.2092,4.2092,4.2092,4.203,4.1933,4.1933,4.1856,4.1507,3.9796,3.9144,3.8742,3.7083,3.6476,3.6381,3.6358,3.6358,3.6346,3.631,3.631,3.631,3.631,3.6146,3.6027,0.0,3.6146,3.6027,3.6252,3.631,3.631,3.6346,3.7129,3.7609,3.7166,3.9396,4.0391,3.8154,4.0178,4.0888,3.8108,3.7852,3.7914,3.7914,3.8454,3.8806,3.8806,3.9685,4.0236,4.0325,4.0775,4.1062,4.1161,4.1161,4.1171,4.1207,4.1207,4.1087,4.0858,4.0804,4.0669,4.0439,4.0084,3.9959,3.9931,3.9708,3.9609,3.9609,3.9609,3.9609,3.9609,3.9609,3.9537,3.9369,3.89,3.8407,3.8012,0.0,0.0,0.0,0.0,0.0,0.0,0.0,0.0,0.0,0.0,0.0,0.0,0.0,0.0,3.9523,4.0046,4.1062,4.1802,4.2078,4.2092,4.2092,4.2092,4.2092,4.2092,4.2092,4.2092,4.2092,4.2092,4.2092,4.2092,4.2092,4.2092,4.2092,4.2092,4.2092,4.2092,4.2092,4.2092,4.2092,4.2092,4.2092,4.2092,4.2092,4.2092,4.2092,4.2092,4.2092,4.2092,0.0,0.0,4.0136,3.9064,3.827,3.7279,3.6405,3.6405,3.6405,3.6523,3.7059,3.6815,3.6523,3.7083,3.6734,3.6252,3.6358,3.6323,3.6252,3.6381,3.6645,3.7074,3.7687,3.8309,3.8901,0.0,4.046,4.09,3.9941,4.1193,4.1863,4.0973,4.0579,4.0019,3.907,4.0058,4.0632,4.0327,4.0713,4.0964,4.0964,4.1189,4.1453,4.1806,4.1806,4.1969,4.2296,4.2296,4.2241,4.2118,4.1925,4.1787,4.1635,4.1354,4.1118,4.0909,4.0652,4.0523,4.0523,4.0523,4.0523,4.0523,4.0523,4.0343,4.0006,3.9477,3.9128,3.8924,0.0,0.0,0.0,0.0,0.0,0.0,0.0,0.0,0.0,0.0,0.0,0.0,0.0,0.0,4.0104,4.0104,4.1323,4.2092,4.2092,4.2092,4.2092,4.2092,4.2092,4.2092,4.2092,4.2092,4.2092,4.2092,4.2092,4.2092,4.2092,4.2092,4.2092,4.2092,4.2092,4.2092,4.2092,4.2092,4.2092,4.2092,4.2092,4.2092,4.2092,4.2092,4.2092,4.2092,4.2092,4.2092,0.0,0.0,4.0752,3.9527,3.9285,3.8102,3.6792,3.6792,3.6604,3.6546,3.7222,3.6932,3.657,3.7245,3.6909,3.6455,3.6606,3.6607,3.6658,3.6808,3.7388,3.8015,3.8504,3.9491,4.0398,4.0841,4.1556,4.1833,4.1214,4.2407,4.305,4.2322,4.3095,4.2811,4.0597,4.1297,4.1721,4.1331,4.1453,4.1541,4.1541,4.1679,4.1969,4.2399,4.2411,4.26,4.3002,4.3002,4.3002,4.3002,4.275,4.2638,4.2638,4.234,4.2001,4.1606,4.139,4.1258,4.1213,4.1213,4.1213,4.1213,4.1213,4.0944,4.0571,4.0186,3.9862,3.9609,0.0,0.0,0.0,0.0,0.0,0.0,0.0,0.0,0.0,0.0,0.0,0.0,0.0,0.0,4.0104,4.0104,4.1323,4.2092,4.2092,4.2092,4.2092,4.2092,4.2092,4.2092,4.2092,4.2092,4.2092,4.2092,4.2092,4.2092,4.2092,4.2092,4.2092,4.2092,4.2092,4.2092,4.2092,4.2092,4.2092,4.2092,4.2092,4.2092,4.2092,4.2092,4.2092,4.2092,4.2092,0.0,0.0,0.0,4.0603,4.0396,3.9483,3.8554,3.7763,3.7763,3.7106,3.6405,3.6428,3.6428,3.6405,3.6428,3.6428,3.6556,3.706,3.7185,3.7336,3.7852,3.8796,3.923,3.8211,4.0415,4.1975,4.0628,4.2884,4.3933,4.1546,4.4363,4.515,4.1052,4.4746,4.6192,0.0,4.1645,4.1329,4.1315,4.1831,4.2187,4.2187,4.2663,4.2964,4.2977,4.2977,4.2989,4.3002,4.3002,4.3002,4.3002,4.2974,4.2974,4.2974,4.2638,4.2174,4.1606,4.1606,4.1447,4.1213,4.1213,4.1213,4.1213,4.1213,4.1201,4.116,4.1177,4.0487,3.9609,0.0,0.0,0.0,0.0,0.0,0.0,0.0,0.0,0.0,0.0,0.0,0.0,0.0,0.0,0.0,0.0,4.0916,4.1628,4.2063,4.2092,4.2092,4.2092,4.2092,4.2092,4.2092,4.2092,4.2092,4.2092,4.2092,4.2092,4.2092,4.2092,4.2092,4.2092,4.2092,4.2092,4.2092,4.2092,4.2092,4.2092,4.2092,4.2092,4.2092,4.2092,4.2092,4.2092,0.0,0.0,0.0,4.1717,4.1156,4.0439,3.9505,3.8988,3.8621,3.7978,3.7592,3.7338,3.7338,3.7586,3.7846,3.7846,3.7666,3.7695,3.8597,3.8237,3.7972,3.8893,3.9093,3.9227,3.9534,4.0711,4.1925,4.2845,4.3827,4.4599,4.487,4.6003,4.6602,4.602,4.6757,0.0,0.0,0.0,0.0,4.2506,4.2625,4.2725,4.2725,4.2901,4.3002,4.3002,4.3002,4.3002,4.3002,4.3002,4.3002,4.3002,4.3002,4.3002,4.2974,4.2666,4.2384,4.2187,4.2017,4.1745,4.1476,4.1476,4.1373,4.1213,4.1213,4.1213,4.1213,4.1213,4.0956,4.0655,0.0,0.0,0.0,0.0,0.0,0.0,0.0,0.0,0.0,0.0,0.0,0.0,0.0,0.0,0.0,0.0,0.0,4.1381,4.2049,4.2092,4.2092,4.2092,4.2092,4.2092,4.2092,4.2092,4.2092,4.2092,4.2092,4.2092,4.2092,4.2092,4.2092,4.2092,4.2092,4.2092,4.2092,4.2092,4.2092,4.2092,4.2092,4.2092,4.2092,4.2092,4.2092,0.0,0.0,0.0,0.0,4.2092,4.1675,4.1029,4.0438,3.9992,3.9527,3.8576,3.8191,3.8155,3.8546,3.8806,3.8972,3.8972,3.8744,3.8715,3.9237,3.8811,3.8565,3.9448,3.9696,3.9914,4.0585,4.1574,4.2808,4.4395,4.4626,4.5087,4.6398,4.677,4.7057,4.7502,4.7825,4.7572,0.0,0.0,0.0,4.3131,4.3002,4.3002,4.3002,4.3002,4.3002,4.3002,4.3002,4.3002,4.3002,4.3002,4.3002,4.3002,4.3002,4.3002,4.2974,4.2778,4.2553,4.234,4.2183,4.1871,4.1476,4.1476,4.1373,4.1213,4.1213,4.1213,4.1213,4.1213,4.1213,4.1213,0.0,0.0,0.0,0.0,0.0,0.0,0.0,0.0,0.0,0.0,0.0,0.0,0.0,0.0,0.0,0.0,0.0,0.0,4.199,4.2078,4.2092,4.2092,4.2092,4.2092,4.2092,4.2092,4.2092,4.2092,4.2092,4.2092,4.2092,4.2092,4.2092,4.2092,4.2092,4.2092,4.2092,4.2092,4.2092,4.2092,4.2092,4.2092,4.2092,4.2092,0.0,0.0,0.0,0.0,4.2092,4.2092,4.2071,4.203,4.2071,4.1374,4.0367,3.9568,3.9062,3.8961,3.991,3.9937,3.969,3.9642,3.9645,3.9587,3.9195,3.9058,3.9158,3.9687,4.0478,4.1119,4.1119,4.2813,4.4453,4.5122,4.5244,4.554,4.6232,4.6827,4.6834,0.0,0.0,0.0,0.0,0.0,0.0,4.324,0.0,4.3002,4.3002,4.3002,4.3002,4.3002,4.3002,4.3002,4.3002,4.3002,4.3002,4.3002,4.3002,4.3002,4.3002,4.3002,4.2678,4.2167,4.2126,4.1785,4.1242,4.1242,4.1213,4.1213,4.1213,4.1213,4.1213,4.1213,4.1213,4.1213,0.0,0.0,0.0,0.0,0.0,0.0,0.0,0.0,0.0,0.0,0.0,0.0,0.0,0.0,0.0,0.0,0.0,0.0,4.1308,4.1816,4.2092,4.2092,4.2092,4.2092,4.2092,4.2092,4.2092,4.2092,4.2092,4.2092,4.2092,4.2092,4.2092,4.2092,4.2092,4.2092,4.2092,4.2092,4.2092,4.2092,4.2092,4.2092,4.2092,0.0,0.0,0.0,0.0,4.2092,4.2092,4.2092,4.1598,4.1113,4.1856,4.0937,3.9755,4.0707,4.0913,4.0688,3.9944,4.0477,4.1071,4.0377,4.0499,4.0975,4.1661,4.1184,4.0638,4.0793,4.044,4.007,4.007,4.179,4.3393,4.3995,4.5396,0.0,4.7923,4.8187,0.0,4.8601,0.0,4.9139,4.7703,4.6802,0.0,0.0,4.3489,4.3002,4.3002,4.3002,4.3002,4.3002,4.3002,4.3002,4.3002,4.3002,4.3002,4.3002,4.3002,4.3002,4.3002,4.3002,4.2918,4.2762,4.2509,4.2199,4.1842,4.159,4.1361,4.1213,4.1213,4.1213,4.1213,4.1213,4.1213,4.1213,0.0,0.0,0.0,0.0,0.0,0.0,0.0,0.0,0.0,0.0,0.0,0.0,0.0,0.0,0.0,0.0,0.0,0.0,0.0,4.1729,4.2092,4.2092,4.2092,4.2092,4.2092,4.2092,4.2092,4.2092,4.2092,4.2092,4.2092,4.2092,4.2092,4.2092,4.2092,4.2092,4.2092,4.2092,4.2092,0.0,0.0,0.0,0.0,0.0,0.0,4.2092,4.2092,4.2092,4.2092,4.2092,4.1717,4.136,4.1933,4.1242,4.047,4.1808,4.1636,4.1053,4.1216,4.1412,4.1395,4.0884,4.1317,4.1938,4.2086,4.1629,4.1194,4.1194,4.0415,3.9981,4.0882,4.2012,4.3392,4.5218,4.6068,4.7109,4.8885,4.8705,4.8712,4.9601,4.9693,0.0,4.8827,4.7728,4.679,0.0,4.4193,4.3002,4.3002,4.3002,4.3002,4.3002,4.3002,4.3002,4.3002,4.3002,4.3002,4.3002,4.3002,4.3002,4.3002,4.3002,4.2918,4.2778,0.0,4.2271,4.1859,4.1692,4.1447,4.1213,4.1213,4.1213,4.1213,4.1213,4.1213,4.1213,0.0,0.0,0.0,0.0,0.0,0.0,0.0,0.0,0.0,0.0,0.0,0.0,0.0,0.0,0.0,0.0,0.0,0.0,0.0,0.0,4.2005,4.2092,4.2092,4.2092,4.2092,4.2092,4.2092,4.2092,4.2092,4.2092,4.2092,4.2092,4.2092,4.2092,4.2092,4.2092,4.2092,4.2092,4.2092,4.2092,4.2092,0.0,0.0,0.0,0.0,4.2092,4.2092,4.2016,4.1933,4.2051,4.2092,4.2086,4.2034,4.1867,4.1841,4.2632,4.1828,4.1074,4.266,4.2179,4.1194,4.1194,4.19,4.2341,4.1419,4.1194,4.1144,4.1032,4.0313,4.0275,4.2143,4.2622,4.3756,4.6967,4.6778,4.7054,4.9373,4.8852,4.8589,4.9571,4.9693,4.9693,4.9693,4.8664,4.7945,4.7793,4.4953,4.3225,4.3225,4.3085,4.3002,4.3002,4.3002,4.3002,4.3002,4.3002,4.3002,4.3002,4.3002,4.3052,4.3115,4.3115,4.2984,4.2765,0.0,0.0,4.194,4.1842,4.1682,4.1446,4.1418,4.1418,4.1418,4.1418,4.1418,4.1418,0.0,0.0,0.0,0.0,0.0,0.0,0.0,0.0,0.0,0.0,3.8202,3.8202,0.0,0.0,0.0,0.0,0.0,0.0,0.0,0.0,0.0,4.2078,4.2092,4.2092,4.2092,4.2092,4.2092,4.2092,4.2092,4.2092,4.2092,4.2092,4.2092,4.2092,4.2092,4.2092,4.2092,4.2092,4.2092,4.2092,4.2092,4.2092,0.0,0.0,0.0,0.0,4.2092,4.1577,4.0993,4.1814,4.2092,4.2055,4.171,4.2131,4.2632,4.2149,4.2408,4.2674,4.1803,4.1376,4.1194,4.1194,4.1344,4.1419,4.1244,4.1194,4.0957,4.0121,3.9813,3.9952,4.0757,4.162,4.303,4.5504,4.6478,4.7578,4.9445,4.9522,4.9473,4.9669,4.9693,4.9693,4.9693,4.8664,0.0,0.0,0.0,4.4411,4.4411,4.3504,4.3002,4.3002,4.3002,4.3002,4.3002,4.3002,4.3002,4.3002,4.3002,4.324,4.3664,4.3664,4.3874,4.4214,0.0,0.0,4.3717,4.3167,4.289,4.2831,4.2601,4.2513,4.2513,4.2513,4.2513,4.2513,0.0,0.0,0.0,0.0,0.0,0.0,0.0,3.7389,3.8202,3.8202,3.8202,3.8202,3.8202,3.8202,3.8202,0.0,0.0,0.0,0.0,0.0,0.0,0.0,0.0,0.0,4.0624,4.1064,4.1318,4.1318,0.0,4.1598,4.2092,4.2092,4.2092,4.2092,4.2092,4.2092,4.2092,4.2092,4.2092,4.2092,4.2092,4.2092,0.0,0.0,0.0,0.0,0.0,4.0596,4.0603,4.0589,4.1149,4.1889,4.2196,4.1972,4.1737,4.2431,4.2076,4.1433,4.1241,4.0819,4.0415,4.0415,4.0819,4.1194,4.1194,4.1194,4.1148,4.0978,4.0488,4.0444,4.1552,4.2655,4.403,4.6002,4.7218,4.8348,4.9533,4.9693,4.9693,4.9693,4.9693,4.9693,4.9693,4.9213,4.8664,4.8108,0.0,4.5675,4.3905,4.3295,4.3002,4.3002,4.3002,4.314,4.3401,4.3413,4.3551,4.3827,4.3827,4.3978,4.4229,4.4229,4.4351,4.4589,4.4457,0.0,4.3926,4.3578,4.3283,4.2986,4.2849,4.2789,4.2789,4.2789,4.2789,4.2789,0.0,0.0,0.0,0.0,0.0,0.0,0.0,3.7273,3.8057,3.8188,3.8202,3.8202,3.8202,3.8202,3.8127,0.0,0.0,0.0,0.0,0.0,0.0,0.0,0.0,0.0,0.0,0.0,0.0,4.0289,4.0504,0.0,0.0,0.0,0.0,0.0,4.2092,4.2092,4.2092,4.2092,4.1989,0.0,0.0,4.185,0.0,0.0,0.0,0.0,0.0,3.9527,3.9921,3.9373,4.0064,4.1299,4.2272,4.1832,4.117,4.2269,4.1384,4.0147,4.0718,4.0287,3.9697,3.9697,4.0287,4.092,4.1012,4.1051,4.1219,4.1802,4.1268,4.1091,4.2485,4.3492,4.4644,4.63,4.7504,4.8467,4.9215,4.9547,4.9693,4.9693,4.9693,4.9693,4.9693,4.9693,0.0,4.9562,0.0,0.0,4.407,4.4075,4.4,4.3734,4.3734,4.3808,4.3978,4.3978,4.4192,4.4589,4.4589,4.4665,4.4778,4.4778,4.4869,4.4953,4.4953,0.0,0.0,4.4065,4.3725,4.3216,4.3156,4.3126,4.3126,4.3126,4.3126,4.3126,0.0,0.0,0.0,0.0,0.0,0.0,0.0,3.6925,3.7593,3.813,3.8202,3.8202,3.8202,3.8202,3.7886,0.0,0.0,0.0,0.0,0.0,0.0,0.0,0.0,0.0,0.0,0.0,0.0,3.9329,4.0181,0.0,0.0,0.0,0.0,0.0,0.0,4.2092,4.2092,4.2092,0.0,0.0,0.0,0.0,0.0,0.0,0.0,0.0,0.0,3.8698,3.8183,3.8944,3.9375,3.9794,4.085,4.2063,4.2697,4.0649,4.0541,4.0882,4.0057,3.9762,3.9697,3.9697,3.9762,3.9965,4.0443,4.0556,4.072,4.1248,4.1293,4.143,4.2133,4.2343,4.2957,4.4661,4.5806,4.6888,4.8007,4.905,4.9693,4.9693,4.9693,4.9693,4.9693,4.9693,4.9517,4.9104,0.0,0.0,4.6961,4.7487,4.7293,4.6113,4.6085,4.5587,4.4556,4.4527,4.4539,4.4589,4.4589,4.4895,4.5409,4.5409,4.5686,4.612,0.0,0.0,0.0,4.5274,4.4939,4.4603,4.4295,4.4172,4.4172,4.4172,4.4172,4.4172,0.0,0.0,0.0,0.0,0.0,0.0,3.6214,3.6881,3.752,3.813,3.8202,3.8202,3.8202,3.8202,3.7848,3.6975,0.0,0.0,0.0,0.0,0.0,0.0,0.0,0.0,0.0,0.0,3.8351,3.8351,3.872,0.0,0.0,0.0,0.0,0.0,0.0,4.1758,4.1233,4.1835,0.0,0.0,0.0,0.0,0.0,0.0,0.0,0.0,0.0,0.0,3.7763,3.7589,3.8413,3.947,3.9243,4.0509,4.1887,4.0892,4.0453,4.0224,3.9813,3.9697,3.9697,3.9697,3.9936,4.0249,4.0437,4.075,4.1139,4.1718,4.1831,4.1995,4.2575,4.3229,4.3908,4.4589,4.5608,4.6698,4.7844,4.8388,4.8927,4.962,4.9693,4.9693,4.9693,0.0,5.039,5.0567,0.0,0.0,5.0481,4.911,4.7371,4.5387,4.6028,4.5998,4.5146,4.5146,4.5309,4.5606,4.5606,4.5761,4.5987,4.5987,4.61,4.6313,0.0,0.0,0.0,4.5453,4.5117,4.4779,4.444,4.4285,4.4285,4.4285,4.4285,4.4285,0.0,0.0,0.0,0.0,0.0,3.5375,3.6185,3.6707,3.7302,3.8101,3.8202,3.8202,3.8202,3.7962,3.7458,3.6576,3.6517,0.0,0.0,0.0,0.0,0.0,0.0,0.0,0.0,0.0,3.7216,3.7384,3.7648,3.8137,0.0,0.0,4.0181,4.0216,0.0,0.0,0.0,0.0,0.0,0.0,0.0,0.0,0.0,0.0,0.0,0.0,0.0,0.0,0.0,0.0,0.0,3.903,3.8451,3.9409,4.0769,4.0769,4.0249,3.9697,3.9697,3.9697,3.9697,3.9697,4.0111,4.0537,4.07,4.1164,4.1731,4.2311,4.2424,4.2549,4.2926,4.367,4.4206,4.4206,4.5101,4.6202,4.7331,4.7793,4.8413,4.9571,4.9882,4.9925,4.9722,5.0477,5.1222,5.1846,0.0,0.0,5.2334,5.0755,4.8872,4.6765,4.7514,4.7585,4.6807,4.6791,4.6984,4.7353,4.701,4.6845,4.6815,4.6451,4.6313,4.6313,0.0,0.0,0.0,4.5453,4.5117,4.4779,4.444,4.4285,4.4285,4.4285,4.4285,4.4285,0.0,0.0,0.0,0.0,0.0,0.0,3.6112,3.6315,3.678,3.8028,3.8202,3.8202,3.8202,3.7433,3.6557,3.5675,3.5615,0.0,0.0,0.0,0.0,0.0,0.0,0.0,0.0,0.0,3.5818,3.6405,3.7325,3.7808,3.7831,3.8787,3.921,3.9232,0.0,0.0,0.0,0.0,0.0,0.0,0.0,0.0,0.0,0.0,0.0,0.0,0.0,0.0,0.0,0.0,0.0,0.0,0.0,3.9271,3.9723,3.9723,3.9723,3.9697,3.9697,3.9697,3.9697,3.9697,4.0111,4.0637,4.1177,4.1756,4.2323,4.2876,4.3002,4.3002,4.3002,4.3002,4.303,4.303,4.396,4.5088,4.6176,4.728,4.8413,4.9571,5.0288,5.0434,4.9766,5.0859,5.1875,5.2539,0.0,0.0,5.1756,5.2808,5.2888,5.166,5.1633,5.1058,4.9873,4.9845,4.9858,4.9858,4.866,4.8094,4.8035,4.6845,4.6313,0.0,0.0,0.0,0.0,4.5453,4.5117,4.4779,4.444,4.4285,4.4285,4.4285,4.4285,4.4285,0.0,0.0,0.0,0.0,0.0,0.0,0.0,3.6693,3.7288,3.8086,3.8202,3.8202,3.8202,3.7943,3.7208,3.5715,3.5108,0.0,0.0,0.0,0.0,0.0,0.0,0.0,0.0,0.0,3.5794,3.6405,3.6698,3.6839,3.6862,3.7795,3.8251,3.826,3.8921,3.8832,0.0,0.0,0.0,0.0,0.0,0.0,0.0,0.0,0.0,0.0,0.0,0.0,0.0,0.0,0.0,0.0,0.0,0.0,0.0,3.9697,3.9697,3.9697,3.9697,3.9973,4.0262,4.0262,4.0953,4.1708,4.1884,4.2348,4.2788,4.2964,4.3002,4.3002,4.3002,4.3002,4.3252,4.4042,4.3808,4.4453,4.71,4.71,4.7562,4.9459,5.0288,5.0782,5.0989,0.0,5.2528,5.3167,0.0,0.0,5.2943,5.329,5.2582,5.0518,5.1264,5.1127,4.9915,4.9915,4.949,4.866,4.8284,4.7668,4.6862,4.6481,0.0,0.0,0.0,0.0,0.0,4.5787,4.5453,4.5117,4.4779,4.4501,4.4285,4.4285,4.4285,4.4285,0.0,0.0,0.0,0.0,0.0,0.0,0.0,3.7041,3.752,3.813,3.8202,3.8202,3.8202,3.7905,3.7136,3.5715,3.4855,0.0,0.0,0.0,0.0,0.0,0.0,0.0,0.0,3.5042,3.5581,3.6405,3.6405,3.6405,3.6405,3.6989,3.7268,3.7315,3.7874,3.7805,0.0,0.0,0.0,0.0,0.0,0.0,3.6405,0.0,0.0,0.0,0.0,0.0,0.0,0.0,0.0,0.0,0.0,0.0,0.0,0.0,3.9697,3.9697,3.9697,4.0099,4.0487,4.0487,4.1369,4.2213,4.2213,4.2612,4.3002,4.3002,4.3002,4.3141,4.356,4.3295,4.3504,4.5061,4.4384,4.467,4.7575,4.7396,4.7736,4.9845,5.0448,5.1044,0.0,5.2351,5.2859,0.0,0.0,0.0,5.3489,5.3489,5.281,5.132,5.1988,5.2015,5.1265,5.1265,5.0892,5.0126,4.9221,4.8384,4.7635,4.6708,0.0,0.0,0.0,0.0,0.0,4.5939,4.5666,4.5453,4.4994,4.4687,4.4495,4.4575,4.4616,4.464,0.0,0.0,0.0,0.0,0.0,0.0,0.0,3.7346,3.7578,3.813,3.8146,3.8108,3.8108,3.7323,3.6458,3.5588,0.0,0.0,0.0,0.0,0.0,0.0,0.0,0.0,3.4678,3.4703,3.5265,3.6405,3.6405,3.6405,3.6405,3.6405,3.6405,3.6405,3.6405,3.6405,3.6452,0.0,0.0,0.0,0.0,0.0,0.0,0.0,0.0,0.0,0.0,0.0,0.0,0.0,0.0,0.0,0.0,0.0,0.0,0.0,0.0,0.0,0.0,4.0162,4.0562,4.0626,4.1456,4.2263,4.2263,4.2637,0.0,4.3002,4.3002,4.3323,4.4384,4.378,4.3823,4.5965,4.5449,4.5595,4.7819,4.8165,4.8812,5.0498,5.0782,5.1305,5.2481,5.2641,5.2917,0.0,0.0,0.0,5.3489,5.3489,5.3489,5.3489,5.3489,5.3489,5.3489,5.3489,5.3462,5.3343,5.1086,4.9971,4.983,4.7576,0.0,0.0,0.0,0.0,0.0,4.5969,4.5842,4.5788,4.5166,4.4913,4.4949,4.5134,4.5188,4.5229,0.0,0.0,0.0,0.0,0.0,0.0,0.0,0.0,0.0,0.0,3.7625,3.7208,3.7208,3.6439,3.5581,0.0,0.0,0.0,0.0,0.0,0.0,0.0,0.0,0.0,3.4678,3.4703,3.5265,3.6405,3.6405,3.6405,3.6405,3.6405,3.6405,3.6405,3.6405,3.6405,3.6405,3.664,0.0,0.0,0.0,0.0,0.0,0.0,0.0,0.0,3.6405,3.6658,0.0,0.0,0.0,0.0,0.0,0.0,0.0,0.0,3.9697,3.9785,4.0212,0.0,4.1214,4.1695,4.2311,4.2813,0.0,4.2914,4.3002,4.3002,4.3002,4.3085,4.3351,4.3878,4.4751,4.6071,4.6097,4.6724,4.8976,4.9744,5.0233,5.0656,5.1552,5.2263,5.2568,5.3007,0.0,0.0,0.0,5.3489,5.3489,5.3489,5.3489,5.3489,5.3489,5.3489,5.3489,5.3489,5.3037,5.2123,5.1552,5.0796,4.9887,4.932,0.0,0.0,0.0,0.0,4.6271,4.6223,4.6279,4.642,4.6254,4.611,4.6049,4.6075,4.5933,4.5722,0.0,0.0,0.0,0.0,0.0,0.0,0.0,0.0,0.0,0.0,0.0,3.7342,3.6936,3.6478,0.0,0.0,0.0,0.0,0.0,0.0,0.0,0.0,0.0,3.3596,3.4678,3.4703,3.5265,3.6405,3.6405,3.6405,3.6405,3.6405,3.6405,3.6405,3.6405,3.6405,3.6405,3.6405,3.6405,0.0,3.6405,0.0,0.0,0.0,0.0,0.0,3.6405,3.6733,0.0,3.7814,3.8391,3.8994,0.0,0.0,0.0,0.0,3.9873,4.0187,4.0725,4.1089,4.144,4.2047,4.26,4.3002,4.3002,4.3002,4.3002,4.3002,4.3002,4.3323,4.4344,4.4615,4.5382,4.751,4.7434,4.7801,4.9878,5.0724,5.1106,5.1106,5.1987,5.2597,0.0,5.3152,0.0,0.0,0.0,5.3489,5.3489,5.3489,5.3489,5.3489,5.3489,5.3489,5.3489,5.3489,5.317,5.2514,5.1974,5.1361,5.0712,5.0168,4.9547,0.0,0.0,0.0,4.7941,4.7623,4.7559,4.761,4.7164,4.6965,4.6902,4.6797,4.6637,4.6513,0.0,0.0,0.0,0.0,0.0,0.0,0.0,0.0,0.0,0.0,0.0,0.0,0.0,0.0,0.0,0.0,0.0,0.0,0.0,0.0,0.0,0.0,3.3228,3.3684,3.4678,3.4778,3.5341,3.6405,3.6405,3.6405,3.6405,3.6405,3.6405,3.6405,3.6405,3.6405,3.6405,3.6405,3.6405,3.6405,3.6405,0.0,0.0,0.0,0.0,0.0,0.0,0.0,0.0,3.7952,3.8517,3.9107,3.9546,0.0,0.0,0.0,0.0,0.0,4.1265,4.144,4.1593,4.2173,4.2663,4.3002,4.3002,4.3002,4.3002,4.3002,4.3141,4.3823,4.5701,4.5582,4.6137,4.8976,4.8777,4.8841,5.0469,5.1222,5.1632,5.1744,5.2351,0.0,5.2743,0.0,0.0,0.0,0.0,5.3489,5.3489,5.3489,5.3489,5.3489,5.3489,5.3489,5.3489,5.3489,5.3489,5.3489,5.2461,5.1974,5.1947,5.092,5.0364,0.0,0.0,0.0,5.0006,4.9204,4.9018,4.9091,4.8106,4.7713,4.7711,4.7542,4.7455,4.7418,0.0,0.0,0.0,0.0,0.0,0.0,0.0,0.0,0.0,0.0,0.0,0.0,0.0,0.0,0.0,0.0,0.0,0.0,0.0,0.0,0.0,3.3759,3.3771,3.4073,3.469,3.5132,3.5707,3.6405,3.6405,3.6405,3.6405,3.6405,3.6405,3.6405,3.6405,3.6405,3.6405,3.6405,3.6405,3.6405,3.6405,0.0,0.0,0.0,0.0,0.0,0.0,0.0,0.0,3.8567,3.9132,3.9584,3.9672,0.0,0.0,0.0,0.0,0.0,4.1783,4.206,4.2185,4.2738,4.2939,4.3002,4.3002,4.3002,4.3002,4.3002,4.378,4.4534,4.4886,4.6347,4.7652,4.8173,4.8927,4.9729,5.0583,5.1222,5.1817,5.238,0.0,5.337,5.337,0.0,0.0,0.0,0.0,5.3489,5.3489,5.3489,5.3489,5.3489,5.3489,5.3489,5.3489,5.3489,5.3489,5.3489,5.3316,5.3223,5.3237,5.3037,5.238,0.0,0.0,5.1169,5.0632,4.9392,4.9501,5.0311,4.9089,4.8702,4.8869,4.8814,4.8636,4.8334,0.0,0.0,0.0,0.0,0.0,0.0,0.0,0.0,0.0,0.0,0.0,0.0,0.0,0.0,0.0,0.0,0.0,0.0,0.0,0.0,3.3633,3.3884,3.4474,3.4879,3.5142,3.537,3.5794,3.6405,3.6405,3.6405,3.6405,3.6405,3.6405,3.6405,3.6405,3.6405,3.6405,3.6405,3.6405,3.6405,0.0,0.0,0.0,0.0,0.0,0.0,0.0,0.0,0.0,0.0,3.9271,3.9697,3.9697,0.0,0.0,0.0,0.0,0.0,4.1959,4.2399,4.2688,4.2939,4.3449,4.3905,4.3905,4.4371,4.4778,4.4778,4.5208,4.5741,4.6373,4.7319,4.8248,4.9001,4.9777,5.0512,5.1277,5.1831,5.2368,0.0,0.0,5.3489,5.3489,0.0,0.0,0.0,0.0,0.0,5.3489,5.3489,5.3489,5.3489,5.3489,5.3489,5.3489,5.3489,5.3489,5.3489,5.3489,5.3489,5.3489,5.3489,5.3211,5.2703,0.0,5.3063,5.2797,5.2196,5.182,5.1579,5.0618,4.9901,4.9364,4.917,4.8747,4.8235,0.0,0.0,0.0,0.0,0.0,0.0,0.0,0.0,0.0,0.0,0.0,0.0,0.0,0.0,0.0,0.0,0.0,0.0,0.0,0.0,3.401,3.4274,3.5067,3.5495,3.5495,3.5644,3.5943,3.6405,3.6405,3.6405,3.6405,3.6405,3.6405,3.6405,3.6405,3.6405,3.6405,3.6405,3.6405,3.6405,0.0,0.0,0.0,0.0,0.0,0.0,0.0,0.0,0.0,0.0,0.0,0.0,0.0,0.0,0.0,4.0524,4.1076,4.1656,4.2223,4.2688,4.3002,4.3002,4.367,4.4357,4.4629,4.5355,4.5992,4.6254,4.6554,4.7035,4.7844,4.8288,4.8852,4.9926,5.0364,5.0888,5.186,5.2198,5.2655,0.0,0.0,0.0,0.0,0.0,0.0,0.0,0.0,0.0,5.3489,5.3489,5.3489,5.3489,5.3489,5.3489,5.3489,5.3489,5.3489,5.3489,5.3489,5.3489,5.3489,5.3489,5.3489,5.3544,5.42,5.4589,5.4699,5.4573,5.3977,5.3086,5.2278,5.1186,4.9982,4.9319,4.8747,4.8223,0.0,0.0,0.0,0.0,0.0,0.0,0.0,0.0,0.0,0.0,0.0,0.0,0.0,0.0,0.0,0.0,0.0,0.0,0.0,0.0,3.4339,3.5332,3.5458,3.5495,3.5495,3.6044,3.6367,3.6405,3.6405,3.6405,3.6405,3.6405,3.6405,3.6405,3.6405,3.6405,3.6405,3.6405,3.6405,3.6405,3.6405,0.0,0.0,0.0,0.0,0.0,0.0,0.0,0.0,0.0,0.0,0.0,0.0,0.0,4.0537,4.1089,4.1668,4.2248,4.2801,4.2977,4.3002,4.3002,4.3058,4.3406,4.4466,4.4751,4.5088,4.6097,4.7329,4.8195,4.8021,4.9075,4.999,5.0086,5.013,5.0584,5.1827,0.0,5.2125,0.0,0.0,0.0,0.0,0.0,0.0,0.0,0.0,0.0,5.3489,5.3489,0.0,5.3489,5.3489,5.3489,5.3489,5.3489,5.3489,5.3489,5.3489,5.3489,5.3489,5.3489,5.3489,5.3544,5.42,5.4836,5.5278,5.4743,5.4764,5.5064,5.3831,5.2539,5.1174,4.9649,4.9072,4.893,0.0,0.0,0.0,0.0,0.0,0.0,0.0,0.0,0.0,0.0,0.0,0.0,0.0,0.0,0.0,0.0,0.0,0.0,0.0,3.4838,3.5092,3.5483,3.5845,3.6056,3.6056,3.6281,3.6405,3.6405,3.6405,3.6405,3.6405,3.6405,3.6405,3.6405,3.6405,3.6405,3.6405,3.6405,3.6405,3.6405,3.6405,3.6405,0.0,0.0,0.0,0.0,0.0,0.0,0.0,0.0,3.9697,3.9697,3.9697,4.0074,4.06,4.1152,4.1731,4.2338,4.2851,4.3002,4.3002,4.3002,4.3002,4.3477,4.5289,4.6242,4.7074,4.8184,4.8987,0.0,0.0,4.9756,5.011,5.011,5.011,5.0613,5.2051,5.1866,5.2144,0.0,0.0,0.0,0.0,0.0,0.0,0.0,0.0,0.0,0.0,5.3489,0.0,5.3489,5.3489,5.3489,5.3489,5.3489,5.3489,5.3489,5.3489,5.3489,5.3489,5.3489,5.3489,5.3573,5.4618,5.5199,5.5434,5.6016,5.5908,5.5281,5.4008,5.3194,5.2662,5.2059,5.1562,5.1061,0.0,0.0,0.0,0.0,0.0,0.0,0.0,0.0,0.0,0.0,0.0,0.0,0.0,0.0,0.0,0.0,0.0,0.0,3.5299,3.5421,3.5583,3.5782,3.618,3.6405,3.6405,3.6405,3.6405,3.6405,3.6405,3.6405,3.6405,3.6405,3.6405,3.6405,3.6405,3.6405,3.6405,3.6405,3.6405,3.6405,3.6405,3.6405,0.0,0.0,0.0,0.0,0.0,0.0,0.0,0.0,3.9697,3.9722,3.9898,4.0311,4.0851,4.1403,4.1995,4.2607,4.3347,4.3268,4.3169,4.3878,4.3837,4.4208,4.6359,4.7215,4.8019,4.9508,4.9965,5.0135,5.0222,0.0,0.0,0.0,5.0441,5.0955,5.222,5.2117,5.2413,5.3747,0.0,0.0,0.0,0.0,0.0,0.0,0.0,0.0,0.0,5.3489,0.0,0.0,5.3489,5.3489,5.3489,5.3489,5.3489,5.3489,5.3489,5.3489,5.3489,5.3489,5.3631,5.3866,5.4952,5.5533,5.5808,5.6868,5.6794,5.5876,5.4604,5.4098,5.4038,5.3513,5.2984,5.2341,0.0,0.0,0.0,0.0,0.0,0.0,0.0,0.0,0.0,0.0,0.0,0.0,0.0,0.0,0.0,0.0,0.0,0.0,3.5527,3.5508,3.5782,3.638,3.6405,3.6405,3.6405,3.6405,3.6405,3.6405,3.6405,3.6405,3.6405,3.6405,3.6405,3.6405,3.6405,3.6405,3.6405,3.6405,3.6405,3.6405,3.6405,3.6405,3.648,0.0,0.0,0.0,0.0,0.0,0.0,0.0,3.9697,3.9785,4.0337,4.0876,4.1415,4.2022,4.2575,4.3252,4.4384,4.3878,4.356,4.5754,4.5661,4.5542,4.755,4.7329,4.7353,4.963,5.011,5.0183,5.0453,5.0501,0.0,5.076,5.1117,5.1626,5.2304,5.2522,5.2919,5.3805,0.0,0.0,0.0,0.0,0.0,0.0,0.0,0.0,0.0,5.3489,0.0,0.0,5.3489,5.3489,5.3489,5.3489,5.3489,5.3489,5.3489,5.3489,5.3489,5.3489,5.3878,5.4519,5.5155,5.5794,5.6461,5.7057,5.7303,5.7191,5.5905,5.5427,5.5222,5.3637,5.2832,5.2495,0.0,0.0,0.0,0.0,0.0,0.0,0.0,0.0,0.0,0.0,0.0,0.0,0.0,0.0,0.0,0.0,0.0,0.0,3.6577,3.6288,3.6218,3.6405,3.6405,3.6405,3.6405,3.6405,3.6405,3.6405,3.6405,3.6405,3.6405,3.6405,3.6405,3.6405,3.6405,3.6405,3.6405,3.6405,3.6405,3.6405,3.6405,3.6644,3.6984,0.0,0.0,0.0,0.0,0.0,0.0,0.0,0.0,0.0,4.0337,4.0876,4.1415,4.2022,4.2575,4.3085,4.3406,4.3823,4.4384,4.5195,4.5794,4.6606,4.8195,4.8231,4.8307,4.979,5.0246,5.0405,5.0501,5.0614,0.0,5.0361,0.0,5.1577,5.2065,5.2395,5.2919,5.3805,0.0,0.0,0.0,0.0,0.0,0.0,0.0,0.0,0.0,0.0,0.0,0.0,5.3489,5.3489,5.3489,5.3489,5.3489,5.3489,5.3489,5.3489,5.3489,5.3489,5.3878,5.4519,5.5155,5.5794,5.6461,5.7057,5.7303,5.7275,5.6893,5.6737,5.668,5.6193,5.5703,5.5089,0.0,0.0,0.0,0.0,0.0,0.0,0.0,0.0,0.0,0.0,0.0,0.0,0.0,0.0,0.0,0.0,0.0,0.0,0.0,3.6531,3.6405,3.6405,3.6405,3.6405,3.6405,3.6405,3.6405,3.6405,3.6405,3.6405,3.6405,3.6405,3.6405,3.6405,3.6405,3.6405,3.6405,3.6405,3.6405,3.643,3.662,3.6909,3.7261,0.0,0.0,0.0,0.0,0.0,0.0,0.0,0.0,0.0,4.0575,4.1039,4.1546,4.2834,4.3429,4.3905,4.4886,4.5302,4.5754,4.6904,4.7443,4.8027,4.9288,4.9474,4.9537,5.0135,5.0447,5.0591,5.0525,5.0647,0.0,5.0576,5.1098,0.0,0.0,5.2598,5.3151,5.3831,0.0,0.0,0.0,0.0,0.0,0.0,0.0,0.0,0.0,0.0,0.0,0.0,5.3489,5.3489,5.3489,5.3489,5.3489,5.3489,5.3489,5.3489,5.3489,5.3489,5.3982,5.4923,5.5794,5.6389,5.6795,5.7158,5.7303,5.7303,5.7303,5.7303,5.7303,5.7303,5.6908,5.6279,0.0,0.0,0.0,0.0,0.0,0.0,0.0,0.0,0.0,0.0,0.0,0.0,0.0,0.0,0.0,0.0,0.0,0.0,0.0,0.0,3.6405,3.6428,3.6428,3.6428,3.6405,3.6405,3.6405,3.6405,3.6405,3.6405,3.6405,3.6405,3.6405,3.6405,3.6405,3.6405,3.6405,3.6405,3.6443,3.6531,3.6997,3.7273,3.7474,3.8504,0.0,0.0,0.0,0.0,0.0,0.0,0.0,0.0,4.0964,4.1315,4.1731,4.3897,4.4629,4.5195,4.7483,4.7483,4.7406,4.979,4.9868,4.964,5.0603,5.0831,5.0775,5.0548,5.0671,5.0775,5.0581,5.0695,5.0902,5.1097,5.1497,0.0,0.0,0.0,5.3473,0.0,0.0,0.0,0.0,0.0,0.0,0.0,0.0,0.0,0.0,0.0,0.0,5.3489,5.3489,5.3489,5.3489,5.3489,5.3489,0.0,5.3489,5.3489,5.3489,5.3489,5.4212,5.5474,5.6752,5.7303,5.7303,5.7303,5.7303,5.7303,5.7303,5.7303,5.7303,5.7303,5.6908,5.6408,0.0,0.0,0.0,0.0,0.0,0.0,0.0,0.0,0.0,0.0,0.0,0.0,0.0,0.0,0.0,0.0,0.0,0.0,0.0,0.0,3.6476,3.6628,3.6651,3.6557,3.6405,3.6405,3.6405,3.6405,3.6405,3.6405,3.6405,3.6405,3.6405,3.6405,3.6405,3.6405,3.6405,3.6405,3.6632,3.7047,3.716,3.7738,3.8555,3.8806,3.917,0.0,0.0,0.0,0.0,0.0,0.0,0.0,4.0964,4.1315,4.1582,4.2979,4.3987,4.4859,4.5542,4.6852,4.8282,4.9239,5.0119,5.0831,5.1058,5.112,5.1003,5.0581,5.0828,5.105,5.0775,5.0941,5.1003,5.0701,5.1113,5.1552,0.0,0.0,0.0,0.0,0.0,0.0,0.0,0.0,0.0,0.0,0.0,0.0,5.3489,0.0,0.0,5.3489,5.3489,5.3489,5.3489,5.3489,5.3489,0.0,5.3489,5.3489,5.3489,5.3489,5.4212,5.5474,5.6752,5.7303,5.7303,5.7303,5.7303,5.7303,5.7303,5.7303,5.7303,5.7303,5.6908,5.6408,0.0,0.0,0.0,0.0,0.0,0.0,0.0,0.0,0.0,0.0,0.0,0.0,0.0,0.0,0.0,0.0,0.0,0.0,0.0,0.0,3.6664,3.6886,3.6769,3.6651,3.6557,3.6452,3.6405,3.6405,3.6405,3.6405,3.6405,3.6405,3.6405,3.6405,3.6405,3.6405,3.643,3.6658,3.6947,3.7261,3.7801,3.8366,3.8931,3.9195,3.9472,0.0,0.0,0.0,0.0,0.0,0.0,0.0,0.0,0.0,4.2003,4.3387,4.4221,4.5007,4.6437,4.7596,4.8656,4.9703,5.0603,5.1191,5.1191,5.1191,5.1135,5.0876,5.1041,5.112,5.0855,5.1011,5.1073,5.0695,5.0904,5.1282,0.0,0.0,0.0,0.0,0.0,0.0,0.0,0.0,0.0,0.0,0.0,5.3489,5.3489,5.3489,5.3489,5.3489,5.3489,5.3489,5.3489,5.3489,5.3489,5.3489,5.3489,5.3489,5.3503,5.3822,5.449,5.546,5.6447,5.7042,5.7303,5.7303,5.7303,5.7303,5.7303,5.7303,5.7303,5.7303,5.6908,5.6408,0.0,0.0,0.0,0.0,0.0,0.0,0.0,0.0,0.0,0.0,0.0,0.0,0.0,0.0,0.0,0.0,0.0,0.0,0.0,0.0,0.0,3.7038,3.6862,3.6745,3.6651,3.6523,3.6428,3.6405,3.6428,3.6428,3.6405,3.6405,3.6405,3.6405,3.6405,3.6455,3.6581,3.707,3.7372,3.7636,3.8592,3.9032,3.9158,3.9547,0.0,0.0,0.0,0.0,0.0,0.0,0.0,0.0,0.0,0.0,4.2505,4.3984,4.4547,4.5248,4.7763,4.8607,4.9141,5.0531,5.0988,5.1144,5.1191,5.1167,5.1144,5.1191,5.1191,5.112,5.0917,5.1035,5.1097,5.0799,5.0751,5.1043,5.1887,0.0,0.0,0.0,0.0,0.0,0.0,0.0,0.0,0.0,0.0,5.3489,5.3489,5.3489,5.3489,5.3489,5.3489,5.3489,5.3489,5.3489,5.3489,5.3489,5.3489,5.3489,5.3503,5.4055,5.4734,5.5445,5.6113,5.6752,5.7303,5.7303,5.7303,5.7303,5.7303,5.7303,5.7303,5.7247,5.6879,5.6408,0.0,0.0,0.0,0.0,0.0,0.0,0.0,0.0,0.0,0.0,0.0,0.0,0.0,0.0,0.0,0.0,0.0,0.0,0.0,0.0,0.0,3.6769,3.6932,3.6851,3.6452,3.6581,3.6557,3.6405,3.6557,3.6557,3.6405,3.6405,3.6405,3.6405,3.6405,3.6645,3.7097,3.7426,3.8106,3.9031,3.9183,3.9512,3.993,0.0,0.0,0.0,0.0,0.0,0.0,0.0,4.0061,0.0,0.0,0.0,4.2341,4.302,4.3932,4.5034,4.6554,4.8692,5.0579,5.1035,5.0988,5.0917,5.1144,5.1011,5.0917,5.1144,5.1191,5.1191,5.1144,5.1167,5.1065,5.0605,5.0534,5.088,5.1862,5.1841,0.0,0.0,0.0,0.0,0.0,0.0,0.0,0.0,5.3489,5.3489,5.3489,5.3489,5.3489,5.3489,5.3489,5.3489,5.3489,5.3489,5.3489,5.3489,5.3489,5.3489,5.3489,5.3576,5.4299,5.5445,5.6113,5.6752,5.7303,5.7303,5.7303,5.7303,5.7303,5.7303,5.7275,5.7035,5.6723,5.638,0.0,0.0,0.0,0.0,0.0,0.0,0.0,0.0,0.0,0.0,0.0,0.0,0.0,0.0,0.0,0.0,0.0,0.0,0.0,0.0,0.0,3.7168,3.7261,3.7168,3.6805,3.6722,3.6675,3.6557,3.6675,3.6651,3.6557,3.6557,3.6523,3.6417,3.6874,3.7213,3.7478,3.822,3.8827,3.9322,3.9639,4.0134,4.0642,0.0,0.0,0.0,0.0,0.0,0.0,0.0,0.0,4.0989,4.124,0.0,0.0,0.0,4.3351,4.418,4.6175,4.8702,5.0831,5.0964,5.0988,5.1058,5.1167,5.112,5.1058,5.1167,5.1191,5.1191,5.1191,5.1191,5.1041,5.0572,5.0501,5.0798,5.1666,5.1801,0.0,0.0,0.0,0.0,0.0,0.0,0.0,0.0,5.3489,5.3489,5.3489,5.3489,5.3489,5.3489,5.3489,5.3489,5.3489,5.3489,5.3489,5.3489,5.3489,5.3489,5.3489,5.3489,5.4212,5.5431,5.5721,5.6403,5.7303,5.7303,5.7303,5.7303,5.7303,5.7303,5.7275,5.6993,5.6694,5.6351,0.0,0.0,0.0,0.0,0.0,0.0,0.0,0.0,0.0,0.0,0.0,0.0,0.0,0.0,0.0,0.0,0.0,0.0,0.0,0.0,0.0,3.7505,3.7505,3.7377,3.7121,3.6968,3.6862,3.6815,3.6862,3.6862,3.6815,3.6815,3.6798,3.6833,3.7346,3.7749,3.8103,3.9065,3.9536,3.9676,4.0375,4.102,0.0,0.0,0.0,0.0,0.0,0.0,0.0,0.0,0.0,0.0,0.0,4.2095,0.0,0.0,0.0,4.3974,4.6475,4.8628,5.0278,5.0618,5.0861,5.1017,5.1017,5.105,5.1097,5.1097,5.1144,5.1191,5.1191,5.1191,5.1041,5.0572,5.0501,5.0773,5.1591,5.1816,0.0,0.0,0.0,0.0,0.0,0.0,0.0,0.0,5.3489,5.3489,5.3489,5.3489,5.3489,5.3489,5.3489,5.3489,5.3489,5.3489,5.3489,5.3489,5.3489,5.3489,5.3489,5.3489,5.4098,5.5184,5.5344,5.6041,5.7086,5.7245,5.7303,5.7303,5.7303,5.7303,5.7275,5.6993,5.6694,5.6351,0.0,0.0,0.0,0.0,0.0,0.0,0.0,0.0,0.0,0.0,0.0,0.0,0.0,0.0,4.1881,4.1709,4.0972,3.9752,3.7979,3.7877,3.7785,3.7505,3.7505,0.0,3.7121,3.733,3.733,3.7085,3.733,3.733,3.7085,3.7085,3.7379,3.7906,3.7691,3.8193,3.9258,0.0,0.0,0.0,0.0,0.0,0.0,0.0,0.0,0.0,0.0,0.0,0.0,0.0,0.0,0.0,0.0,0.0,4.3002,0.0,0.0,0.0,4.7636,4.8407,4.8859,5.0168,5.0525,5.0548,5.0548,5.0671,5.0831,5.0831,5.1011,5.1191,5.1191,5.1191,5.1041,5.0572,5.0501,5.0846,5.1852,5.1776,5.218,0.0,0.0,0.0,0.0,0.0,0.0,0.0,5.3489,5.3489,5.3489,5.3489,5.3489,5.3489,5.3489,5.3489,5.3489,5.3489,5.3489,5.3489,5.3489,5.3489,5.3489,5.3489,5.3892,5.4589,5.5155,5.5808,5.6505,5.7071,5.7303,5.7303,5.7303,5.7303,5.7275,5.6993,5.6694,5.6351,0.0,0.0,0.0,0.0,0.0,0.0,0.0,0.0,0.0,0.0,0.0,0.0,0.0,4.2476,4.197,4.1902,4.1106,4.0065,3.8828,3.9304,3.9259,3.8413,3.8513,3.8196,3.7377,3.8053,3.8076,3.7366,3.8621,3.8599,3.739,3.8326,3.9217,3.9951,3.9045,3.9074,3.9858,4.038,0.0,0.0,0.0,0.0,0.0,0.0,0.0,0.0,0.0,0.0,0.0,0.0,0.0,0.0,0.0,0.0,0.0,4.389,4.4384,4.5248,4.7737,4.8407,4.8735,5.0159,5.0501,5.0534,5.0647,5.0647,5.0686,5.0988,5.0988,5.0941,5.0941,5.1097,5.1041,5.0572,5.0501,5.0773,5.1641,5.1816,5.2308,0.0,0.0,0.0,0.0,0.0,0.0,0.0,0.0,5.3489,5.3489,5.3489,5.3489,5.3489,5.3489,5.3489,5.3489,5.3489,5.3489,5.3489,5.3489,5.3489,5.3489,5.3489,5.3619,5.3936,5.4966,5.5794,5.6461,5.7057,5.7303,5.7303,5.7303,5.7303,5.7247,5.6751,5.6494,5.6322,0.0,0.0,0.0,0.0,0.0,0.0,0.0,0.0,0.0,0.0,0.0,0.0,0.0,0.0,4.2333,4.2032,4.1421,4.0667,3.9724,4.0246,4.026,3.9489,3.9607,3.9321,3.8558,3.8937,3.8945,3.8535,3.9518,3.9496,3.8571,3.9776,4.0781,4.1535,4.0541,4.039,0.0,0.0,0.0,4.0807,0.0,0.0,4.3541,0.0,0.0,0.0,0.0,0.0,0.0,0.0,0.0,0.0,0.0,0.0,0.0,0.0,0.0,4.5302,4.808,4.856,4.8585,4.9902,5.0294,5.0414,5.0537,5.0576,5.0662,5.0923,5.0955,5.0917,5.0831,5.0964,5.0908,5.0438,5.0453,5.0676,5.1224,5.1634,5.2209,0.0,0.0,0.0,0.0,0.0,0.0,0.0,0.0,0.0,5.3489,5.3489,5.3489,5.3489,5.3489,5.3489,5.3489,5.3489,5.3489,5.3489,5.3489,5.3489,5.3503,5.3721,5.3849,5.3895,5.5199,5.5866,5.6142,5.6969,5.7303,5.7303,5.7303,5.7303,5.7247,5.6751,5.6494,5.6322,0.0,0.0,0.0,0.0,0.0,0.0,0.0,0.0,0.0,0.0,0.0,0.0,0.0,0.0,0.0,4.2073,4.2032,4.1645,4.071,4.0667,4.0667,4.0646,4.0646,4.0646,4.0603,3.9992,3.9978,4.0603,3.9999,4.0013,4.0631,4.1336,4.1992,4.255,4.2157,4.2178,4.2501,0.0,4.2075,4.1259,0.0,4.5175,4.4406,0.0,0.0,0.0,4.5148,4.5221,0.0,0.0,0.0,0.0,0.0,0.0,0.0,0.0,0.0,0.0,0.0,0.0,0.0,4.941,4.9902,5.0086,5.011,5.0442,5.0728,5.0548,5.0867,5.1097,5.0831,5.0784,5.0656,5.0144,5.0318,5.0529,5.0682,5.1222,5.186,5.2525,0.0,0.0,0.0,0.0,0.0,0.0,5.3489,5.3489,5.3489,5.3489,5.3489,5.3489,5.3489,5.3489,5.3489,5.3489,5.3489,5.3489,5.3489,5.3503,5.3547,5.4185,5.4504,5.4591,5.5866,5.6041,5.5533,5.6781,5.7303,5.7303,5.7303,5.7303,5.7275,5.6993,5.6666,5.6351,0.0,0.0,0.0,0.0,0.0,0.0,0.0,0.0,0.0,0.0,0.0,0.0,0.0,0.0,4.2955,4.2073,4.2578,4.2557,4.1665,4.2202,4.2263,4.1645,4.1624,4.1296,4.0625,4.1082,4.1089,4.0603,4.1726,4.1937,4.1343,4.261,4.3581,4.4229,4.3825,4.4083,4.4725,4.2612,0.0,4.316,4.4261,4.4854,0.0,0.0,0.0,0.0,0.0,4.6851,0.0,0.0,4.6699,4.5801,0.0,0.0,0.0,0.0,0.0,0.0,4.8987,0.0,0.0,0.0,0.0,0.0,5.0062,5.0047,5.0096,5.0414,5.0462,5.0385,5.0313,5.0447,5.0423,4.9902,5.0038,5.0393,5.0851,5.1308,5.186,5.2525,0.0,0.0,0.0,0.0,0.0,0.0,5.3489,5.3489,5.3489,5.3489,5.3489,5.3489,5.3489,5.3489,5.3489,5.3489,5.3489,5.3489,5.3489,5.3735,5.4214,5.4429,5.4749,5.5213,5.6041,5.6302,5.6186,5.6984,5.7303,5.7303,5.7303,5.7303,5.7247,5.6723,5.6494,5.6322,0.0,0.0,0.0,0.0,0.0,0.0,0.0,0.0,0.0,0.0,0.0,0.0,0.0,0.0,4.311,4.2578,4.301,4.3076,4.2578,4.3016,4.3076,4.2557,4.2537,4.2298,4.1734,4.2015,4.2152,4.2145,4.2948,4.3268,4.3177,4.4316,4.508,0.0,4.5084,4.5485,0.0,0.0,0.0,0.0,4.5144,0.0,0.0,4.6399,4.7273,0.0,0.0,0.0,4.8306,4.9027,4.857,0.0,0.0,0.0,0.0,0.0,0.0,0.0,0.0,0.0,0.0,0.0,0.0,0.0,5.0038,4.999,4.9951,5.027,5.0294,5.0246,5.011,5.0246,5.027,5.0062,4.999,5.0058,5.0412,5.1108,5.1733,5.2136,0.0,0.0,0.0,5.3489,5.3489,5.3489,5.3489,5.3489,5.3489,5.3489,5.3489,5.3489,5.3489,5.3489,5.3489,5.3489,5.3489,5.3489,5.3764,5.4113,5.4504,5.5068,5.5489,5.5866,5.6505,5.6781,5.681,5.7158,5.7303,5.7303,5.7303,5.7303,5.7219,5.6623,5.6408,5.6322,0.0,0.0,0.0,0.0,0.0,0.0,0.0,0.0,0.0,0.0,4.329,4.329,0.0,0.0,0.0,0.0,4.329,4.329,4.329,4.329,4.329,4.329,4.3364,4.3409,4.3409,4.296,4.3274,4.4401,4.3868,4.4227,4.5424,4.6016,0.0,0.0,0.0,0.0,0.0,0.0,0.0,4.4899,4.6565,4.6779,0.0,0.0,4.746,0.0,4.8515,4.9163,5.0126,5.0629,5.0442,0.0,0.0,0.0,0.0,0.0,4.8097,0.0,0.0,0.0,0.0,0.0,0.0,0.0,5.0014,5.0062,5.0062,5.0062,5.0246,5.0342,5.011,5.0062,5.0135,5.0366,5.0014,4.9693,4.9756,5.0768,5.1516,5.1588,5.2688,0.0,5.3474,5.3489,5.3489,5.3489,5.3489,5.3489,5.3489,5.3489,5.3489,5.3489,5.3489,5.3489,5.3489,5.3489,5.3489,5.3503,5.4197,5.4546,5.4635,5.5866,5.6447,5.6534,5.7071,5.7303,5.7303,5.7303,5.7303,5.7303,5.7303,5.7303,5.7219,5.6652,5.6437,5.6322,0.0,0.0,0.0,0.0,0.0,0.0,0.0,0.0,0.0,0.0,4.329,4.329,0.0,0.0,0.0,0.0,4.329,4.329,4.329,4.329,4.329,4.329,4.3818,4.4102,4.4102,4.4511,4.4876,4.5095,4.499,4.5334,4.6106,4.6241,0.0,0.0,0.0,0.0,0.0,0.0,0.0,4.7481,4.7061,0.0,4.7867,4.8499,4.9193,4.9814,4.9822,5.03,5.0933,0.0,5.0167,4.9249,0.0,0.0,0.0,0.0,0.0,0.0,0.0,0.0,0.0,0.0,0.0,0.0,4.9781,4.9781,4.9781,4.9781,4.9829,4.9829,4.9805,4.9781,4.9805,4.9854,4.9781,4.9781,4.999,5.0513,5.1048,5.153,5.2296,0.0,5.3457,5.3489,5.3489,5.3489,5.3489,5.3489,5.3489,5.3489,5.3489,5.3489,5.3489,5.3489,5.3489,5.3489,5.3489,5.3503,5.4197,5.4736,5.5257,5.6055,5.6665,5.7129,5.7245,5.7303,5.7303,5.7303,5.7303,5.7303,5.7303,5.7303,5.7247,5.6922,5.6637,5.6351,0.0,0.0,0.0,0.0,0.0,0.0,0.0,0.0,4.329,4.329,4.3594,4.3803,0.0,0.0,0.0,0.0,0.0,0.0,0.0,4.4296,4.4296,4.4296,4.4631,4.4811,4.4811,4.5125,4.5469,4.5813,4.5813,4.6136,4.6794,4.6794,0.0,0.0,0.0,4.7309,4.7324,0.0,4.7982,4.826,4.774,0.0,4.8873,4.9508,4.9934,5.024,5.0592,5.0907,5.1167,5.0878,5.0364,0.0,0.0,4.9327,4.9061,0.0,4.936,4.9693,0.0,0.0,0.0,4.9693,0.0,0.0,0.0,4.9693,4.9693,4.9693,4.9693,4.9693,4.9693,4.9693,4.9693,4.9693,4.9693,4.9756,4.9878,5.0348,5.0927,5.1516,5.218,0.0,5.3457,5.3489,5.3489,5.3489,5.3489,5.3489,5.3489,5.3489,5.3489,5.3489,5.3489,5.3489,5.3489,5.3489,5.3689,5.3996,5.4635,5.5286,5.5924,5.6563,5.7013,5.7303,5.7303,5.7303,5.7303,5.7303,5.7303,5.7303,5.7303,5.7303,5.7247,5.6808,5.6552,5.6351,0.0,0.0,0.0,0.0,0.0,0.0,0.0,0.0,4.3429,4.3549,4.4092,4.4496,0.0,0.0,0.0,0.0,0.0,0.0,0.0,0.0,4.5289,4.5289,4.5424,4.5484,4.5484,4.5618,4.5963,4.6495,4.6495,4.6764,4.7309,4.7309,0.0,0.0,0.0,4.7369,4.7534,0.0,0.0,4.8671,0.0,4.8985,4.9546,5.0159,5.0398,5.0473,5.1011,5.1191,5.1167,5.0964,0.0,5.0581,5.0704,5.0298,0.0,0.0,0.0,0.0,0.0,0.0,0.0,0.0,0.0,4.9693,0.0,0.0,0.0,4.9693,4.9693,4.9693,4.9693,4.9693,4.962,4.9374,0.0,0.0,0.0,5.0013,0.0,5.1352,5.2006,0.0,5.3268,5.3442,5.3489,5.3489,5.3489,5.3489,5.3489,5.3489,5.3489,5.3489,5.3489,5.3489,5.3489,5.3489,5.3849,5.4504,5.5126,5.5765,5.6432,5.7028,5.7303,5.7303,5.7303,5.7303,5.7303,5.7303,5.7303,5.7303,5.7303,5.7303,5.7247,5.6737,5.6494,5.6322,4.329,4.329,0.0,0.0,4.329,0.0,0.0,0.0,4.3847,4.4369,4.4868,0.0,0.0,0.0,0.0,0.0,0.0,0.0,4.5664,0.0,0.0,4.5289,4.5873,4.6196,4.6196,4.677,4.7115,4.7189,4.7189,4.7234,4.7309,0.0,0.0,0.0,4.7309,4.7623,4.8199,0.0,4.8955,0.0,4.9971,5.0039,0.0,5.0832,5.1086,5.1101,5.1161,5.1191,5.1191,0.0,5.0964,5.0751,0.0,5.0303,0.0,0.0,0.0,0.0,0.0,0.0,0.0,0.0,4.9693,0.0,0.0,0.0,4.9693,4.9693,0.0,0.0,0.0,0.0,0.0,0.0,0.0,0.0,4.8183,4.9054,5.0056,5.0724,5.1338,0.0,0.0,5.3196,5.3489,5.3489,5.3489,5.3489,5.3489,5.3489,5.3489,5.3489,5.3489,5.3489,5.3489,5.3489,5.3849,5.4504,5.5126,5.5765,5.6432,5.7028,5.7303,5.7303,5.7303,5.7303,5.7303,5.7303,5.7303,5.7303,5.7303,5.7303,5.7303,5.7219,5.6851,5.6408,4.3557,4.3404,0.0,0.0,4.3917,0.0,0.0,0.0,4.5127,4.5385,4.5923,0.0,0.0,0.0,0.0,0.0,0.0,4.681,0.0,0.0,0.0,0.0,4.6741,0.0,4.6869,4.716,4.7309,4.7309,4.7309,4.7309,4.7309,0.0,0.0,0.0,4.7878,0.0,4.8902,0.0,4.971,0.0,0.0,0.0,0.0,5.1086,5.1191,5.1191,5.1191,5.1191,5.1191,0.0,5.0932,0.0,0.0,0.0,0.0,0.0,0.0,0.0,0.0,0.0,0.0,0.0,0.0,0.0,0.0,0.0,4.9693,0.0,0.0,0.0,0.0,0.0,0.0,0.0,4.9345,0.0,0.0,0.0,4.994,0.0,0.0,0.0,0.0,0.0,0.0,0.0,5.3489,5.3489,5.3489,5.3489,5.3489,5.3489,5.3489,5.3489,5.3489,5.3489,5.3996,5.5039,5.5286,5.5939,5.694,5.7187,5.7303,5.7303,5.7303,5.7303,5.7303,5.7303,5.7303,5.7303,5.7303,5.7303,5.7275,5.712,5.678,5.6408,0.0,0.0,0.0,0.0,0.0,0.0,0.0,0.0,0.0,0.0,0.0,0.0,4.7257,4.7592,0.0,0.0,0.0,4.7794,0.0,0.0,4.7574,0.0,0.0,0.0,0.0,0.0,4.7309,4.7309,4.7309,4.7309,4.7309,0.0,0.0,0.0,0.0,4.8947,4.9568,0.0,5.0323,5.0533,5.0996,5.1191,5.1191,5.1191,5.1191,5.1191,5.1191,5.1191,5.1191,5.1191,5.0923,0.0,5.0979,0.0,0.0,0.0,0.0,0.0,4.9829,0.0,0.0,0.0,0.0,0.0,0.0,0.0,0.0,0.0,0.0,0.0,0.0,0.0,0.0,0.0,0.0,4.9577,0.0,4.9475,0.0,0.0,0.0,0.0,0.0,0.0,0.0,5.3489,5.3489,5.3489,5.3489,5.3489,5.3489,5.3489,5.3489,5.3489,5.3489,5.3689,5.4301,5.5402,5.5605,5.6258,5.7303,5.7303,5.7303,5.7303,5.7303,5.7303,5.7303,5.7303,5.7303,5.7303,5.7303,5.7303,5.7275,5.7092,5.6808,5.6552,4.6183,4.5524,0.0,0.0,0.0,0.0,0.0,0.0,0.0,0.0,0.0,0.0,0.0,0.0,0.0,0.0,0.0,4.8265,4.8265,0.0,4.7709,0.0,0.0,0.0,0.0,0.0,0.0,4.7309,4.7309,4.7309,4.7309,4.7952,0.0,0.0,4.8977,4.9598,5.0166,5.0181,5.0578,5.1161,5.1191,5.1191,5.1191,0.0,5.1191,5.1191,5.1191,0.0,0.0,5.1191,5.1026,0.0,0.0,0.0,0.0,0.0,0.0,0.0,0.0,0.0,0.0,4.9756,0.0,0.0,0.0,0.0,4.9693,0.0,0.0,0.0,0.0,0.0,0.0,0.0,0.0,0.0,0.0,0.0,0.0,0.0,0.0,0.0,0.0,0.0,5.3489,5.3489,5.3489,5.3489,5.3489,5.3489,5.3489,5.3489,5.3489,5.3489,5.3489,5.4127,5.4792,5.5416,5.607,5.6708,5.7303,5.7303,5.7303,5.7303,5.7303,5.7303,5.7303,5.7303,5.7303,5.7303,5.7303,5.7303,5.7303,5.7303,5.712,5.688,0.0,0.0,0.0,0.0,0.0,0.0,0.0,4.7957,0.0,0.0,0.0,0.0,0.0,0.0,4.8349,0.0,0.0,4.8286,4.8286,4.8028,0.0,0.0,0.0,4.7381,0.0,0.0,0.0,0.0,0.0,4.8199,4.8633,4.8858,4.9164,0.0,0.0,5.0249,0.0,0.0,0.0,0.0,0.0,5.1191,5.1191,0.0,0.0,5.1191,5.1191,5.1191,0.0,5.1191,5.1011,5.0831,5.1011,5.0805,5.0525,5.0647,5.0591,0.0,0.0,0.0,5.0294,5.0038,0.0,0.0,0.0,0.0,0.0,0.0,0.0,0.0,0.0,0.0,0.0,0.0,0.0,0.0,0.0,0.0,0.0,0.0,0.0,0.0,0.0,0.0,0.0,5.3489,5.3489,5.3489,0.0,5.3489,5.3489,5.3489,5.3489,5.3489,5.3489,5.4156,5.478,5.5416,5.6084,5.6723,5.7303,5.7303,5.7303,5.7303,5.7303,5.7303,5.7303,5.7303,5.7303,5.7303,5.7303,5.7303,5.7303,5.7303,5.712,5.688,4.7776,0.0,0.0,0.0,0.0,0.0,0.0,0.0,0.0,0.0,4.9309,0.0,4.9494,0.0,4.9354,0.0,4.9374,4.9297,4.9233,4.9063,0.0,4.8962,4.8563,0.0,0.0,0.0,0.0,0.0,0.0,4.8873,4.9292,4.9531,4.9838,5.0196,5.0458,5.0802,5.1191,5.1191,5.1191,0.0,0.0,5.1191,0.0,0.0,5.1191,5.1191,0.0,5.1191,5.1191,5.1191,5.1097,5.0964,5.1144,5.0994,5.0757,5.0893,5.0837,5.0724,5.0614,5.0614,0.0,0.0,5.0246,0.0,4.9902,0.0,0.0,0.0,0.0,0.0,0.0,0.0,0.0,0.0,0.0,0.0,0.0,4.9693,0.0,0.0,0.0,0.0,0.0,0.0,5.3489,5.3489,5.3489,5.3489,0.0,0.0,5.3489,5.3489,5.3489,5.3489,5.3489,5.4386,5.5025,5.5416,5.6302,5.6926,5.7303,5.7303,5.7303,5.7303,5.7303,5.7303,5.7303,5.7303,5.7303,5.7303,5.7303,5.7303,5.7303,5.7303,5.7205,5.7007,0.0,0.0,0.0,0.0,4.8214,0.0,0.0,0.0,4.9888,0.0,5.0595,5.1124,5.1156,5.1156,5.1172,5.1205,5.1205,0.0,5.0972,5.0811,0.0,0.0,5.0365,5.0219,5.0289,0.0,0.0,0.0,0.0,0.0,4.9396,4.9979,5.024,5.0293,5.0922,5.1191,5.1191,5.1191,5.1191,5.1191,5.1191,5.1191,5.1191,5.1191,0.0,5.1191,5.1191,5.1191,5.1191,5.1191,5.1191,5.1191,5.1191,5.1191,5.1191,5.1191,5.1191,5.1144,5.0878,5.0831,5.0775,5.0581,0.0,0.0,0.0,0.0,5.011,0.0,0.0,0.0,0.0,0.0,0.0,0.0,0.0,0.0,0.0,0.0,0.0,0.0,0.0,0.0,0.0,5.3123,5.3489,5.3489,5.3489,5.3489,0.0,0.0,5.3489,5.3489,5.3489,5.3489,5.3489,5.4778,5.5402,5.5431,5.6694,5.7303,5.7303,5.7303,5.7303,5.7303,5.7303,5.7303,5.7303,5.7303,5.7303,5.7303,5.7303,5.7303,5.7303,5.7303,5.7303,5.7303,5.0786,5.0615,5.0397,0.0,4.9305,4.8599,0.0,0.0,0.0,0.0,5.0595,5.1318,5.1853,5.1918,5.2131,5.2688,5.2737,0.0,0.0,0.0,0.0,5.071,5.0288,5.0055,5.0071,4.9769,0.0,5.0056,0.0,0.0,5.072,5.0862,5.0936,5.0951,5.1116,5.1191,5.1191,5.1191,5.1191,5.1191,5.1191,5.1191,0.0,0.0,5.1191,5.1191,5.1191,5.1191,5.1191,5.1191,5.1191,5.1191,5.1191,5.1191,5.1191,5.1191,5.1191,5.1167,5.112,5.1097,5.105,5.079,5.0728,5.0671,0.0,0.0,0.0,0.0,0.0,0.0,0.0,0.0,0.0,0.0,0.0,0.0,0.0,0.0,0.0,4.9113,0.0,0.0,0.0,5.2862,5.3489,5.3489,5.3489,0.0,0.0,0.0,0.0,5.3489,5.3489,5.3489,5.3489,5.4778,5.5402,5.5431,5.6694,5.7303,5.7303,5.7303,5.7303,5.7303,5.7303,5.7303,5.7303,5.7303,5.7303,5.7303,5.7303,5.7303,5.7303,5.7303,5.7303,5.7303,5.1625,0.0,0.0,5.1513,0.0,0.0,4.9741,0.0,0.0,5.1425,5.2398,0.0,5.3688,5.3737,5.3903,5.4318,5.4351,0.0,0.0,0.0,0.0,5.2739,5.2507,5.2198,5.176,5.1394,0.0,5.0991,0.0,0.0,5.1191,5.1191,5.1191,5.1191,5.1191,5.1191,5.1191,5.1191,5.1191,5.1191,5.1191,0.0,0.0,5.1191,5.1191,5.1191,5.1191,5.1191,5.1191,5.1191,5.1191,5.1191,5.1191,5.1191,5.1191,5.1191,5.1191,5.1191,5.1191,5.1191,5.1167,5.1011,5.0964,5.0917,5.0671,5.0638,5.0638,0.0,0.0,0.0,0.0,0.0,0.0,0.0,0.0,0.0,0.0,0.0,0.0,0.0,5.0543,0.0,0.0,5.2934,5.3489,5.3489,5.3489,0.0,0.0,0.0,0.0,5.3489,5.3489,5.3489,5.3489,5.4778,5.5402,5.5431,5.6694,5.7303,5.7303,5.7303,5.7303,5.7303,5.7303,5.7303,5.7303,5.7303,5.7303,5.7303,5.7303,5.7303,5.7303,5.7303,5.7303,5.7303,0.0,0.0,0.0,0.0,0.0,0.0,0.0,5.2757,0.0,5.3536,0.0,5.5733,5.5834,5.5834,5.5885,5.5969,0.0,5.5884,5.5658,5.5752,5.5658,5.5329,5.5408,5.5044,5.4131,5.3724,0.0,0.0,0.0,0.0,5.1191,5.1191,5.1191,5.1191,5.1191,5.1191,5.1191,5.1191,5.1191,5.1191,5.1191,5.1191,5.1191,5.1191,5.1191,5.1206,5.1295,5.1265,5.1191,5.1191,5.1191,5.1191,5.1191,5.1191,5.1191,5.1191,5.1191,5.1191,5.1191,5.1191,5.1191,5.1191,5.1191,5.1144,5.0917,5.0855,5.0855,5.0855,5.0686,0.0,0.0,0.0,0.0,0.0,0.0,0.0,0.0,0.0,0.0,0.0,0.0,0.0,0.0,0.0,0.0,0.0,0.0,0.0,0.0,0.0,0.0,5.3489,5.3489,0.0,5.3619,0.0,5.5445,5.5562,5.6737,5.7303,5.7303,5.7303,5.7303,5.7303,5.7303,5.7303,5.7303,5.7303,5.7303,5.7303,5.7303,5.7303,5.7303,5.7303,5.7303,5.7303,0.0,0.0,0.0,0.0,0.0,5.5041,5.4923,5.4562,5.4319,5.4319,5.512,5.5936,5.6545,5.6613,5.685,5.7459,5.7509,0.0,0.0,0.0,0.0,5.532,5.5324,5.5166,5.475,5.4667,5.3993,0.0,0.0,0.0,5.1191,5.1191,5.1191,5.1191,5.1191,5.1191,5.1191,5.1191,0.0,5.1191,5.1191,5.1191,5.1191,5.1191,5.1191,5.1265,5.1828,5.1678,5.1191,5.1191,5.1191,5.1191,5.1191,5.1191,5.1191,5.1191,5.1191,5.1191,5.1191,5.1191,5.1191,5.1191,5.1191,5.1191,5.1144,5.112,5.112,5.112,5.0917,5.0775,5.0784,0.0,0.0,0.0,0.0,0.0,0.0,0.0,0.0,0.0,0.0,0.0,0.0,0.0,0.0,0.0,0.0,0.0,0.0,0.0,0.0,0.0,5.3489,0.0,0.0,0.0,0.0,5.6244,5.6955,5.7303,5.7303,5.7303,5.7303,5.7303,5.7303,5.7303,5.7303,5.7303,5.7303,5.7303,5.7303,5.7303,5.7303,5.7303,5.7303,5.7303,0.0,0.0,0.0,0.0,0.0,0.0,0.0,5.6511,0.0,5.5737,5.6364,5.6985,5.7323,5.7357,5.7509,5.7883,5.79,5.7718,5.7312,5.7258,5.7089,5.6674,5.6655,0.0,5.5799,5.5547,5.4672,5.3115,0.0,0.0,0.0,0.0,5.1191,5.1191,5.1191,5.1191,5.1191,0.0,0.0,5.1723,5.1723,5.1932,5.2232,5.2232,5.2232,5.2276,5.2591,5.2501,5.2232,5.2232,5.2232,5.2232,5.2232,5.2232,5.2232,5.2232,5.2232,5.2232,5.2232,5.2232,5.2232,5.2232,5.2232,5.2232,5.2232,5.2232,5.2232,5.2232,5.2121,5.2001,5.1856,5.191,0.0,0.0,0.0,0.0,0.0,0.0,0.0,0.0,0.0,0.0,0.0,0.0,0.0,0.0,0.0,0.0,0.0,0.0,0.0,0.0,0.0,0.0,0.0,0.0,0.0,5.6418,5.7013,5.7303,5.7303,5.7303,5.7303,5.7303,5.7303,5.7303,5.7303,5.7303,5.7303,5.7303,5.7303,5.7303,5.7303,5.7303,5.7303,5.7303,0.0,5.6054,0.0,0.0,5.7036,0.0,5.7815,5.79,5.7679,5.7103,5.7526,5.79,5.79,5.79,5.79,5.79,5.79,5.79,5.79,5.79,5.79,5.79,5.79,5.7589,5.6899,5.6506,5.553,0.0,0.0,0.0,0.0,0.0,0.0,0.0,0.0,0.0,0.0,0.0,5.2131,5.2411,5.2411,5.2855,5.3498,5.3271,5.3344,5.3513,5.3436,5.3423,5.3414,5.3588,5.3438,5.3198,5.3198,5.3198,5.3198,5.3198,5.3198,5.3198,5.3198,5.3198,5.3198,5.3198,5.3198,5.3198,5.3198,5.3198,5.3198,5.3198,5.3198,5.3116,5.2847,5.2808,0.0,0.0,0.0,0.0,0.0,0.0,0.0,0.0,0.0,0.0,0.0,0.0,0.0,0.0,0.0,0.0,0.0,0.0,0.0,0.0,0.0,5.3892,5.4691,0.0,5.5808,0.0,5.7071,5.7303,5.7303,5.7303,5.7303,5.7303,5.7303,5.7303,5.7303,5.7303,5.7303,5.7303,5.7303,5.7303,5.7303,5.7303,5.7303,5.7303,0.0,0.0,0.0,0.0,0.0,0.0,0.0,5.79,5.7883,5.7815,5.7866,5.79,5.79,5.79,5.79,5.79,5.79,5.79,5.79,5.79,5.79,5.79,5.79,5.7863,5.779,5.7737,5.7131,0.0,0.0,0.0,0.0,0.0,0.0,0.0,0.0,0.0,0.0,5.4383,5.3866,5.3124,5.3124,5.3702,5.4451,5.3546,5.3771,5.4519,5.4206,5.4117,5.4206,5.4805,5.4216,5.3198,5.3198,5.3198,5.3198,5.3198,5.3198,5.3198,5.3198,5.3198,5.3198,5.3198,5.3198,5.3198,5.3198,5.3198,5.3198,5.3198,5.3198,5.3116,5.2847,5.3476,5.3953,0.0,0.0,0.0,0.0,0.0,0.0,0.0,0.0,0.0,0.0,0.0,0.0,0.0,0.0,0.0,0.0,0.0,0.0,5.3489,0.0,5.4096,5.5315,5.5373,0.0,5.7231,5.7274,5.7303,5.7303,5.7303,5.7303,5.7303,5.7303,5.7303,5.7303,5.7303,5.7303,5.7303,5.7303,5.7303,5.7303,5.7303,5.7303,5.7303,0.0,0.0,0.0,0.0,0.0,0.0,0.0,5.79,5.79,5.79,5.79,5.79,5.79,5.79,5.8086,5.8524,5.8558,5.8744,5.9184,5.9218,5.9218,5.9218,5.9218,5.9218,5.9218,5.9106,5.8545,0.0,0.0,0.0,0.0,0.0,0.0,0.0,0.0,5.5357,5.5608,5.5608,5.5577,5.5542,5.5542,5.6023,5.6699,5.6287,5.6036,5.5821,5.5694,5.5268,5.4835,5.5104,5.4835,5.4411,5.4411,5.4411,5.4411,5.4411,5.4411,5.4411,5.4411,5.4411,5.4411,5.4411,5.4411,5.4411,5.4411,5.4411,5.4411,5.4411,5.4411,5.4361,5.4261,5.4425,5.4579,0.0,0.0,0.0,0.0,0.0,0.0,0.0,0.0,0.0,0.0,0.0,0.0,0.0,0.0,0.0,0.0,0.0,0.0,5.3489,0.0,5.4098,5.5402,5.5402,5.6041,5.7303,5.7303,5.7303,5.7303,5.7303,5.7303,5.7303,5.7303,5.7303,5.7303,5.7303,5.7303,5.7303,5.7303,5.7303,5.7303,5.7303,5.7303,5.7303,5.79,0.0,5.79,0.0,5.79,5.7966,5.8186,5.822,5.8287,5.8507,5.856,5.8457,5.8254,5.8406,5.8761,5.9267,5.9317,5.9537,6.0063,6.0097,6.0097,6.0097,6.0097,0.0,6.0097,5.9964,5.9585,5.8966,5.7653,0.0,0.0,0.0,0.0,0.0,5.6975,5.7015,5.7207,5.7207,5.7261,5.7381,5.7381,5.784,5.8512,5.8215,5.7846,5.7394,5.6815,5.6158,5.5576,5.528,5.5194,5.5194,5.5194,5.5194,5.5194,5.5194,5.5194,5.5194,5.5194,5.5194,5.5194,5.5194,5.5194,5.5194,5.5194,5.5194,5.5194,5.5194,5.5194,5.5194,5.5194,5.5042,5.4966,0.0,0.0,0.0,0.0,0.0,0.0,0.0,5.4333,5.4097,5.3904,0.0,0.0,0.0,0.0,0.0,0.0,0.0,0.0,0.0,0.0,0.0,0.0,5.5402,5.6041,5.7303,5.7303,5.7303,5.7303,5.7303,5.7303,5.7303,5.7303,5.7303,5.7303,5.7303,5.7303,5.7303,5.7303,5.7303,5.7303,5.7303,5.7303,5.7303,5.79,5.79,5.79,5.79,5.79,5.8152,5.8878,5.8979,5.9233,5.9979,6.0063,5.981,5.9064,5.9641,6.008,6.008,6.008,6.008,6.0097,6.0097,6.0097,0.0,0.0,6.0097,6.0097,6.0097,6.0097,6.0078,0.0,0.0,5.7133,0.0,5.6406,5.8561,5.8561,5.8945,5.9549,5.9549,5.8985,5.8085,5.8085,5.8693,5.9477,5.8467,5.8709,5.93,5.7315,5.659,5.6436,5.5501,5.5194,5.5194,5.5194,5.5194,5.5194,5.5194,5.5194,5.5194,5.5194,5.5194,5.5194,5.5194,5.5194,5.5194,5.5194,5.5194,5.5194,5.5194,5.5194,5.5194,5.5194,5.5194,5.5194,5.5194,0.0,0.0,0.0,0.0,0.0,0.0,5.3904,5.3904,5.3904,0.0,0.0,0.0,0.0,0.0,0.0,0.0,0.0,5.3489,5.3489,0.0,5.5402,5.5402,5.6041,5.7303,5.7303,5.7303,5.7303,5.7303,5.7303,5.7303,5.7303,5.7303,5.7303,5.7303,5.7303,5.7303,5.7303,5.7303,5.7303,5.7303,5.7303,5.7303,5.79,5.8304,5.866,5.866,5.9066,5.9471,5.9725,5.9759,5.9827,6.0063,6.0588,6.0842,6.0605,6.0283,6.0317,0.0,6.0926,6.1129,0.0,6.167,6.167,6.167,6.167,6.167,6.167,6.167,6.167,6.167,0.0,0.0,0.0,5.8882,5.9371,6.0713,6.0568,6.055,6.0612,6.0612,6.0447,6.0152,6.0152,6.034,6.0591,6.0259,5.9903,5.9537,5.8883,5.7769,5.6541,5.6256,5.5735,5.5194,5.5194,5.5194,5.5194,5.5194,5.5194,5.5194,5.5194,5.5194,5.5194,5.5194,5.5194,5.5194,5.5194,5.5194,5.5194,5.5194,5.5194,5.5194,5.5194,5.5194,5.5194,5.5194,0.0,0.0,0.0,0.0,0.0,0.0,5.4798,5.4722,0.0,5.4517,0.0,0.0,0.0,0.0,0.0,0.0,0.0,0.0,5.4226,0.0,5.5402,5.5866,5.6505,5.7303,5.7303,5.7303,5.7303,5.7303,5.7303,5.7303,5.7303,5.7303,5.7303,5.7303,5.7303,5.7303,5.7303,5.7303,5.7303,5.7303,5.7303,5.7303,5.8727,5.9099,5.9402,5.9402,5.9793,6.0199,6.0503,6.0554,6.0655,6.0926,6.14,6.1704,6.1704,6.1264,0.0,6.167,6.1704,6.1907,6.2383,6.24,6.24,6.24,6.24,6.24,6.24,0.0,0.0,6.24,6.1541,6.1094,6.1011,6.0766,6.0945,6.1461,6.1338,6.121,6.1102,6.1102,6.1102,6.1102,6.1102,6.1102,6.1102,6.1102,6.0713,6.0114,5.9751,5.8793,5.7676,5.73,5.6783,5.628,5.628,5.6026,5.5675,5.5305,5.5194,5.5194,5.5194,5.5194,5.5194,5.5194,5.5194,5.5194,5.5194,5.5194,5.5194,5.5194,5.5194,5.5194,5.5194,5.5194,5.5194,5.5194,0.0,5.5194,0.0,0.0,0.0,0.0,0.0,0.0,0.0,5.4803,0.0,0.0,0.0,0.0,0.0,0.0,0.0,5.406,5.4705,0.0,5.555,5.6234,5.6805,5.7303,5.7303,5.7303,5.7303,5.7303,5.7303,5.7303,5.7303,5.7303,5.7303,5.7303,5.7303,5.7303,5.7303,5.7303,5.7303,5.7303,5.7303,5.7303,6.0097,6.0148,0.0,0.0,6.0233,0.0,6.1264,6.1383,6.162,6.2316,6.24,6.24,6.24,6.24,6.24,6.24,0.0,0.0,0.0,6.24,6.24,6.24,6.24,0.0,6.24,6.24,6.24,6.24,6.2153,6.1934,6.1729,6.1547,6.1338,6.1144,6.1144,6.1123,6.1102,6.1102,6.1102,6.1102,6.1102,6.1102,6.1102,6.1102,6.1102,6.0977,6.0049,5.9669,5.9455,5.8512,5.817,5.8101,5.8101,5.7465,5.6533,5.5576,5.5255,5.5194,5.5194,5.5194,5.5194,5.5194,5.5194,5.5194,5.5194,5.5194,5.5194,5.5194,5.5194,5.5194,5.5194,5.5194,5.5194,5.5194,5.5194,5.5194,5.5194,0.0,0.0,0.0,0.0,0.0,0.0,5.4828,5.4915,0.0,0.0,0.0,0.0,0.0,5.4145,5.4388,5.5052,5.5557,5.5879,5.6525,5.7015,5.7303,5.7303,5.7303,5.7303,5.7303,5.7303,5.7303,5.7303,5.7303,5.7303,5.7303,5.7303,5.7303,5.7303,5.7303,5.7303,5.7303,5.7303,5.7303,0.0,0.0,6.1028,6.1028,6.1484,6.1907,6.2093,6.2127,6.2195,6.2383,6.24,6.24,6.24,6.24,6.24,6.24,6.24,6.24,6.24,6.24,6.24,6.24,6.24,6.24,6.24,6.24,6.24,6.24,6.2341,6.2265,6.2243,6.2183,6.1947,6.1564,6.1564,6.1396,6.1102,6.1102,6.1102,6.1102,6.1102,6.1102,6.1102,6.1102,6.1102,6.1061,6.0835,6.0259,5.9559,5.9323,5.8732,5.8101,5.8101,5.7939,5.7543,5.6566,5.576,5.5194,5.5194,5.5194,5.5194,5.5194,5.5194,5.5194,5.5194,5.5194,5.5194,5.5194,5.5194,5.5194,5.5194,5.5194,5.5194,5.5194,5.5194,5.5194,5.5194,0.0,0.0,0.0,5.5118,5.5118,5.5118,5.5118,5.5042,0.0,0.0,0.0,0.0,0.0,5.529,5.5382,5.6008,5.6435,5.6554,5.7225,5.748,5.7303,5.7303,5.7303,5.7303,5.7303,5.7303,5.7303,5.7303,5.7303,5.7303,5.7303,5.7303,5.7303,5.7303,5.7303,5.7303,5.7303,5.7303,5.7303,6.1146,6.1501,6.1789,6.1789,6.2127,6.24,6.24,6.24,6.24,6.24,6.24,6.24,6.24,6.24,6.24,6.24,6.24,6.24,6.24,6.24,6.24,6.24,6.24,6.24,6.24,6.24,6.24,6.24,6.24,6.2341,6.2209,6.2209,6.203,6.1689,6.1689,6.1584,6.1375,6.1375,6.1314,6.1231,6.1231,6.1186,6.1102,6.1102,6.1102,6.1102,6.1102,6.0755,6.0281,6.0281,5.9925,5.9477,5.9477,5.9151,5.8687,5.8139,5.6974,5.576,5.533,5.5194,5.5194,5.5194,5.5194,5.5194,5.5194,5.5194,5.5194,5.5194,5.5194,5.5194,5.5194,5.5194,5.5194,5.5194,5.5194,5.5194,5.5194,5.5194,0.0,5.5194,5.5194,5.5194,5.5194,5.5194,5.5143,5.4991,0.0,0.0,5.5424,5.5752,5.5945,5.5945,5.6858,5.7289,5.7197,5.7597,5.7626,5.7303,5.7303,5.7303,5.7303,5.7303,5.7303,5.7303,5.7303,5.7303,5.7303,5.7303,5.7303,5.7303,5.7303,5.7303,5.7303,5.7303,5.7303,5.7303,6.2576,6.2479,6.24,6.24,6.24,6.24,6.24,6.24,6.24,6.24,6.24,6.24,6.24,6.24,6.24,6.24,6.24,6.24,6.24,6.24,6.24,6.24,6.24,6.24,6.24,6.24,6.24,6.24,6.24,6.2285,6.2056,6.2056,6.1934,6.1689,6.1689,6.1669,6.1625,6.1625,6.1523,6.1359,6.1359,6.1252,6.1102,6.1102,6.1102,6.1102,6.1102,6.1102,6.1102,6.1102,6.1102,6.1102,6.1102,6.051,5.9794,5.9647,5.8391,5.6807,5.571,5.5305,5.5194,5.5194,5.5194,5.5194,5.5194,5.5194,5.5194,5.5194,5.5194,5.5194,5.5194,5.5194,5.5194,5.5194,5.5194,5.5194,5.5194,0.0,5.5194,5.5194,5.5194,5.5194,5.5194,5.5194,5.5194,5.5194,5.5284,0.0,0.0,5.6387,5.6492,5.6492,5.7543,5.8011,5.7862,5.7877,5.7682,5.7388,5.7388,5.736,5.7303,5.7303,5.7303,5.7303,5.7303,5.7303,5.7303,5.7303,5.7303,5.7303,5.7303,5.7303,5.7303,5.7303,5.7303,5.7303,6.3327,6.2832,6.24,6.24,6.24,6.24,6.24,6.24,6.24,6.24,6.24,6.24,6.24,6.24,6.24,6.24,6.24,6.24,6.24,6.24,6.24,6.24,6.24,6.24,6.24,6.24,6.24,6.24,6.24,6.2381,6.2341,6.2341,6.2107,6.1689,6.1689,6.1502,6.1186,6.1186,6.1186,6.1144,6.1144,6.1123,6.1102,6.1102,6.1102,6.1102,6.1102,6.1102,6.1102,6.1102,6.1102,6.1102,6.1102,6.0981,6.0713,5.986,5.9389,5.8725,5.6863,5.5794,5.5194,5.5194,5.5194,5.5194,5.5194,5.5194,5.5194,5.5194,5.5194,5.5194,5.5194,5.5194,5.5194,5.5194,5.5194,5.5194,0.0,0.0,5.5194,5.5194,5.5194,5.5194,5.5194,5.5194,5.5194,5.5194,5.5728,5.6087,5.6192,5.7214,5.7801,5.7801,5.7995,5.8235,5.8558,5.8276,5.7988,5.7725,5.7725,5.757,5.7303,5.7303,5.7303,5.7303,5.7303,5.7303,5.7303,5.7303,5.7303,5.7303,5.7303,5.7303,5.7303,5.7303,5.7303,5.7303,6.3495,6.2908,6.24,6.24,6.24,6.24,6.24,6.24,6.24,6.24,6.24,6.24,6.24,6.24,6.24,6.24,6.24,6.24,6.24,6.24,6.24,6.24,6.24,6.24,6.24,6.24,6.24,6.24,6.24,6.2601,6.299,6.299,6.3093,6.3262,6.3157,6.3055,6.2973,6.2703,6.262,6.2603,6.2494,6.2384,6.2278,6.2278,6.2278,6.2278,6.2278,6.2278,6.2278,6.2278,6.2034,6.1703,6.1703,6.1417,6.1019,6.0532,5.9647,5.8596,5.766,5.7102,5.6759,5.6759,5.6759,5.6629,5.6075,5.5952,5.5794,5.5305,5.5194,5.5194,5.5194,5.5194,5.5194,5.5194,5.5194,0.0,0.0,5.5194,5.5194,5.5194,5.5194,5.5194,5.5194,5.5194,5.5344,5.5713,5.6028,5.6507,5.7184,5.7797,5.8264,5.8635,5.865,5.8665,5.8706,5.8555,5.8335,5.8016,5.8016,5.7933,5.7779,5.7626,5.757,5.757,5.7388,5.7303,5.7303,5.7303,5.7303,5.7303,5.7303,5.7303,5.7303,5.7303,5.7303,5.7303,6.4005,6.3272,6.2714,6.2872,6.2774,6.2656,6.2656,6.2792,6.2853,6.2671,6.2787,6.2905,6.2905,6.2905,6.2905,6.2905,6.2905,6.2905,6.2905,6.2905,6.2773,6.2398,6.255,6.2651,6.2651,6.2804,6.2905,6.2905,6.2905,6.3193,6.3748,6.3748,6.4032,6.4515,6.4368,6.4327,6.433,6.3978,6.381,6.3751,6.3598,6.3444,6.3294,6.3294,6.3294,6.3294,6.3294,6.3294,6.3294,6.3294,6.2913,6.2449,6.2449,6.2068,6.1583,6.1401,6.0142,5.8754,5.8512,5.8284,5.8101,5.8101,5.8101,5.7893,5.711,5.6959,5.6743,5.6026,5.5869,5.5869,5.5869,5.5869,5.5869,5.5869,0.0,0.0,0.0,5.5869,5.5869,5.5869,5.5869,5.5869,5.5869,5.602,5.6249,5.6515,5.6832,5.7335,5.8067,5.8249,5.8575,5.9084,5.9099,5.8991,5.8788,5.8788,5.8637,5.832,5.832,5.8293,5.821,5.8003,5.7864,5.7781,5.7542,5.736,5.7303,5.7303,5.7303,5.7303,5.7303,5.7303,5.7303,5.7303,5.7303,5.7303,6.5551,6.4393,6.3625,6.4323,6.3861,6.3421,6.3421,6.3988,6.4187,6.3492,6.4021,6.4444,6.4444,6.4444,6.4444,6.4444,6.4444,6.4444,6.4444,6.4444,6.3818,6.2448,6.3057,6.3409,6.3409,6.4089,6.4444,6.4444,6.4444,6.4461,6.4529,6.4529,6.4444,6.433,6.431,6.4061,6.3679,6.3636,6.3508,6.3337,6.3337,6.3315,6.3294,6.3294,6.3294,6.3294,6.3294,6.3294,6.3294,6.3294,6.3261,6.3211,6.3211,6.3178,6.2996,6.2316,6.1532,6.0692,5.9734,5.8822,5.8101,5.8101,5.8101,5.8078,5.8008,5.8008,5.7985,5.7893,5.7893,5.7893,5.7893,5.7893,5.7893,5.7893,0.0,0.0,5.7893,5.7893,5.7893,5.7893,5.7893,5.7893,5.7893,5.8499,5.8505,5.758,5.8698,5.9045,5.8138,5.8695,5.9054,5.9099,5.9099,5.9072,5.9087,5.9087,5.8924,5.8652,5.8652,5.85,5.821,5.8182,5.8016,5.7809,5.7781,5.7598,5.7303,5.7303,5.7303,5.7303,5.7303,5.7303,5.7303,5.7303,5.7303,5.7303,6.6353,6.563,6.5162,6.5935,6.5863,6.5504,6.5004,6.5171,6.5055,6.4274,6.4427,6.4597,6.4597,6.4597,6.4597,6.4597,6.4597,6.4597,6.4597,6.4597,6.4343,6.3785,6.4038,6.4191,6.4191,6.4461,6.4597,6.4597,6.4597,6.4833,6.5273,6.5273,6.5486,6.5842,6.5712,6.5581,6.539,6.5094,6.492,6.4833,6.468,6.4597,6.4597,6.4597,6.4597,6.4597,6.4597,6.4597,6.4597,6.4597,6.4338,6.3973,6.3973,6.3675,6.3244,6.2962,6.2681,6.2281,6.1427,6.0586,5.9946,5.9946,5.9946,5.9794,5.9173,5.904,5.8844,5.8238,5.8101,5.8101,5.8101,5.8101,5.8101,5.8101,0.0,5.8101,5.8101,5.8101,5.8101,5.8101,5.8101,5.8282,5.8724,5.9048,5.9389,5.9845,6.0385,6.0696,6.0704,6.033,5.9804,5.9126,5.9099,5.9099,5.9099,5.9099,5.9045,5.8951,5.8951,5.8882,5.8746,5.8375,5.828,5.835,5.7948,5.7725,5.7598,5.7598,5.7486,5.7303,5.7303,5.7303,5.7303,5.7303,5.7303,5.7303,6.7514,6.7034,6.6772,6.756,6.7495,6.7148,6.6612,6.6713,6.65,6.5449,6.551,6.5579,6.5311,6.529,6.529,6.529,6.529,6.529,6.529,6.529,6.5087,6.4613,6.4816,6.4952,6.4952,6.5172,6.529,6.529,6.529,6.5544,6.6051,6.6051,6.6322,6.6791,6.666,6.6571,6.6485,6.6162,6.5972,6.5867,6.5625,6.5537,6.5514,6.5431,6.5387,6.5387,6.5387,6.5387,6.5387,6.5387,6.5094,6.4697,6.4697,6.4222,6.3642,6.3642,6.3476,6.3194,6.2681,6.2184,6.1682,6.1235,6.1102,6.0919,6.0238,6.0071,5.9881,5.9173,5.904,5.904,5.904,5.904,5.904,5.904,5.904,5.904,5.904,5.904,5.904,5.904,5.9255,5.9598,6.008,6.0569,6.1088,6.1735,6.1982,6.2172,6.229,6.1286,6.0364,5.9633,5.9288,5.9099,5.9099,5.9099,5.9099,5.9099,5.9099,5.9099,5.9087,5.8676,5.8555,5.8679,5.8267,5.8031,5.792,5.7836,5.7654,5.7458,5.7331,5.7303,5.7303,5.7303,5.7303,5.7303,6.921,6.8624,6.8349,6.9085,6.8608,6.8119,6.8119,6.8729,6.8663,6.7109,6.7549,6.7693,6.6879,6.6791,6.6791,6.6791,6.6791,6.6791,6.6791,6.6791,6.6153,6.4681,6.5307,6.5717,6.5717,6.644,6.6791,6.6791,6.6791,6.6791,6.6791,6.6791,6.6791,6.6791,6.6791,6.6681,6.6485,6.6485,6.6323,6.6074,6.5889,6.5796,6.5774,6.5514,6.5387,6.5387,6.5387,6.5387,6.5387,6.5387,6.5387,6.5387,6.5387,6.4945,6.442,6.442,6.389,6.331,6.331,6.331,6.2962,6.1483,6.1119,6.1119,6.1102,6.1102,6.1102,6.1102,6.1102,6.1102,6.1102,6.1102,6.1102,6.1102,6.1102,6.1102,6.1102,6.1102,6.1102,6.1119,6.1753,6.2184,6.2217,6.3542,6.3973,6.2895,6.3489,6.3436,6.2371,6.1311,6.0712,6.0712,5.9671,5.9099,5.9099,5.9099,5.9099,5.9099,5.9099,5.9099,5.9099,5.9099,5.8936,5.8706,5.8706,5.85,5.8167,5.792,5.7809,5.7781,5.743,5.7303,5.7303,5.7303,5.7303,5.7303,6.9934,6.9852,6.9936,7.0685,7.0631,7.0307,6.9795,6.9907,6.9477,6.7884,6.7857,6.7693,6.6879,6.6791,6.6791,6.6791,6.6791,6.6791,6.6791,6.6791,6.6588,6.617,6.6356,6.6474,6.6474,6.6673,6.6791,6.6791,6.6791,6.6791,6.6791,6.6791,6.6791,6.6791,6.6791,6.6584,6.622,6.622,6.5982,6.5609,6.5542,6.5514,6.5514,6.5431,6.5387,6.5387,6.5387,6.5387,6.5387,6.5387,6.5387,6.5387,6.5387,6.5276,6.5111,6.5111,6.4945,6.4664,6.4205,6.4072,6.3725,6.225,6.1869,6.1753,6.1218,6.1102,6.1102,6.1102,6.1102,6.1102,6.1102,6.1102,6.1102,6.1102,6.1102,6.1102,6.1102,6.1102,6.1285,6.1819,6.2068,6.2598,6.3642,6.4139,6.4454,6.4603,6.4828,6.4499,6.3483,6.3124,6.2599,6.185,6.0789,6.0222,6.0222,5.9473,5.9099,5.9099,5.9099,5.9099,5.9072,5.8924,5.887,5.8978,5.8788,5.8652,5.8527,5.846,5.828,5.8044,5.7766,5.7654,5.7626,5.7388,5.7303,5.7303,7.0734,7.0824,7.0969,7.1422,7.1513,7.1352,7.0911,7.0845,7.0388,6.9108,6.8676,6.8174,6.7363,6.6984,6.6791,6.6791,6.6791,6.6791,6.6791,6.6791,6.6791,6.6791,6.6791,6.6791,6.6791,6.6791,6.6791,6.6791,6.6791,6.6791,6.6791,6.6791,6.6791,6.6791,6.6724,6.6516,6.6242,6.6139,6.5943,6.5675,6.5603,6.5559,6.5559,6.5431,6.5387,6.5387,6.5387,6.5387,6.5387,6.5387,6.5387,6.5387,6.5387,6.5387,6.5387,6.5387,6.5387,6.5304,6.4912,6.4796,6.4514,6.336,6.2846,6.2432,6.1699,6.1533,6.145,6.1169,6.1102,6.1102,6.1102,6.1102,6.1102,6.1102,6.1102,6.1202,6.1483,6.1533,6.1798,6.2548,6.288,6.3426,6.4304,6.463,6.4962,6.537,6.5387,6.5123,6.4538,6.4121,6.3594,6.2947,6.19,6.1337,6.1337,6.0274,5.9526,5.9099,5.9099,5.9099,5.9072,5.8924,5.8951,5.9072,5.8924,5.887,5.8843,5.8733,5.8597,5.8362,5.8072,5.7877,5.7781,5.757,5.7416,5.7303,7.1513,7.1513,7.1513,7.1513,7.1513,7.1513,7.1513,7.1513,7.1238,7.0491,6.9707,6.8885,6.8093,6.7281,6.6791,6.6791,6.6791,6.6791,6.6791,6.6791,6.6791,6.6791,6.6791,6.6791,6.6791,6.6791,6.6791,6.6791,6.6791,6.6791,6.6791,6.6791,6.6791,6.6791,6.6592,6.6485,6.6443,6.6177,6.6052,6.603,6.5846,6.5758,6.5736,6.5476,6.5387,6.5387,6.5387,6.5387,6.5387,6.5387,6.5387,6.5387,6.5387,6.5387,6.5387,6.5387,6.5387,6.5387,6.5387,6.5387,6.5238,6.463,6.399,6.3277,6.2465,6.2283,6.2101,6.1434,6.1301,6.1301,6.1301,6.1301,6.1301,6.1301,6.1301,6.1533,6.22,6.2283,6.2565,6.331,6.399,6.442,6.4487,6.5044,6.5387,6.5387,6.5387,6.5387,6.5387,6.4538,6.4035,6.4035,6.2996,6.2444,6.2444,6.1387,6.0285,5.9246,5.9153,5.9099,5.9099,5.9099,5.9099,5.9099,5.9099,5.9099,5.9072,5.8843,5.8733,5.8706,5.8375,5.8099,5.7864,5.7809,5.7598,5.7331,7.1513,7.1513,7.1513,7.1513,7.1513,7.1513,7.1513,7.1513,7.1238,7.0491,6.9707,6.8885,6.8093,6.7281,6.6791,6.6791,6.6791,6.6791,6.6791,6.6791,6.6791,6.6791,6.6791,6.6791,6.6791,6.6791,6.6791,6.6791,6.6791,6.6791,6.6791,6.6791,6.6791,6.6791,6.6592,6.6383,6.6177,6.5955,6.5741,6.5542,6.5498,6.5492,6.5492,6.5409,6.5387,6.5387,6.5387,6.5387,6.5387,6.5387,6.5387,6.5387,6.5387,6.5387,6.5387,6.5387,6.5387,6.5387,6.5387,6.5387,6.537,6.5227,6.5061,6.4614,6.3343,6.3062,6.3012,6.2863,6.283,6.283,6.283,6.283,6.283,6.283,6.283,6.288,6.3045,6.3062,6.3327,6.4072,6.4304,6.4619,6.5127,6.5304,6.5387,6.5387,6.5387,6.5387,6.5387,6.5191,6.5056,6.5056,6.4105,6.3547,6.3547,6.2485,6.1397,6.0337,5.9499,5.9099,5.9099,5.9099,5.9099,5.9099,5.9099,5.9099,5.9114,5.9033,5.8991,5.9006,5.8706,5.8569,5.846,5.7975,5.7753,5.7654,7.1513,7.1513,7.1513,7.1513,7.1513,7.1513,7.1513,7.1513,7.1368,7.0976,7.0251,6.9474,6.8657,6.7856,6.7219,6.6833,6.6791,6.6791,6.6791,6.6791,6.6791,6.6791,6.6791,6.6791,6.6791,6.6791,6.6791,6.6791,6.6791,6.6791,6.6791,6.6791,6.6791,6.6791,6.6592,6.6404,6.6259,6.5933,6.5714,6.5581,6.5453,6.5387,6.5387,6.5387,6.5387,6.5387,6.5387,6.5387,6.5387,6.5387,6.5387,6.5387,6.5387,6.5387,6.5387,6.5387,6.5387,6.5387,6.5387,6.5387,6.5387,6.5387,6.5387,6.5127,6.4072,6.3824,6.3725,6.3377,6.3294,6.3294,6.3294,6.3294,6.3294,6.3294,6.3294,6.341,6.3719,6.3807,6.4089,6.4779,6.4879,6.5011,6.537,6.5387,6.5387,6.5387,6.5387,6.5387,6.5387,6.5387,6.5387,6.5387,6.4897,6.4607,6.4607,6.3578,6.2794,6.2214,6.0624,5.9868,5.9842,5.9327,5.9099,5.9099,5.9099,5.9099,5.9099,5.9099,5.9099,5.9087,5.8951,5.8815,5.8652,5.835,5.7923,5.7434,7.1513,7.1513,7.1513,7.1513,7.1513,7.1513,7.1513,7.1513,7.1513,7.1513,7.0861,7.0147,6.9474,6.8562,6.769,6.6875,6.6791,6.6791,6.6791,6.6791,6.6791,6.6791,6.6791,6.6791,6.6791,6.6791,6.6791,6.6791,6.6791,6.6791,6.6791,6.6791,6.6791,6.6791,6.6592,6.6485,6.6464,6.6037,6.5846,6.5824,6.5581,6.547,6.5453,6.5409,6.5387,6.5387,6.5387,6.5387,6.5387,6.5387,6.5387,6.5387,6.5387,6.5387,6.5387,6.5387,6.5387,6.5387,6.5387,6.5387,6.5387,6.5387,6.5387,6.5238,6.4697,6.4586,6.4404,6.3791,6.3658,6.3658,6.3658,6.3658,6.3658,6.3658,6.3658,6.3835,6.4415,6.4531,6.4779,6.532,6.5387,6.5387,6.5387,6.5387,6.5387,6.5387,6.5387,6.5387,6.5387,6.5387,6.5387,6.5387,6.5387,6.5387,6.5387,6.4561,6.4168,6.4128,6.2189,6.1133,6.0928,5.9868,5.938,5.9354,5.918,5.9099,5.9099,5.9099,5.9099,5.9099,5.9099,5.8904,5.8582,5.8424,5.7806,5.692,7.1513,7.1513,7.1513,7.1513,7.1513,7.1513,7.1513,7.1513,7.1513,7.1513,7.0861,7.0354,7.0251,6.8903,6.769,6.6875,6.6791,6.6791,6.6791,6.6791,6.6791,6.6791,6.6791,6.6791,6.6791,6.6791,6.6791,6.6791,6.6791,6.6791,6.6791,6.6791,6.6791,6.6791,6.6592,6.6485,6.6485,6.6177,6.6052,6.603,6.5824,6.5752,6.5714,6.5492,6.5387,6.5387,6.5387,6.5387,6.5387,6.5387,6.5387,6.5387,6.5387,6.5387,6.5387,6.5387,6.5387,6.5387,6.5387,6.5387,6.5387,6.5387,6.5387,6.537,6.5293,6.5254,6.5243,6.5144,6.5127,6.5127,6.5127,6.5127,6.5127,6.5127,6.5127,6.516,6.5238,6.5254,6.5287,6.5387,6.5387,6.5387,6.5387,6.5387,6.5387,6.5387,6.5387,6.5387,6.5387,6.5387,6.5387,6.5387,6.5387,6.5387,6.5387,6.5275,6.5207,6.5185,6.4018,6.2988,6.2049,6.0979,6.0494,6.0442,5.9499,5.9099,5.9099,5.9099,5.9099,5.9099,5.9099,5.8728,5.808,5.7262,5.6728,5.6414,7.1513,7.1513,7.1513,7.1513,7.1513,7.1513,7.1513,7.1513,7.1513,7.1513,7.1222,7.0861,7.044,6.8959,6.7853,6.7488,6.705,6.6791,6.6791,6.6791,6.6791,6.6791,6.6791,6.6791,6.6791,6.6791,6.6791,6.6791,6.6791,6.6791,6.6791,6.6791,6.6791,6.6791,6.6703,6.6613,6.6485,6.622,6.6047,6.5895,6.5653,6.5581,6.5559,6.5448,6.5387,6.5387,6.5387,6.5387,6.5387,6.5387,6.5387,6.5387,6.5387,6.5387,6.5387,6.5387,6.5387,6.5387,6.5387,6.5387,6.5387,6.5387,6.5387,6.5387,6.5387,6.5387,6.5387,6.5387,6.5387,6.5387,6.5387,6.5387,6.5387,6.5387,6.5387,6.5387,6.5387,6.5387,6.5387,6.5387,6.5387,6.5387,6.5387,6.5387,6.5387,6.5387,6.5387,6.5387,6.5387,6.5387,6.5387,6.5387,6.5387,6.5387,6.5387,6.5387,6.5387,6.5387,6.4943,6.4198,6.3132,6.1463,6.0686,6.0634,5.958,5.9099,5.9099,5.9099,5.9099,5.9069,5.8695,5.8141,5.7416,5.6485,5.6184,5.6165]}]]